[[{"header":{"parameterUnit":"m.s-1","parameterCategory":1,"la1":31.0,"la2":29.5877,"lo1":-88.7671,"lo2":-86.6584,"dy":0.0162,"dx":0.0185,"nx":115,"ny":88,"refTime":"2023-10-29T00:00:00:Z","depth":0,"parameterNumber":2,"parameterNumberName":"U-component_of_WINDS"},"data":[0.0,0.0,0.0,0.0,0.0,0.0,0.0,0.0,0.0,0.0,0.0,0.0,0.0,0.0,0.0,0.0,0.0,0.0,0.0,0.0,0.0,0.0,0.0,0.0,0.0,0.0,0.0,0.0,0.0,0.0,0.0,0.0,0.0,0.0,0.0,0.0,0.0,0.0,0.0,0.0,0.0,0.0,0.0,0.0,0.0,0.0,0.0,0.0,0.0,0.0,0.0,0.0,0.0,0.0,0.0,0.0,0.0,0.0,0.0,0.0,0.0,0.0,0.0,0.0,0.0,0.0,0.0,0.0,0.0,0.0,0.0,0.0,0.0,0.0,0.0,0.0,0.0,0.0,0.0,0.0,0.0,0.0,0.0,0.0,0.0,0.0,0.0,0.0,0.0,0.0,0.0,0.0,0.0,0.0,0.0,0.0,0.0,0.0,0.0,0.0,0.0,0.0,0.0,0.0,0.0,0.0,0.0,0.0,0.0,0.0,0.0,0.0,0.0,0.0,0.0,0.0,0.0,0.0,0.0,0.0,0.0,0.0,0.0,0.0,0.0,0.0,0.0,0.0,0.0,0.0,0.0,0.0,0.0,0.0,0.0,0.0,0.0,0.0,0.0,0.0,0.0,0.0,0.0,0.0,0.0,0.0,0.0,0.0,0.0,0.0,0.0,0.0,0.0,0.0,0.0,0.0,0.0,0.0,0.0,0.0,0.0,0.0,0.0,0.0,0.0,0.0,0.0,0.0,0.0,0.0,0.0,0.0,0.0,0.0,0.0,0.0,0.0,0.0,0.0,0.0,0.0,0.0,0.0,0.0,0.0,0.0,0.0,0.0,0.0,0.0,0.0,0.0,0.0,0.0,0.0,0.0,0.0,0.0,0.0,0.0,0.0,0.0,0.0,0.0,0.0,0.0,0.0,0.0,0.0,0.0,0.0,0.0,0.0,0.0,0.0,0.0,0.0,0.0,0.0,0.0,0.0,0.0,0.0,0.0,0.0,0.0,0.0,0.0,0.0,0.0,0.0,0.0,0.0,0.0,0.0,0.0,0.0,0.0,0.0,0.0,0.0,0.0,0.0,0.0,0.0,0.0,0.0,0.0,0.0,0.0,0.0,0.0,0.0,0.0,0.0,0.0,0.0,0.0,0.0,0.0,0.0,0.0,0.0,0.0,0.0,0.0,0.0,0.0,0.0,0.0,0.0,0.0,0.0,0.0,0.0,0.0,0.0,0.0,0.0,0.0,0.0,0.0,0.0,0.0,0.0,0.0,0.0,0.0,0.0,0.0,0.0,0.0,0.0,0.0,0.0,0.0,0.0,0.0,0.0,0.0,0.0,0.0,0.0,0.0,0.0,0.0,0.0,0.0,0.0,0.0,0.0,0.0,0.0,0.0,0.0,0.0,0.0,0.0,0.0,0.0,0.0,0.0,0.0,0.0,0.0,0.0,0.0,0.0,0.0,0.0,0.0,0.0,0.0,0.0,0.0,0.0,0.0,0.0,0.0,0.0,0.0,0.0,0.0,0.0,0.0,0.0,0.0,0.0,0.0,0.0,0.0,0.0,0.0,0.0,0.0,0.0,0.0,0.0,0.0,0.0,0.0,0.0,0.0,0.0,0.0,0.0,0.0,0.0,0.0,0.0,0.0,0.0,0.0,0.0,0.0,0.0,0.0,0.0,0.0,0.0,0.0,0.0,0.0,0.0,0.0,0.0,0.0,0.0,0.0,0.0,0.0,0.0,0.0,0.0,0.0,0.0,0.0,0.0,0.0,0.0,0.0,0.0,0.0,0.0,0.0,0.0,0.0,0.0,0.0,0.0,0.0,0.0,0.0,0.0,0.0,0.0,0.0,0.0,0.0,0.0,0.0,0.0,0.0,0.0,0.0,0.0,0.0,0.0,0.0,0.0,0.0,0.0,0.0,0.0,0.0,0.0,0.0,0.0,0.0,0.0,0.0,0.0,0.0,0.0,0.0,0.0,0.0,0.0,0.0,0.0,0.0,0.0,0.0,0.0,0.0,0.0,0.0,0.0,0.0,0.0,0.0,0.0,0.0,0.0,0.0,0.0,0.0,0.0,0.0,0.0,0.0,0.0,0.0,0.0,0.0,0.0,0.0,0.0,0.0,0.0,0.0,0.0,0.0,0.0,0.0,0.0,0.0,0.0,0.0,0.0,0.0,0.0,0.0,0.0,0.0,0.0,0.0,0.0,0.0,0.0,0.0,0.0,0.0,0.0,0.0,0.0,0.0,0.0,0.0,0.0,0.0,0.0,0.0,0.0,0.0,0.0,0.0,0.0,0.0,0.0,0.0,0.0,0.0,0.0,0.0,0.0,0.0,0.0,0.0,0.0,0.0,0.0,0.0,0.0,0.0,0.0,0.0,0.0,0.0,0.0,0.0,0.0,0.0,0.0,0.0,0.0,0.0,0.0,0.0,0.0,0.0,0.0,0.0,0.0,0.0,0.0,0.0,0.0,0.0,0.0,0.0,0.0,0.0,0.0,0.0,0.0,0.0,0.0,0.0,0.0,0.0,0.0,0.0,0.0,0.0,0.0,0.0,0.0,0.0,0.0,0.0,0.0,0.0,0.0,0.0,0.0,0.0,0.0,0.0,0.0,0.0,0.0,0.0,0.0,0.0,0.0,0.0,0.0,0.0,0.0,0.0,0.0,0.0,0.0,0.0,0.0,0.0,0.0,0.0,0.0,0.0,0.0,0.0,0.0,0.0,0.0,0.0,0.0,0.0,0.0,0.0,0.0,0.0,0.0,0.0,0.0,0.0,0.0,0.0,0.0,0.0,0.0,0.0,0.0,0.0,0.0,0.0,0.0,0.0,0.0,0.0,0.0,0.0,0.0,0.0,0.0,0.0,0.0,0.0,0.0,0.0,0.0,0.0,0.0,0.0,0.0,0.0,0.0,0.0,0.0,0.0,0.0,0.0,0.0,0.0,0.0,0.0,0.0,0.0,0.0,0.0,0.0,0.0,0.0,0.0,0.0,0.0,0.0,0.0,0.0,0.0,0.0,0.0,0.0,0.0,0.0,0.0,0.0,0.0,0.0,0.0,0.0,0.0,0.0,0.0,0.0,0.0,0.0,0.0,0.0,0.0,0.0,0.0,0.0,0.0,0.0,0.0,0.0,0.0,0.0,0.0,0.0,0.0,0.0,0.0,0.0,0.0,0.0,0.0,0.0,0.0,0.0,0.0,0.0,0.0,0.0,0.0,0.0,0.0,0.0,0.0,0.0,0.0,0.0,0.0,0.0,0.0,0.0,0.0,0.0,0.0,0.0,0.0,0.0,0.0,0.0,0.0,0.0,0.0,0.0,0.0,0.0,0.0,0.0,0.0,0.0,0.0,0.0,0.0,0.0,0.0,0.0,0.0,0.0,0.0,0.0,0.0,0.0,0.0,0.0,0.0,0.0,0.0,0.0,0.0,0.0,0.0,0.0,0.0,0.0,0.0,0.0,0.0,0.0,0.0,0.0,0.0,0.0,0.0,0.0,0.0,0.0,0.0,0.0,0.0,0.0,0.0,0.0,0.0,0.0,0.0,0.0,0.0,0.0,0.0,0.0,0.0,0.0,0.0,0.0,0.0,0.0,0.0,0.0,0.0,0.0,0.0,0.0,0.0,0.0,0.0,0.0,0.0,0.0,0.0,0.0,0.0,0.0,0.0,0.0,0.0,0.0,0.0,0.0,0.0,0.0,0.0,0.0,0.0,0.0,0.0,0.0,0.0,0.0,0.0,0.0,0.0,0.0,0.0,0.0,0.0,0.0,0.0,0.0,0.0,0.0,0.0,0.0,0.0,0.0,0.0,0.0,0.0,0.0,0.0,0.0,0.0,0.0,0.0,0.0,0.0,0.0,0.0,0.0,0.0,0.0,0.0,0.0,0.0,0.0,0.0,0.0,0.0,0.0,0.0,0.0,0.0,0.0,0.0,0.0,0.0,0.0,0.0,0.0,0.0,0.0,0.0,0.0,0.0,0.0,0.0,0.0,0.0,0.0,0.0,0.0,0.0,0.0,0.0,0.0,0.0,0.0,0.0,0.0,0.0,0.0,0.0,0.0,0.0,0.0,0.0,0.0,0.0,0.0,0.0,0.0,0.0,0.0,0.0,0.0,0.0,0.0,0.0,0.0,0.0,0.0,0.0,0.0,0.0,0.0,0.0,0.0,0.0,0.0,0.0,0.0,0.0,0.0,0.0,0.0,0.0,0.0,0.0,0.0,0.0,0.0,0.0,0.0,0.0,0.0,0.0,0.0,0.0,0.0,0.0,0.0,3.6813,0.0,0.0,0.0,0.0,0.0,0.0,0.0,0.0,0.0,0.0,0.0,0.0,0.0,0.0,0.0,0.0,0.0,0.0,0.0,0.0,0.0,0.0,0.0,0.0,0.0,0.0,0.0,0.0,0.0,0.0,0.0,0.0,0.0,0.0,0.0,0.0,0.0,0.0,0.0,0.0,0.0,0.0,0.0,0.0,0.0,0.0,0.0,0.0,0.0,0.0,0.0,0.0,0.0,0.0,0.0,0.0,0.0,0.0,0.0,0.0,0.0,0.0,0.0,0.0,0.0,0.0,0.0,0.0,0.0,0.0,0.0,0.0,0.0,0.0,0.0,0.0,0.0,0.0,0.0,0.0,0.0,0.0,0.0,0.0,0.0,0.0,0.0,0.0,0.0,0.0,0.0,0.0,0.0,0.0,0.0,0.0,0.0,0.0,0.0,0.0,0.0,0.0,0.0,0.0,0.0,0.0,0.0,0.0,0.0,0.0,3.872,3.7839,3.8571,3.814,3.6299,0.0,0.0,0.0,0.0,0.0,0.0,0.0,0.0,0.0,0.0,0.0,0.0,0.0,0.0,0.0,0.0,0.0,0.0,0.0,0.0,0.0,0.0,0.0,0.0,0.0,0.0,0.0,0.0,0.0,0.0,0.0,0.0,0.0,0.0,0.0,0.0,0.0,0.0,0.0,0.0,0.0,0.0,0.0,0.0,0.0,0.0,0.0,0.0,0.0,0.0,0.0,0.0,0.0,0.0,0.0,0.0,0.0,0.0,0.0,0.0,0.0,0.0,0.0,0.0,0.0,0.0,0.0,0.0,0.0,0.0,0.0,0.0,0.0,0.0,0.0,0.0,0.0,0.0,0.0,0.0,0.0,0.0,0.0,0.0,0.0,0.0,0.0,0.0,0.0,0.0,0.0,0.0,0.0,0.0,0.0,0.0,0.0,0.0,0.0,0.0,0.0,0.0,0.0,0.0,0.0,0.0,0.0,0.0,0.0,0.0,0.0,0.0,3.9023,3.8471,3.6158,0.0,0.0,0.0,0.0,0.0,0.0,0.0,0.0,0.0,0.0,0.0,0.0,0.0,0.0,0.0,0.0,0.0,0.0,0.0,0.0,0.0,0.0,0.0,0.0,0.0,0.0,0.0,0.0,0.0,0.0,0.0,0.0,0.0,0.0,0.0,0.0,0.0,0.0,0.0,0.0,0.0,0.0,0.0,0.0,0.0,0.0,0.0,0.0,0.0,0.0,0.0,0.0,0.0,0.0,0.0,0.0,0.0,0.0,0.0,0.0,0.0,0.0,0.0,0.0,0.0,0.0,0.0,0.0,0.0,0.0,0.0,0.0,0.0,0.0,0.0,0.0,0.0,0.0,0.0,0.0,0.0,0.0,0.0,0.0,0.0,0.0,0.0,0.0,0.0,0.0,0.0,0.0,0.0,0.0,0.0,0.0,0.0,0.0,0.0,0.0,0.0,0.0,0.0,0.0,0.0,0.0,0.0,0.0,0.0,0.0,4.0015,4.0695,3.9928,0.0,3.737,0.0,0.0,0.0,0.0,0.0,0.0,0.0,0.0,0.0,0.0,0.0,0.0,0.0,0.0,0.0,0.0,0.0,0.0,0.0,0.0,0.0,0.0,0.0,0.0,0.0,0.0,0.0,0.0,0.0,0.0,0.0,0.0,0.0,0.0,0.0,0.0,0.0,0.0,0.0,0.0,0.0,0.0,0.0,0.0,0.0,0.0,0.0,0.0,0.0,0.0,0.0,0.0,0.0,0.0,0.0,0.0,0.0,0.0,0.0,0.0,0.0,0.0,0.0,0.0,0.0,0.0,0.0,0.0,0.0,0.0,0.0,0.0,0.0,0.0,0.0,0.0,0.0,0.0,0.0,0.0,0.0,0.0,0.0,0.0,0.0,0.0,0.0,0.0,0.0,0.0,0.0,0.0,0.0,0.0,0.0,0.0,0.0,0.0,0.0,0.0,0.0,0.0,0.0,0.0,0.0,0.0,0.0,0.0,0.0,0.0,3.9253,3.9624,3.9059,3.7866,0.0,0.0,0.0,0.0,0.0,0.0,0.0,0.0,0.0,0.0,0.0,0.0,0.0,0.0,0.0,0.0,0.0,0.0,0.0,0.0,0.0,0.0,0.0,0.0,0.0,0.0,0.0,0.0,0.0,0.0,0.0,0.0,0.0,0.0,0.0,0.0,0.0,0.0,0.0,0.0,0.0,0.0,0.0,0.0,0.0,0.0,0.0,0.0,0.0,0.0,0.0,0.0,0.0,0.0,0.0,0.0,0.0,0.0,0.0,0.0,0.0,0.0,0.0,0.0,0.0,0.0,0.0,0.0,0.0,0.0,0.0,0.0,0.0,0.0,0.0,0.0,0.0,0.0,0.0,0.0,0.0,0.0,0.0,0.0,0.0,0.0,0.0,0.0,0.0,0.0,0.0,0.0,0.0,0.0,0.0,0.0,0.0,0.0,0.0,0.0,0.0,0.0,0.0,0.0,0.0,0.0,0.0,0.0,0.0,0.0,3.8512,3.8681,3.8809,3.8416,3.7321,3.5551,0.0,0.0,0.0,0.0,0.0,0.0,0.0,0.0,0.0,0.0,0.0,0.0,0.0,0.0,0.0,0.0,0.0,0.0,0.0,0.0,0.0,0.0,0.0,0.0,0.0,0.0,0.0,0.0,0.0,0.0,0.0,0.0,0.0,0.0,0.0,0.0,0.0,0.0,0.0,0.0,0.0,0.0,0.0,0.0,0.0,0.0,0.0,0.0,0.0,0.0,0.0,0.0,0.0,0.0,0.0,0.0,0.0,0.0,0.0,0.0,0.0,0.0,0.0,0.0,0.0,0.0,0.0,0.0,0.0,0.0,0.0,0.0,0.0,0.0,0.0,0.0,0.0,0.0,0.0,0.0,0.0,0.0,0.0,0.0,0.0,0.0,0.0,0.0,0.0,0.0,0.0,0.0,0.0,0.0,0.0,0.0,0.0,0.0,0.0,0.0,0.0,0.0,0.0,0.0,0.0,0.0,0.0,0.0,4.0698,3.939,3.8883,3.9391,3.8402,3.7622,0.0,0.0,0.0,0.0,0.0,0.0,0.0,0.0,0.0,0.0,0.0,0.0,0.0,0.0,0.0,0.0,0.0,0.0,0.0,0.0,0.0,0.0,0.0,0.0,0.0,0.0,0.0,0.0,0.0,0.0,0.0,0.0,0.0,0.0,0.0,0.0,0.0,0.0,0.0,0.0,0.0,0.0,0.0,0.0,0.0,0.0,0.0,0.0,0.0,0.0,0.0,0.0,0.0,0.0,0.0,0.0,0.0,0.0,0.0,0.0,0.0,0.0,0.0,0.0,0.0,0.0,0.0,0.0,0.0,0.0,0.0,0.0,0.0,0.0,0.0,0.0,0.0,0.0,0.0,0.0,0.0,0.0,0.0,0.0,0.0,0.0,0.0,0.0,0.0,0.0,0.0,0.0,0.0,0.0,0.0,0.0,0.0,0.0,0.0,0.0,0.0,0.0,0.0,0.0,0.0,0.0,0.0,0.0,0.0,3.8648,3.9117,3.9175,3.8741,3.8172,3.7429,0.0,0.0,0.0,0.0,0.0,0.0,0.0,0.0,0.0,0.0,0.0,0.0,0.0,0.0,0.0,0.0,0.0,0.0,0.0,0.0,0.0,0.0,0.0,0.0,0.0,0.0,0.0,0.0,0.0,0.0,0.0,0.0,0.0,0.0,0.0,0.0,0.0,0.0,0.0,0.0,0.0,0.0,0.0,0.0,0.0,0.0,0.0,0.0,0.0,0.0,0.0,0.0,0.0,0.0,0.0,0.0,0.0,0.0,0.0,0.0,0.0,0.0,0.0,0.0,0.0,0.0,0.0,0.0,0.0,0.0,0.0,0.0,0.0,0.0,0.0,0.0,0.0,0.0,0.0,0.0,0.0,0.0,0.0,0.0,0.0,0.0,0.0,0.0,0.0,0.0,0.0,0.0,0.0,0.0,0.0,0.0,0.0,0.0,0.0,0.0,0.0,0.0,0.0,0.0,0.0,0.0,0.0,0.0,0.0,3.7747,0.0,3.9511,0.0,3.7906,3.7092,0.0,0.0,0.0,0.0,0.0,0.0,0.0,0.0,0.0,0.0,0.0,0.0,0.0,0.0,0.0,0.0,0.0,0.0,0.0,0.0,0.0,0.0,0.0,0.0,0.0,0.0,0.0,0.0,0.0,0.0,0.0,0.0,0.0,0.0,0.0,0.0,0.0,0.0,0.0,0.0,0.0,0.0,0.0,0.0,0.0,0.0,0.0,0.0,0.0,0.0,0.0,0.0,0.0,0.0,0.0,0.0,0.0,0.0,0.0,0.0,0.0,0.0,0.0,0.0,0.0,0.0,0.0,0.0,0.0,0.0,0.0,0.0,0.0,0.0,0.0,0.0,0.0,0.0,0.0,0.0,0.0,0.0,0.0,0.0,0.0,0.0,0.0,0.0,0.0,0.0,0.0,0.0,0.0,0.0,0.0,0.0,0.0,0.0,0.0,0.0,0.0,0.0,0.0,0.0,0.0,0.0,0.0,0.0,3.7711,3.8518,3.9966,3.9773,3.7919,3.7581,3.6685,0.0,0.0,0.0,0.0,0.0,0.0,0.0,0.0,0.0,0.0,0.0,0.0,0.0,0.0,0.0,0.0,0.0,0.0,0.0,0.0,0.0,0.0,0.0,0.0,0.0,0.0,0.0,0.0,0.0,0.0,0.0,0.0,0.0,0.0,0.0,0.0,0.0,0.0,0.0,0.0,0.0,0.0,0.0,0.0,0.0,0.0,0.0,0.0,0.0,0.0,0.0,0.0,0.0,0.0,0.0,0.0,0.0,0.0,0.0,0.0,0.0,0.0,0.0,0.0,0.0,0.0,0.0,0.0,0.0,0.0,0.0,0.0,0.0,0.0,0.0,0.0,0.0,0.0,0.0,0.0,0.0,0.0,0.0,0.0,0.0,0.0,0.0,0.0,0.0,0.0,0.0,0.0,0.0,0.0,0.0,0.0,0.0,0.0,0.0,0.0,0.0,0.0,0.0,0.0,0.0,0.0,0.0,0.0,0.0,3.8473,3.8319,3.8461,3.8875,3.6753,3.5718,0.0,0.0,0.0,0.0,0.0,0.0,0.0,0.0,0.0,0.0,0.0,0.0,0.0,0.0,0.0,0.0,0.0,0.0,0.0,0.0,0.0,0.0,0.0,0.0,0.0,0.0,0.0,0.0,0.0,0.0,0.0,0.0,0.0,0.0,0.0,0.0,0.0,0.0,0.0,0.0,0.0,0.0,0.0,0.0,0.0,0.0,0.0,0.0,0.0,0.0,0.0,0.0,0.0,0.0,0.0,0.0,0.0,0.0,0.0,0.0,0.0,0.0,0.0,0.0,0.0,0.0,0.0,0.0,0.0,0.0,0.0,0.0,0.0,0.0,0.0,0.0,0.0,0.0,0.0,0.0,0.0,0.0,0.0,0.0,0.0,0.0,0.0,0.0,0.0,0.0,0.0,0.0,0.0,0.0,0.0,0.0,0.0,0.0,0.0,0.0,0.0,0.0,0.0,0.0,0.0,0.0,0.0,0.0,0.0,3.7926,3.8261,3.8534,3.8829,3.6814,3.5849,3.6066,0.0,0.0,0.0,0.0,0.0,0.0,0.0,0.0,0.0,0.0,0.0,0.0,0.0,0.0,0.0,0.0,0.0,0.0,0.0,0.0,0.0,0.0,0.0,0.0,0.0,0.0,0.0,0.0,0.0,0.0,0.0,0.0,0.0,0.0,0.0,0.0,0.0,0.0,0.0,0.0,0.0,0.0,0.0,0.0,0.0,0.0,0.0,0.0,0.0,0.0,0.0,0.0,0.0,0.0,0.0,0.0,0.0,0.0,0.0,0.0,0.0,0.0,0.0,0.0,0.0,0.0,0.0,0.0,0.0,0.0,0.0,0.0,0.0,0.0,0.0,0.0,0.0,0.0,0.0,0.0,0.0,0.0,0.0,0.0,0.0,0.0,0.0,0.0,0.0,0.0,0.0,0.0,0.0,0.0,0.0,0.0,0.0,0.0,0.0,0.0,0.0,0.0,0.0,0.0,0.0,0.0,0.0,0.0,3.6895,3.9349,3.9686,3.7885,3.7526,3.6795,0.0,0.0,0.0,0.0,0.0,0.0,0.0,0.0,0.0,0.0,0.0,0.0,0.0,0.0,0.0,0.0,0.0,0.0,0.0,0.0,0.0,0.0,0.0,0.0,0.0,0.0,0.0,0.0,0.0,0.0,0.0,0.0,0.0,0.0,0.0,0.0,0.0,0.0,0.0,0.0,0.0,0.0,0.0,0.0,0.0,0.0,0.0,0.0,0.0,0.0,0.0,0.0,0.0,0.0,0.0,0.0,0.0,0.0,0.0,0.0,0.0,0.0,0.0,0.0,0.0,0.0,0.0,0.0,0.0,0.0,0.0,0.0,0.0,0.0,0.0,0.0,0.0,0.0,0.0,0.0,0.0,0.0,0.0,0.0,0.0,0.0,0.0,0.0,0.0,0.0,0.0,0.0,0.0,0.0,0.0,0.0,0.0,0.0,0.0,0.0,0.0,0.0,0.0,0.0,0.0,0.0,0.0,0.0,0.0,3.5671,3.755,3.868,3.8829,3.7226,3.6073,0.0,0.0,0.0,0.0,0.0,0.0,0.0,0.0,0.0,0.0,0.0,0.0,0.0,0.0,0.0,0.0,0.0,0.0,0.0,0.0,0.0,0.0,0.0,0.0,0.0,0.0,0.0,0.0,0.0,0.0,0.0,0.0,0.0,0.0,0.0,0.0,0.0,0.0,0.0,0.0,0.0,0.0,0.0,0.0,0.0,0.0,0.0,0.0,0.0,0.0,0.0,0.0,0.0,0.0,0.0,0.0,0.0,0.0,0.0,0.0,0.0,0.0,0.0,0.0,0.0,0.0,0.0,0.0,0.0,0.0,0.0,0.0,0.0,0.0,0.0,0.0,0.0,0.0,0.0,0.0,0.0,0.0,0.0,0.0,0.0,0.0,0.0,0.0,0.0,0.0,0.0,0.0,0.0,0.0,0.0,0.0,0.0,0.0,0.0,0.0,0.0,0.0,0.0,0.0,0.0,0.0,0.0,0.0,3.5205,3.5432,3.664,3.7721,3.8656,3.7057,3.5848,0.0,0.0,0.0,0.0,0.0,0.0,0.0,0.0,0.0,0.0,0.0,0.0,0.0,0.0,0.0,0.0,0.0,0.0,0.0,0.0,0.0,0.0,0.0,0.0,0.0,0.0,0.0,0.0,0.0,0.0,0.0,0.0,0.0,0.0,0.0,0.0,0.0,0.0,0.0,0.0,0.0,0.0,0.0,0.0,0.0,0.0,0.0,0.0,0.0,0.0,0.0,0.0,0.0,0.0,0.0,0.0,0.0,0.0,0.0,0.0,0.0,0.0,0.0,0.0,0.0,0.0,0.0,0.0,0.0,0.0,0.0,0.0,0.0,0.0,0.0,0.0,0.0,0.0,0.0,0.0,0.0,0.0,0.0,0.0,0.0,0.0,0.0,0.0,0.0,0.0,0.0,0.0,0.0,0.0,0.0,0.0,0.0,0.0,0.0,0.0,0.0,0.0,0.0,0.0,0.0,0.0,0.0,0.0,3.4479,3.5685,3.613,3.6707,3.7472,3.6895,3.5848,0.0,0.0,0.0,0.0,0.0,0.0,0.0,0.0,0.0,0.0,0.0,0.0,0.0,0.0,0.0,0.0,0.0,0.0,0.0,0.0,0.0,0.0,0.0,0.0,0.0,0.0,0.0,0.0,0.0,0.0,0.0,0.0,0.0,0.0,0.0,0.0,0.0,0.0,0.0,0.0,0.0,0.0,0.0,0.0,0.0,0.0,0.0,0.0,0.0,0.0,0.0,0.0,0.0,0.0,0.0,0.0,0.0,0.0,0.0,0.0,0.0,0.0,0.0,0.0,0.0,0.0,0.0,0.0,0.0,0.0,0.0,0.0,0.0,0.0,0.0,0.0,0.0,0.0,0.0,0.0,0.0,0.0,0.0,0.0,0.0,0.0,0.0,0.0,0.0,0.0,0.0,0.0,0.0,0.0,0.0,0.0,0.0,0.0,0.0,0.0,0.0,0.0,0.0,0.0,0.0,0.0,0.0,0.0,3.346,3.4445,3.499,3.5404,3.574,3.6159,3.5541,0.0,0.0,0.0,0.0,0.0,0.0,0.0,0.0,0.0,0.0,0.0,0.0,0.0,0.0,0.0,0.0,0.0,0.0,0.0,0.0,0.0,0.0,0.0,0.0,0.0,0.0,0.0,0.0,0.0,0.0,0.0,0.0,0.0,0.0,0.0,0.0,0.0,0.0,0.0,0.0,0.0,0.0,0.0,0.0,0.0,0.0,0.0,0.0,1.9912,0.0,0.0,0.0,0.0,0.0,0.0,0.0,0.0,0.0,0.0,0.0,0.0,0.0,0.0,0.0,0.0,0.0,0.0,0.0,0.0,0.0,0.0,0.0,0.0,0.0,0.0,0.0,0.0,0.0,0.0,0.0,0.0,0.0,0.0,0.0,0.0,0.0,0.0,0.0,0.0,0.0,0.0,0.0,0.0,0.0,0.0,0.0,0.0,0.0,0.0,0.0,0.0,0.0,0.0,0.0,0.0,0.0,0.0,0.0,3.3015,3.3844,3.4515,3.4937,3.5126,3.5564,3.4962,0.0,0.0,0.0,0.0,0.0,0.0,0.0,0.0,0.0,0.0,0.0,0.0,0.0,0.0,0.0,0.0,0.0,0.0,0.0,0.0,0.0,0.0,0.0,0.0,0.0,0.0,0.0,0.0,0.0,0.0,0.0,0.0,0.0,0.0,0.0,0.0,0.0,0.0,0.0,0.0,0.0,0.0,0.0,0.0,0.0,0.0,0.0,0.0,0.0,0.0,0.0,0.0,0.0,0.0,0.0,0.0,0.0,0.0,0.0,0.0,0.0,0.0,0.0,0.0,0.0,0.0,0.0,0.0,0.0,0.0,0.0,0.0,0.0,0.0,0.0,0.0,0.0,0.0,0.0,0.0,0.0,0.0,0.0,0.0,0.0,0.0,0.0,0.0,0.0,0.0,0.0,0.0,0.0,0.0,0.0,0.0,0.0,0.0,0.0,0.0,0.0,0.0,0.0,0.0,0.0,0.0,0.0,3.2022,3.2755,3.3573,3.44,3.4881,3.4995,3.5078,3.424,3.2311,0.0,0.0,0.0,0.0,0.0,0.0,0.0,0.0,0.0,0.0,0.0,0.0,0.0,0.0,0.0,0.0,0.0,0.0,0.0,0.0,0.0,0.0,0.0,0.0,0.0,0.0,0.0,0.0,0.0,0.0,0.0,0.0,0.0,0.0,0.0,0.0,0.0,0.0,3.1164,2.6076,0.0,0.0,0.0,0.0,0.0,0.0,0.0,0.0,1.3682,0.0,0.0,0.0,0.0,0.0,0.0,0.0,0.0,0.0,0.0,0.0,0.0,0.0,0.0,0.0,0.0,0.0,0.0,0.0,0.0,0.0,0.0,0.0,0.0,0.0,0.0,0.0,0.0,0.0,0.0,0.0,0.0,0.0,0.0,0.0,0.0,0.0,0.0,0.0,0.0,0.0,0.0,0.0,0.0,0.0,0.0,0.0,0.0,0.0,0.0,0.0,0.0,0.0,0.0,0.0,0.0,3.0671,3.1356,3.2346,3.3566,3.4448,3.491,3.4991,3.4642,3.3542,3.1603,0.0,0.0,0.0,0.0,0.0,0.0,0.0,0.0,0.0,0.0,0.0,0.0,0.0,0.0,0.0,0.0,0.0,0.0,0.0,0.0,0.0,0.0,0.0,0.0,0.0,0.0,0.0,0.0,0.0,0.0,0.0,0.0,0.0,0.0,0.0,0.0,0.0,0.0,0.0,2.55,2.0424,0.0,0.0,0.0,0.0,0.0,0.0,0.0,0.0,0.7265,0.0,0.0,0.0,0.0,0.0,0.0,0.0,0.0,0.0,0.0,0.0,0.0,0.0,0.0,0.0,0.0,0.0,0.0,0.0,0.0,0.0,0.0,0.0,0.0,0.0,0.0,0.0,0.0,0.0,0.0,0.0,0.0,0.0,0.0,0.0,0.0,0.0,0.0,0.0,0.0,0.0,0.0,0.0,0.0,0.0,0.0,0.0,0.0,0.0,0.0,0.0,0.0,0.0,0.0,0.0,3.0802,3.1386,3.2328,3.3518,3.3949,3.4417,3.4891,3.4055,3.2811,0.0,0.0,0.0,0.0,0.0,0.0,0.0,0.0,0.0,0.0,0.0,0.0,0.0,0.0,0.0,0.0,0.0,0.0,0.0,0.0,0.0,0.0,0.0,0.0,0.0,0.0,0.0,0.0,0.0,0.0,0.0,0.0,0.0,0.0,0.0,0.0,0.0,0.0,0.0,0.0,2.2917,1.5853,1.6846,0.0,0.0,0.0,0.0,0.0,0.0,0.1031,0.1359,0.0,0.0,0.0,0.0,0.0,0.0,0.0,0.0,0.0,0.0,0.0,0.0,0.0,0.0,0.0,0.0,0.0,0.0,0.0,0.0,0.0,0.0,0.0,0.0,0.0,0.0,0.0,0.0,0.0,0.0,0.0,0.0,0.0,0.0,0.0,0.0,0.0,0.0,0.0,0.0,0.0,0.0,0.0,0.0,0.0,0.0,0.0,0.0,0.0,0.0,0.0,0.0,0.0,0.0,0.0,3.0918,3.1448,3.2261,3.3198,3.3442,3.3887,3.46,3.3354,3.2176,0.0,0.0,0.0,0.0,0.0,0.0,0.0,0.0,0.0,0.0,0.0,0.0,0.0,0.0,0.0,0.0,0.0,0.0,0.0,0.0,0.0,0.0,0.0,0.0,0.0,0.0,0.0,0.0,0.0,0.0,0.0,0.0,0.0,0.0,0.0,0.0,0.0,0.0,0.0,0.0,0.0,1.0006,1.091,-0.0441,0.0,0.0,0.0,0.0,-0.6874,-0.7118,0.0,0.0,0.0,0.0,0.0,0.0,0.0,0.0,0.0,0.0,0.0,0.0,0.0,0.0,0.0,0.0,0.0,0.0,0.0,0.0,0.0,0.0,0.0,0.0,0.0,0.0,0.0,0.0,0.0,0.0,0.0,0.0,0.0,0.0,0.0,0.0,0.0,0.0,0.0,0.0,0.0,0.0,0.0,0.0,0.0,0.0,0.0,0.0,0.0,0.0,0.0,0.0,0.0,0.0,0.0,0.0,3.0418,3.125,3.1943,3.2448,3.3264,3.3727,3.3816,3.26,3.1601,0.0,0.0,0.0,0.0,0.0,0.0,0.0,0.0,0.0,0.0,0.0,0.0,0.0,0.0,0.0,0.0,0.0,0.0,0.0,0.0,0.0,0.0,0.0,0.0,0.0,0.0,0.0,0.0,0.0,0.0,0.0,0.0,0.0,0.0,0.0,0.0,0.0,0.0,0.0,0.0,0.0,0.3047,-0.3836,-1.2334,-1.8047,0.0,0.0,-1.9102,-2.2566,-2.1241,0.0,0.0,0.0,0.0,0.0,0.0,0.0,0.0,0.0,0.0,0.0,0.0,0.0,0.0,0.0,0.0,0.0,0.0,0.0,0.0,0.0,0.0,0.0,0.0,0.0,0.0,0.0,0.0,0.0,0.0,0.0,0.0,0.0,0.0,0.0,0.0,0.0,0.0,0.0,0.0,0.0,0.0,0.0,0.0,0.0,0.0,0.0,0.0,0.0,0.0,0.0,0.0,0.0,0.0,0.0,3.0418,3.0318,3.0837,3.1505,3.2263,3.2253,3.2692,3.3673,3.1958,3.0927,0.0,0.0,0.0,0.0,0.0,0.0,0.0,0.0,0.0,0.0,0.0,0.0,0.0,0.0,0.0,0.0,0.0,0.0,0.0,0.0,0.0,0.0,0.0,0.0,0.0,0.0,0.0,0.0,0.0,0.0,0.0,0.0,0.0,0.0,0.0,0.0,0.0,0.0,0.0,0.0,0.0,0.0,-1.0224,-1.8972,0.0,0.0,0.0,-2.2975,-2.4612,0.0,0.0,0.0,0.0,0.0,0.0,0.0,0.0,0.0,0.0,0.0,0.0,0.0,0.0,0.0,0.0,0.0,0.0,0.0,0.0,0.0,0.0,0.0,0.0,0.0,0.0,0.0,0.0,0.0,0.0,0.0,0.0,0.0,0.0,0.0,0.0,0.0,0.0,0.0,0.0,0.0,0.0,0.0,0.0,0.0,0.0,0.0,0.0,0.0,0.0,0.0,0.0,0.0,0.0,0.0,0.0,0.0,3.0048,3.0475,3.1124,3.1909,3.1404,3.1747,3.3003,3.1408,0.0,0.0,0.0,0.0,0.0,0.0,0.0,0.0,0.0,0.0,0.0,0.0,0.0,0.0,0.0,0.0,0.0,0.0,0.0,0.0,0.0,0.0,0.0,0.0,0.0,0.0,0.0,2.3831,0.0,0.0,0.0,0.0,0.0,0.0,0.0,0.0,0.0,0.0,0.0,0.0,0.0,0.0,-1.6318,-1.6962,-2.5206,-3.1028,0.0,0.0,-2.6233,-2.6129,-2.4494,-2.1738,0.0,0.0,0.0,0.0,0.0,0.0,0.0,0.0,0.0,0.0,0.0,0.0,0.0,0.0,0.0,0.0,0.0,0.0,0.0,0.0,0.0,0.0,0.0,0.0,0.0,0.0,0.0,0.0,0.0,0.0,0.0,0.0,0.0,0.0,0.0,0.0,0.0,0.0,0.0,0.0,0.0,0.0,0.0,0.0,0.0,0.0,0.0,0.0,0.0,0.0,0.0,0.0,0.0,0.0,0.0,2.9326,3.0279,3.0864,3.0998,3.1078,3.123,3.1432,3.1014,3.0395,0.0,0.0,0.0,0.0,0.0,0.0,0.0,0.0,0.0,0.0,0.0,0.0,0.0,0.0,0.0,0.0,0.0,0.0,0.0,0.0,0.0,0.0,0.0,0.0,0.0,0.0,0.0,0.0,0.0,0.0,0.0,0.0,0.0,0.0,0.0,0.0,0.0,0.0,0.0,0.0,0.0,-2.226,-2.7393,-3.2444,-3.5195,0.0,0.0,-3.1309,-3.1581,-2.9594,-2.62,-2.0609,0.0,0.0,0.0,0.0,0.0,0.0,0.0,0.0,0.0,0.0,0.0,0.0,0.0,0.0,0.0,0.0,0.0,0.0,0.0,0.0,0.0,0.0,0.0,0.0,0.0,0.0,0.0,0.0,0.0,0.0,0.0,0.0,0.0,0.0,0.0,0.0,0.0,0.0,0.0,0.0,0.0,0.0,0.0,0.0,0.0,0.0,0.0,0.0,0.0,0.0,0.0,0.0,0.0,2.8479,2.9146,2.9575,3.0302,3.1243,3.0737,3.0644,3.1158,3.0546,2.9715,0.0,0.0,0.0,0.0,0.0,0.0,0.0,0.0,0.0,0.0,0.0,0.0,0.0,0.0,0.0,0.0,0.0,0.0,0.0,0.0,0.0,0.0,0.0,0.0,0.0,0.0,0.0,0.0,0.9922,0.6947,0.7769,0.0,0.0,0.0,0.0,0.0,0.0,0.0,0.0,0.0,0.0,-2.7995,-3.166,-3.4805,0.0,0.0,-3.5513,-3.4099,-3.2672,-2.9468,-2.5338,-2.0091,-1.6934,0.0,0.0,0.0,0.0,0.0,0.0,0.0,0.0,0.0,0.0,0.0,0.0,0.0,0.0,0.0,0.0,0.0,0.0,0.0,0.0,0.0,0.0,0.0,0.0,0.0,0.0,0.0,0.0,0.0,0.0,0.0,0.0,0.0,0.0,0.0,0.0,0.0,0.0,0.0,0.0,0.0,0.0,0.0,0.0,0.0,0.0,0.0,0.0,0.0,0.0,0.0,0.0,2.7818,2.8631,2.9103,2.9897,3.1014,3.0404,3.0293,3.0731,3.0163,2.9184,0.0,0.0,0.0,0.0,0.0,0.0,0.0,0.0,0.0,0.0,0.0,0.0,0.0,0.0,0.0,0.0,0.0,0.0,0.0,0.0,0.0,0.0,0.0,0.0,0.0,0.0,0.0,0.0,0.4263,0.2385,-0.0853,0.0,0.0,0.0,0.0,0.0,0.0,0.0,0.0,0.0,0.0,-3.1642,-3.2998,-3.5208,-3.7027,-3.7858,-3.6349,-3.4465,-3.27,-2.8675,-2.4214,-1.9528,0.0,0.0,0.0,0.0,0.0,0.0,0.0,0.0,0.0,0.0,0.0,0.0,0.0,0.0,0.0,0.0,0.0,0.0,0.0,0.0,0.0,0.0,0.0,0.0,0.0,0.0,0.0,0.0,0.0,0.0,3.1811,0.0,0.0,0.0,0.0,0.0,0.0,0.0,0.0,0.0,0.0,0.0,0.0,0.0,0.0,0.0,0.0,0.0,0.0,0.0,0.0,0.0,0.0,2.7454,2.7681,2.8986,2.9734,2.9887,3.0055,3.0132,3.0044,2.9927,2.8909,2.6897,0.0,0.0,0.0,0.0,0.0,0.0,0.0,0.0,0.0,0.0,0.0,0.0,0.0,0.0,0.0,0.0,0.0,0.0,0.0,0.0,0.0,0.0,0.0,0.0,0.0,0.0,-0.4239,-0.119,-0.3369,0.0,0.0,0.0,0.0,0.0,0.0,0.0,0.0,0.0,0.0,-3.0446,-3.2583,-3.1494,-3.3771,-3.5993,-3.6909,-3.4371,-3.222,-3.1993,-2.7991,-2.3433,0.0,0.0,0.0,0.0,0.0,0.0,0.0,0.0,0.0,0.0,0.0,0.0,0.0,0.0,0.0,0.0,0.0,0.0,0.0,0.0,0.0,0.0,0.0,0.0,0.0,0.0,0.0,2.4514,2.4314,0.0,0.0,0.0,0.0,0.0,0.0,0.0,0.0,0.0,0.0,0.0,-1.3312,-1.9308,0.0,0.0,0.0,0.0,0.0,0.0,0.0,0.0,0.0,0.0,0.0,0.0,2.6547,2.7717,2.8674,2.9646,3.0549,2.9737,2.9473,2.9833,2.8952,2.7459,2.5378,0.0,0.0,0.0,0.0,0.0,0.0,0.0,0.0,0.0,0.0,0.0,0.0,0.0,0.0,0.0,0.0,0.0,0.0,0.0,0.0,0.0,0.0,0.0,0.0,0.0,-1.1558,0.0,0.0,0.0,0.0,0.0,0.0,0.0,0.0,0.0,0.0,0.0,-3.0006,-2.9144,-3.0326,-3.1342,-3.1682,-3.3628,-3.552,0.0,0.0,0.0,0.0,0.0,0.0,0.0,0.0,0.0,0.0,0.0,0.0,0.0,0.0,-4.1511,-3.7603,-3.7672,-3.8667,-3.9683,0.0,0.0,0.0,0.0,0.0,0.0,0.0,0.0,0.0,0.0,0.0,0.0,0.0,0.0,1.6629,0.0,1.4717,0.0,0.0,0.0,0.0,0.0,0.0,0.0,0.0,-1.8372,-2.3331,-2.4527,-3.0211,-3.2305,0.0,-2.9913,-2.2827,0.0,0.0,0.0,0.0,0.0,0.0,0.0,0.0,2.622,2.7535,2.8603,2.9448,3.0,2.933,2.8945,2.8974,2.7532,2.5929,2.4141,2.1406,1.9216,0.0,0.0,0.0,0.0,0.0,0.0,0.0,0.0,0.0,0.0,0.0,0.0,0.0,0.0,0.0,0.0,0.0,0.0,0.0,0.0,0.0,0.0,0.0,-2.1088,0.0,0.0,0.0,0.0,0.0,0.0,0.0,0.0,0.0,-3.2442,-3.1999,-3.1374,-3.0152,-3.0328,-3.082,-3.1554,0.0,0.0,0.0,0.0,0.0,0.0,0.0,-2.3134,-1.7905,-1.7054,-1.8621,-2.3008,-3.0573,-3.7037,-4.0128,0.0,0.0,-4.2356,-4.2502,-4.337,-4.3877,-4.3969,-4.387,-4.3784,-4.4103,-4.421,0.0,0.0,0.0,0.0,0.0,0.0,0.0,0.0,0.8437,0.8392,0.0,0.5923,0.0,0.0,0.0,0.0,0.0,-1.5091,0.0,0.0,-2.5635,-2.8349,-3.2567,-3.188,-3.1236,-3.0713,-2.9379,-2.7977,-2.6205,-1.8849,0.0,0.0,0.0,0.0,0.0,0.0,2.6267,2.7068,2.8682,2.9147,2.8346,2.8799,2.859,2.7489,2.5883,2.4503,2.325,2.1021,1.8489,1.5613,1.465,0.0,0.0,0.0,0.0,0.0,0.0,0.0,0.0,0.0,0.0,0.0,0.0,0.0,0.0,0.0,0.0,0.0,0.0,0.0,0.0,-2.5945,0.0,0.0,0.0,0.0,0.0,0.0,0.0,0.0,0.0,0.0,-3.2746,-3.3161,-3.274,-3.0213,0.0,0.0,0.0,0.0,-3.163,-3.4777,-3.3789,-3.1938,-2.9798,-2.8119,-2.5071,-1.9256,0.0,0.0,-2.853,-3.3066,-3.7123,-4.0507,-4.3358,-4.5991,-4.844,-4.7961,-4.7728,-4.814,-4.6633,-4.5398,-4.5334,-4.4998,-4.4416,0.1164,0.0,0.0,0.0,0.0,-0.6046,-0.5516,-0.438,-0.2694,-0.2482,-0.3431,-0.6018,0.0,0.0,0.0,0.0,0.0,0.0,-2.5648,-2.6204,-2.9569,-3.1497,-3.2038,-3.1244,-3.0556,-2.9884,-2.8522,-2.7177,-2.5711,-2.2902,-2.0753,-1.9114,0.0,0.0,0.0,0.0,2.1098,2.5827,2.7785,2.8365,2.7737,2.7445,2.7098,2.6731,2.5686,2.4713,2.3792,2.1247,1.8605,1.5932,1.4317,0.0,0.0,0.0,0.0,0.0,0.0,0.0,0.0,0.0,0.0,0.0,0.0,0.0,0.0,0.0,0.0,0.0,0.0,0.0,-2.7434,-3.0098,-3.1134,0.0,0.0,0.0,0.0,0.0,0.0,0.0,0.0,0.0,-3.2595,-3.3107,-3.2934,0.0,0.0,-3.052,-3.1128,-3.0495,-3.0562,-3.224,-3.1111,0.0,0.0,-2.2194,-2.0299,-1.6908,-2.0998,-2.5931,-2.9638,-3.3703,-3.7512,-4.0867,-4.2887,-4.4554,-4.6151,-4.7114,-4.7605,-4.7972,-4.7601,-4.6897,-4.6095,-4.5702,-4.5048,-0.637,-0.7711,-0.9853,-1.2062,-1.4268,-1.4855,-1.4455,-1.3174,-1.2143,-1.2182,-1.3231,-1.6457,-1.6998,-1.5583,-1.6219,0.0,0.0,0.0,-2.9701,-2.8472,-3.1178,-3.1668,-3.0323,-2.9871,-2.9156,-2.8183,-2.6885,-2.5603,-2.424,-2.2776,-2.1743,-2.0549,0.0,0.0,0.2766,1.4075,2.1814,2.5661,2.7192,2.7611,2.7026,2.6289,2.6041,2.6293,2.5461,2.4721,2.416,2.1524,1.8845,1.6414,1.438,1.248,0.0,0.0,0.0,0.0,0.0,0.0,0.0,0.0,0.0,0.0,0.0,0.424,0.0,0.0,0.0,0.0,-2.2778,-2.6788,-3.1577,-3.1859,0.0,0.0,0.0,0.0,0.0,0.0,0.0,-3.5019,-3.3761,-3.2463,-3.1467,-3.1519,-3.1343,-3.057,-2.9675,-2.9218,-2.961,0.0,-2.8195,-2.8832,-2.8196,-2.5814,-2.071,-1.744,-1.5207,-1.4307,-2.0416,-2.6784,-3.119,-3.4715,-3.7693,-4.0068,-4.1349,-4.2164,-4.3041,-4.3947,-4.5064,-4.6341,-4.6316,-4.5713,-4.4672,-4.4023,-4.3228,-0.9963,-1.3942,-1.5178,-1.7092,-1.9328,-2.0229,-2.0139,-1.9564,-1.9756,-2.0486,-2.1731,-2.4597,-2.319,-1.8748,-2.247,0.0,-1.7074,-2.8658,-3.3037,-3.1588,-3.0974,-2.981,-2.8252,-2.7943,-2.7174,-2.5916,-2.4597,-2.3453,-2.2311,-1.9992,-1.8572,-1.7678,-0.4667,0.2471,0.4284,1.804,2.5544,2.5978,2.6782,2.6886,2.6242,2.543,2.5397,2.6232,2.5208,2.4614,2.4472,2.1876,1.9275,1.6921,1.4559,1.2078,0.9408,0.0,0.0,0.0,0.0,0.0,0.0,0.0,0.0,0.0,0.0,0.0,0.0,0.0,0.0,0.0,-2.8833,0.0,-3.152,-3.1972,0.0,0.0,0.0,-3.3204,-3.3662,-3.3275,-3.3159,-3.3727,0.0,0.0,-2.9598,-2.8769,-2.8359,-2.8531,-2.7845,-2.7243,-2.7017,-2.58,-2.4899,-2.4879,-2.4797,-2.3255,-1.8603,-1.3946,-1.1365,-1.2852,-1.9061,-2.6329,-3.2133,-3.5213,-3.7235,-3.8355,-3.8888,-3.9117,-3.9322,-3.9619,-4.0574,-4.3115,-4.3249,-4.2616,-4.1845,-4.0851,-3.9824,-0.9886,-1.9738,-1.4896,-1.6025,-2.1158,-2.2555,-2.3437,-2.3966,-2.4068,-2.5246,-2.7001,-2.4611,-1.7993,-0.8875,-1.4705,-1.6187,-1.4818,-2.7085,-3.2148,-3.0995,-2.9316,-2.8482,-2.8279,-2.5664,-2.4426,-2.4326,-2.1801,-2.0211,-1.9501,-1.8018,-1.4795,-0.9747,-0.0682,0.3751,0.3817,1.2673,1.9786,2.4764,2.5887,2.6227,2.5709,2.5332,2.5681,2.6776,2.5595,2.4897,2.471,2.2402,1.9784,1.6921,1.4769,1.2337,0.958,0.7102,0.0,0.0,0.0,0.0,0.0,0.0,0.0,0.0,0.0,-1.562,-1.8647,0.0,-2.6157,0.0,-2.9488,-3.0703,-3.2006,-3.2671,0.0,0.0,-3.4755,-3.4647,-3.3791,-3.3544,-3.3026,-3.1985,-3.0649,-2.9149,-2.7382,-2.6217,-2.4845,-2.3245,-2.3691,-2.4507,-2.5174,-2.2967,-2.1215,-2.0971,-1.9797,-1.7423,-1.3402,-1.1412,-1.128,-1.5195,-1.9843,-2.4948,-3.0582,-3.2875,-3.4117,-3.4609,-3.5596,-3.6075,-3.5741,-3.5732,-3.598,-3.6913,-3.8704,-4.0089,-3.9277,-3.8369,-3.733,-0.0438,-0.8028,-0.5112,-0.6841,-1.1754,-1.5081,-1.7169,-1.8235,-1.9121,-2.0241,-2.1152,-1.6176,-1.0251,-0.4237,-0.7103,-0.9732,-1.2474,-2.1482,-2.6759,-2.8613,-2.7288,-2.6254,-2.5532,-2.3738,-2.2522,-2.1743,-1.9306,-1.7834,-1.7183,-1.3311,-0.9711,-0.6371,0.3117,0.7749,0.7807,1.5196,2.0835,2.4245,2.4911,2.4956,2.4414,2.4547,2.516,2.6261,2.5306,2.4988,2.5412,2.2816,2.0135,1.7413,1.498,1.2196,0.8958,0.6384,0.3325,0.0,0.0,0.0,0.0,0.0,0.0,0.0,0.0,0.0,0.0,0.0,-2.9104,-2.9109,-2.9621,-3.038,-3.1412,-3.2151,-3.2834,-3.3468,-3.3283,-3.2757,-3.189,-3.0972,-2.9987,-2.893,-2.7194,-2.5554,-2.4079,-2.2667,-2.1292,-1.9705,-1.9244,-1.9759,-2.1308,-1.9756,-1.7939,-1.6922,-1.5118,-1.1348,-0.507,-0.6143,-0.8599,-1.1431,-1.6714,-2.2662,-2.8283,-3.0322,-3.1118,-3.1264,-3.1863,-3.2067,-3.1374,-3.1447,-3.1574,-3.148,-3.2518,-3.4,-3.4927,-3.4321,-3.3205,1.1087,0.8034,0.7089,0.4897,0.1732,-0.2435,-0.5898,-0.8849,-1.0588,-1.1076,-1.0272,-0.5119,-0.2072,-0.0691,-0.034,-0.3074,-0.8432,-1.3582,-1.865,-2.3319,-2.2697,-2.1783,-2.0818,-2.0726,-2.0075,-1.8821,-1.6918,-1.5481,-1.4456,-0.7809,-0.428,-0.3337,0.668,1.2384,1.3738,2.0735,2.4249,2.3999,2.4005,2.3759,2.3203,2.3796,2.4589,2.554,2.4858,2.4936,2.5882,2.3227,2.0564,1.8217,1.5593,1.2473,0.8648,0.6461,0.2818,0.0,-0.7027,0.0,0.0,0.0,0.0,0.0,0.0,0.0,0.0,-3.0049,-2.913,-2.9226,-2.9214,-2.9383,-2.9883,-3.0665,-3.1133,-3.1062,-3.0159,-2.94,-2.8956,-2.7284,-2.5905,-2.5304,-2.3294,-2.1572,-2.0402,-1.8946,-1.7846,-1.6842,-1.5,-1.4629,-1.64,-1.5993,-1.4663,-1.287,-1.0789,-0.6815,-0.0318,-0.1887,-0.5533,-0.6738,-1.2625,-1.9833,-2.5597,-2.7248,-2.7777,-2.7689,-2.7639,-2.7419,-2.6531,-2.6867,-2.7003,-2.643,-2.6229,-2.7148,-2.9859,-2.9839,-2.8547,1.0235,0.2386,0.8003,0.8928,0.6921,1.0358,0.4763,-0.6822,-0.7997,-0.6688,-0.362,-0.188,0.2353,0.7734,0.2958,0.0763,0.0602,-0.5392,-0.8771,-0.9781,-0.791,-0.9906,-1.4675,-1.2419,-1.3495,-1.7324,-1.4186,-1.0924,-0.7814,-0.5044,-0.0045,0.6845,0.9762,1.3645,1.8499,0.0,0.0,0.0,2.3775,2.414,2.4171,2.4829,2.5529,2.6186,2.568,0.0,2.4951,2.3862,2.2058,1.9415,1.7808,0.0,0.0,0.0,0.0,0.0,0.0,0.0,0.0,0.0,0.0,0.0,-2.8947,-2.8202,-2.9529,-2.899,-2.8042,-2.6856,-2.7483,-2.7673,-2.6893,-2.7992,-2.8676,-2.8468,-2.7905,-2.7354,-2.675,-2.5468,-2.4,-2.2345,-2.1345,-1.9871,-1.7538,-1.6377,-1.5115,-1.3451,-1.1903,-1.0989,-1.093,-1.1403,-1.0917,-0.9125,-0.7287,-0.5419,-0.3059,-0.4197,-0.6676,-1.032,-1.2536,-1.6425,-2.0935,-2.2497,-2.2644,-2.2326,-2.2815,-2.308,-2.2055,-2.2116,-2.2386,-2.2172,-2.1541,-2.23,-2.6566,-2.6487,-2.5377,1.9832,0.0,1.8229,1.8485,0.0,1.892,1.5023,0.678,0.2927,0.2289,0.3989,0.5115,0.7692,1.1142,0.8889,0.6569,0.416,0.1703,-0.1139,-0.406,-0.2709,-0.5132,-1.0743,-0.8482,-0.9944,-1.4394,-1.064,-0.751,-0.4918,0.0137,0.4962,0.9427,1.2775,1.6104,1.9227,2.0021,2.0942,2.2038,2.2583,2.2741,2.2533,2.3648,2.454,2.5095,0.0,0.0,0.0,0.0,0.0,0.0,0.0,0.0,0.0,0.0,0.0,0.0125,-0.7998,-1.4572,-1.9135,-2.4359,-2.784,-2.8746,-2.75,-2.7026,-2.7923,-2.7424,-2.6366,-2.4817,-2.5618,-2.5681,-2.4368,-2.5336,-2.5923,-2.545,-2.4356,-2.3377,-2.2655,-2.1301,-1.9922,-1.8694,-1.752,-1.6155,-1.461,-1.3238,-1.2037,-1.0679,-0.9579,-0.8384,-0.7301,-0.8074,-0.8201,-0.6047,-0.4796,-0.3912,-0.3632,-0.4282,-0.5948,-0.9394,-1.1186,-1.3218,-1.6361,-1.7551,-1.7902,-1.7807,-1.862,-1.9117,-1.8412,-1.8537,-1.8802,-1.8631,-1.8278,-1.8586,-2.118,-2.1421,-2.1252,2.9619,2.8732,2.8325,2.7113,2.5331,2.4083,2.2353,1.9997,0.0,0.0,0.0,1.2106,1.256,1.2546,1.4411,1.2325,0.7504,0.872,0.6504,0.1585,0.2088,-0.0578,-0.5733,-0.4837,-0.6705,-1.0812,-0.7381,-0.4606,-0.2427,0.5024,0.9157,1.0391,1.5312,1.8163,1.8731,1.9201,1.9985,2.111,2.1386,2.131,2.0977,2.2441,2.3494,2.4096,2.513,2.5901,2.6345,2.5788,2.4547,2.258,2.1377,1.9239,1.6041,1.3116,0.9336,0.4243,-0.5355,-1.217,-1.4895,-2.2457,-2.6414,-2.5205,-2.4356,-2.4446,-2.5703,-2.5284,-2.4195,-2.2409,-2.301,-2.2863,-2.1433,-2.2016,-2.2335,-2.1685,-2.0127,-1.8846,-1.807,-1.6719,-1.5573,-1.4754,-1.3532,-1.2269,-1.1613,-1.016,-0.8954,-0.8366,-0.7437,-0.624,-0.4797,-0.5286,-0.5423,-0.3666,-0.3024,-0.2649,-0.2724,-0.3428,-0.4844,-0.7151,-0.8743,-1.0244,-1.1774,-1.2962,-1.3656,-1.406,-1.4898,-1.5395,-1.5157,-1.5472,-1.5715,-1.5481,-1.5491,-1.5585,-1.5662,-1.6283,-1.7137,2.8398,2.7796,2.7718,2.7147,2.6198,2.4334,2.1993,1.9368,1.7643,1.6105,1.4644,1.492,1.5119,1.5246,1.5694,1.5909,1.5963,1.6503,1.6376,1.5785,1.6271,1.1502,0.2714,0.2859,-0.0991,-0.7726,-0.5646,-0.1824,0.2994,0.6356,0.9931,1.3798,1.6037,1.7916,1.957,1.9829,2.0007,2.0222,2.1058,2.1847,2.2562,2.3571,2.4511,2.5291,2.5313,2.5087,2.475,2.5346,2.5038,2.3654,2.3824,2.2933,2.0767,1.852,1.5527,1.1054,0.0867,-0.651,-0.9621,-1.8202,-2.2983,-2.2072,-2.0625,-2.0373,-2.1798,-2.2055,-2.1129,-1.8927,-1.857,-1.7925,-1.6978,-1.7037,-1.6963,-1.6119,-1.5425,-1.4666,-1.4,-1.3305,-1.2421,-1.1326,-1.0794,-0.9875,-0.8606,-0.7543,-0.6772,-0.624,-0.5259,-0.4084,-0.3149,-0.2218,-0.1887,-0.1824,-0.1828,-0.1968,-0.239,-0.3596,-0.4689,-0.5726,-0.668,-0.781,-0.9028,-0.9913,-1.0584,-1.1023,-1.1997,-1.2464,-1.2496,-1.248,-1.2805,-1.2805,-1.2987,-1.3003,-1.3064,-1.3313,-1.3963,2.8183,2.7409,2.7487,2.7093,2.6274,2.4664,2.2819,2.0886,2.0156,1.8484,1.6458,1.6874,1.6853,1.6465,1.704,1.7653,1.8229,1.8327,1.8511,1.8736,1.8198,1.4268,0.8049,0.7264,0.3862,-0.1752,0.0689,0.3532,0.6422,0.9402,1.2295,1.5036,1.6913,1.873,2.0383,2.0752,2.0984,2.1185,2.0861,2.1193,2.2233,2.3127,2.3998,2.4814,2.5591,2.5783,2.5205,2.5929,2.5827,2.4708,2.4638,2.3948,2.2459,2.0578,1.8058,1.4584,0.381,-0.3372,-0.5166,-1.4117,-1.8999,-1.8066,-1.7489,-1.6871,-1.6305,-1.7627,-1.7635,-1.5847,-1.5477,-1.4861,-1.3529,-1.3828,-1.3698,-1.2626,-1.2163,-1.1575,-1.0704,-0.9867,-0.9086,-0.8292,-0.7609,-0.6966,-0.6225,-0.5453,-0.4737,-0.427,-0.3011,-0.2013,-0.1611,-0.074,-0.0404,-0.1144,-0.1478,-0.1678,-0.1945,-0.2614,-0.3613,-0.468,-0.547,-0.6256,-0.7167,-0.7887,-0.8597,-0.9296,-1.0129,-1.078,-1.1108,-1.1031,-1.1149,-1.1531,-1.1337,-1.1337,-1.16,-1.205,-1.2773,2.8164,2.7293,2.7355,2.6873,2.5961,2.4934,2.3685,2.2393,2.1888,2.0314,1.8298,1.8534,1.8197,1.7456,1.8313,1.8835,1.8977,1.8722,1.8698,1.8707,1.7596,1.48,1.0893,0.9813,0.7309,0.4036,0.6024,0.7726,0.9015,1.194,1.4308,1.5922,1.7925,1.9634,2.104,2.1409,2.1751,2.195,2.0802,2.0814,2.2172,2.2931,2.3686,2.4531,2.5815,2.6249,2.5742,2.6398,2.6369,2.5466,2.5176,2.4611,2.3655,2.2296,2.0655,1.7809,0.7238,-0.1081,-0.467,-1.1137,-1.4987,-1.4419,-1.4135,-1.3303,-1.1873,-1.2815,-1.3461,-1.2712,-1.2544,-1.1826,-1.0541,-1.069,-1.0663,-0.9398,-0.9052,-0.8479,-0.7552,-0.6675,-0.6101,-0.5734,-0.4985,-0.4524,-0.4262,-0.3737,-0.3145,-0.241,-0.1208,-0.0403,-0.0336,0.0135,0.0135,-0.0471,-0.1076,-0.1345,-0.141,-0.1879,-0.2681,-0.3885,-0.461,-0.5338,-0.6133,-0.6732,-0.7316,-0.8021,-0.872,-0.943,-1.0021,-0.9901,-0.9894,-1.0275,-1.0085,-1.0015,-1.0471,-1.0912,-1.1725,2.812,2.7478,2.7279,2.6403,2.5287,2.4847,2.3955,2.2823,2.2555,2.1901,2.0713,1.9998,1.9319,1.8772,1.9419,1.9838,1.9913,1.9519,1.9104,1.8674,1.8271,1.5573,1.1387,1.0241,0.8513,0.6482,0.6978,0.8568,1.0597,1.2425,1.4786,1.7699,1.9059,2.0221,2.1259,2.1548,2.1654,2.1648,2.0931,2.1607,2.3658,2.4042,2.4596,2.5453,2.562,2.5561,2.5321,2.6034,2.6097,2.5449,2.5987,2.6108,2.5533,2.5326,2.5176,2.4504,1.3242,0.1512,-0.9374,-1.0699,-1.1065,-1.1826,-1.0254,-0.9242,-0.9125,-0.816,-0.8032,-0.8903,-0.8878,-0.8184,-0.7042,-0.6912,-0.6519,-0.558,-0.5458,-0.4951,-0.4227,-0.3963,-0.4011,-0.3926,-0.3609,-0.3482,-0.2943,-0.2342,-0.1743,-0.1074,-0.0269,0.0202,-0.0067,0.0336,0.0674,0.0269,-0.0202,-0.0674,-0.0943,-0.1613,-0.2281,-0.3151,-0.3885,-0.455,-0.5286,-0.5943,-0.6593,-0.6985,-0.7502,-0.821,-0.8409,-0.8291,-0.842,-0.8871,-0.8807,-0.8549,-0.8748,-0.9064,-0.9882,2.9305,2.8175,2.8157,2.7231,2.577,2.5049,2.4361,2.3636,2.2781,2.2136,2.1713,2.1229,2.075,2.0284,2.056,2.0586,2.0391,1.9723,1.9016,1.8257,1.7006,1.5684,1.4502,1.2715,1.1593,1.1221,1.1547,1.2074,1.3053,1.4999,1.7027,1.8706,1.9836,2.0849,2.1773,2.215,2.2495,2.2887,2.2821,2.337,2.4274,2.3821,2.3878,2.4725,2.5306,2.5558,2.5481,2.577,2.5771,2.5404,2.5628,2.5696,2.5458,2.5333,2.5361,2.4899,1.4691,0.3223,-0.8138,-0.8684,-0.8568,-0.8732,-0.8072,-0.7433,-0.6833,-0.642,-0.6137,-0.5644,-0.5701,-0.5492,-0.4822,-0.4263,-0.3607,-0.2986,-0.2791,-0.254,-0.2384,-0.2034,-0.1881,-0.2066,-0.1542,-0.1073,-0.0804,-0.0268,0.0268,0.0604,0.0941,0.0941,0.0739,0.0874,0.0808,0.0539,0.0067,-0.027,-0.0539,-0.0943,-0.168,-0.2347,-0.2748,-0.3351,-0.4553,-0.4885,-0.5342,-0.6203,-0.6854,-0.7442,-0.8027,-0.7767,-0.7707,-0.7967,-0.8361,-0.8425,-0.849,-0.849,-0.9186,3.0321,2.9193,2.8921,2.7853,2.6301,2.5445,2.4872,2.4376,2.3044,2.2358,2.2184,2.1792,2.145,2.1189,2.1187,2.0975,2.0508,1.9587,1.8589,1.7531,1.6016,1.566,1.6088,1.4671,1.4063,1.4591,1.4871,1.5101,1.5326,1.713,1.8646,1.9468,2.0249,2.1054,2.1811,2.2346,2.2856,2.3433,2.3693,2.3979,2.4195,2.3495,2.3496,2.4469,2.5226,2.5602,2.5553,2.5593,2.555,2.5421,2.5337,2.529,2.5263,2.5115,2.4365,2.2266,1.4607,0.5496,-0.4029,-0.5599,-0.609,-0.5869,-0.5882,-0.545,-0.4824,-0.4714,-0.4213,-0.3166,-0.2998,-0.2921,-0.2873,-0.2208,-0.1594,-0.1148,-0.0729,-0.0619,-0.0574,-0.0064,0.013,-0.0067,0.0402,0.1006,0.1207,0.1542,0.1877,0.1949,0.2017,0.195,0.168,0.1546,0.1277,0.1008,0.0539,0.0067,-0.027,-0.054,-0.1077,-0.1746,-0.2213,-0.2947,-0.4018,-0.435,-0.4752,-0.5943,-0.6334,-0.6593,-0.7055,-0.7055,-0.706,-0.7642,-0.7907,-0.7907,-0.7712,-0.7907,-0.8037,3.0719,3.0208,2.9064,2.7853,2.6723,2.5992,2.5493,2.4978,2.3472,2.267,2.2358,2.147,2.0919,2.0833,2.1005,2.0831,2.0193,1.9068,1.7824,1.6608,1.6015,1.5421,1.4789,1.4603,1.4811,1.5304,1.5417,1.6088,1.7329,1.8182,1.9066,1.998,2.0135,2.0563,2.1308,2.1777,2.2214,2.2758,2.2736,2.2771,2.3137,2.3315,2.3973,2.5014,2.5527,2.559,2.5449,2.5605,2.5603,2.5398,2.5499,2.5517,2.5402,2.5336,2.2799,1.7198,1.3245,0.8225,0.1601,-0.1616,-0.3212,-0.369,-0.3224,-0.251,-0.295,-0.2561,-0.2117,-0.1675,-0.0947,-0.0671,-0.0897,-0.0688,-0.0176,0.0356,0.0726,0.1118,0.1665,0.1803,0.2013,0.1925,0.2002,0.233,0.2737,0.2813,0.3011,0.3086,0.3092,0.2956,0.2621,0.2354,0.2153,0.1883,0.1345,0.0538,-0.0067,-0.0405,-0.0808,-0.1344,-0.2012,-0.2945,-0.3946,-0.4749,-0.5216,-0.5617,-0.5881,-0.6079,-0.621,-0.6346,-0.6478,-0.6675,-0.6806,-0.6811,-0.7134,-0.6675,-0.6937,3.1074,2.9567,2.8416,2.7466,2.674,2.5896,2.5413,2.5096,2.3968,2.3187,2.2734,2.2262,2.1604,2.0795,2.028,1.973,1.911,1.8194,1.7262,1.6361,1.6051,1.58,1.5567,1.5443,1.5543,1.5864,1.6101,1.6788,1.7894,1.865,1.9177,1.9594,2.0065,2.0628,2.1166,2.1462,2.1948,2.2643,2.2705,2.2946,2.3389,2.3712,2.4113,2.4572,2.5109,2.5343,2.5272,2.5496,2.5593,2.5461,2.5538,2.558,2.5486,2.4993,2.2112,1.6514,1.2518,0.8032,0.2857,-0.0866,-0.285,-0.3106,-0.2569,-0.2125,-0.2179,-0.1899,-0.1498,-0.0929,-0.0221,0.0277,0.0766,0.0949,0.1226,0.1599,0.2345,0.2814,0.2996,0.3359,0.3502,0.3193,0.3359,0.39,0.4355,0.4426,0.4265,0.4204,0.409,0.3818,0.3422,0.309,0.2882,0.2621,0.1949,0.1143,0.0807,0.0067,-0.0539,-0.0875,-0.1478,-0.2347,-0.3282,-0.4084,-0.4686,-0.5554,-0.5756,-0.5822,-0.6017,-0.6214,-0.6218,-0.642,-0.642,-0.626,-0.6683,-0.6282,-0.6689,3.1038,2.9298,2.8347,2.7556,2.6804,2.5798,2.5279,2.5067,2.3942,2.3239,2.2876,2.2415,2.162,2.0573,1.9781,1.9127,1.8517,1.7693,1.6915,1.638,1.6411,1.6465,1.6478,1.6534,1.669,1.6979,1.7466,1.8085,1.87,1.94,1.9649,1.9573,2.017,2.0662,2.1087,2.1417,2.1936,2.2485,2.2789,2.3153,2.3518,2.3785,2.3929,2.4044,2.4563,2.4973,2.5091,2.5337,2.5473,2.5463,2.5489,2.5546,2.5469,2.4948,2.2868,1.8808,1.5058,1.0628,0.5947,0.2441,-0.0152,-0.2163,-0.1959,-0.1624,-0.1624,-0.1287,-0.0771,-0.0162,0.0541,0.1251,0.1877,0.2257,0.2537,0.2753,0.3586,0.4179,0.4333,0.4739,0.4858,0.4708,0.4965,0.5424,0.5798,0.5732,0.5531,0.5257,0.5067,0.4948,0.4611,0.4126,0.3888,0.3799,0.292,0.2128,0.1536,0.0805,0.0335,0.0,-0.066,-0.1587,-0.2666,-0.3469,-0.4035,-0.512,-0.5453,-0.5672,-0.5811,-0.5935,-0.5909,-0.5944,-0.6036,-0.5734,-0.5902,-0.5845,-0.43,3.0547,2.943,2.9001,2.8062,2.6963,2.5863,2.5285,2.4976,2.3607,2.3032,2.2863,2.1834,2.1083,2.0201,1.98,1.9297,1.8679,1.7731,1.7016,1.6654,1.7156,1.7505,1.7562,1.7874,1.8195,1.8467,1.9524,1.9978,2.0016,2.048,2.0557,2.0208,2.0578,2.098,2.0906,2.1702,2.2106,2.2388,2.2781,2.3028,2.3199,2.3399,2.3518,2.3548,2.3988,2.4414,2.4855,2.5081,2.5207,2.5284,2.5348,2.5385,2.528,2.5134,2.4731,2.3093,2.042,1.616,1.1472,0.8856,0.4911,0.1404,-0.0165,0.0489,0.0054,0.0436,0.0812,0.0696,0.149,0.2232,0.2748,0.3379,0.3735,0.3983,0.4442,0.4987,0.5711,0.6073,0.6302,0.6547,0.6699,0.6703,0.6759,0.6987,0.6892,0.6569,0.6522,0.6567,0.6204,0.5701,0.5553,0.5531,0.4951,0.4132,0.2823,0.1535,0.1264,0.086,0.0065,-0.0772,-0.2217,-0.314,-0.2437,-0.2905,-0.0587,-0.0647,-0.2598,-0.2649,-0.1813,-0.1932,-0.3107,-0.245,-0.0938,0.0617,0.1848,2.9966,2.8923,2.8712,2.8006,2.6982,2.6469,2.5959,2.5329,2.4582,2.3881,2.3102,2.2607,2.1654,2.0412,1.9966,1.9542,1.9021,1.8729,1.8469,1.8241,1.8137,1.8455,1.8829,1.8845,1.9181,1.9943,2.0514,2.0942,2.1223,2.1467,2.1538,2.1522,2.1817,2.2239,2.2519,2.2618,2.2798,2.3113,2.2836,2.2738,2.2919,2.3095,2.3175,2.3277,2.3544,2.385,2.4154,2.4653,2.493,2.5038,2.5141,2.4955,2.4504,2.4351,2.3984,2.2958,1.9771,1.7342,1.5377,1.2592,1.0245,0.8173,0.808,0.6643,0.4157,0.4357,0.3704,0.1812,0.2272,0.3329,0.4017,0.4971,0.5321,0.4819,0.5315,0.5904,0.6679,0.7215,0.7523,0.7736,0.8034,0.8256,0.8357,0.8514,0.8601,0.8507,0.8311,0.7966,0.7892,0.7565,0.7449,0.7711,0.7083,0.6885,0.6378,0.5996,0.5817,0.5128,0.3887,0.2583,0.0673,-0.0307,0.0059,0.101,0.3313,0.362,0.1675,0.1576,0.2751,0.4467,0.5302,0.6268,0.74,0.7589,0.7314,2.9714,2.8687,2.843,2.7844,2.6982,2.6539,2.5928,2.5285,2.4895,2.4213,2.3447,2.2951,2.2271,2.1233,2.0785,2.0449,2.0297,2.042,2.0452,2.0248,1.9647,1.9731,2.0165,2.0129,2.0515,2.1341,2.1714,2.1919,2.2119,2.2224,2.2245,2.227,2.2635,2.3087,2.3552,2.3552,2.3705,2.3879,2.3608,2.3464,2.3601,2.3719,2.3798,2.3877,2.4088,2.4147,2.4109,2.48,2.5246,2.525,2.5351,2.5,2.4295,2.4205,2.4003,2.3286,2.1591,1.9721,1.8288,1.7571,1.5182,1.3241,1.3295,1.2158,0.8765,0.8146,0.6574,0.4853,0.465,0.5169,0.5775,0.6535,0.6945,0.6929,0.6708,0.7028,0.7683,0.8458,0.8843,0.9065,0.9442,0.9695,0.9841,1.0189,1.0325,1.0348,1.0115,0.9873,0.9847,0.9736,0.9909,1.0014,0.9755,0.9971,1.0493,1.0559,1.0571,0.9729,0.8622,0.7438,0.5968,0.5647,0.5751,0.6449,0.8208,0.8315,0.6778,0.799,0.9217,1.1238,1.2387,1.1837,1.1256,0.978,1.0243,2.9654,2.8755,2.8147,2.7654,2.7057,2.6127,2.5503,2.5052,2.4533,2.4122,2.3724,2.3054,2.2612,2.2494,2.1766,2.1641,2.2095,2.203,2.2066,2.2045,2.1566,2.1209,2.1175,2.1569,2.2119,2.2611,2.2907,2.2992,2.2934,2.3011,2.2797,2.2852,2.3315,2.3576,2.4149,2.4471,2.4638,2.4666,2.4701,2.4704,2.4746,2.4913,2.4971,2.4982,2.5108,2.4971,2.4718,2.5517,2.6017,2.589,2.5916,2.5611,2.5001,2.4813,2.4911,2.5048,2.5184,2.3303,2.1674,2.2682,2.1692,1.5659,1.6181,1.5339,1.2425,1.1009,0.9869,0.8401,0.7719,0.7436,0.7785,0.825,0.8889,0.9526,0.8678,0.8355,0.9079,0.9895,1.0229,1.0446,1.083,1.1256,1.139,1.1957,1.2153,1.2073,1.2187,1.2227,1.2238,1.2202,1.2458,1.2567,1.2572,1.3365,1.3997,1.4473,1.472,1.5708,1.4,1.1841,1.0471,1.0103,0.8997,1.001,1.3128,1.2925,1.3054,1.4101,1.4863,1.5924,1.6068,1.5401,1.5264,1.4988,1.5356,2.8943,2.8562,2.8246,2.7683,2.7043,2.6489,2.5835,2.513,2.4934,2.4433,2.3928,2.3389,2.2991,2.269,2.2269,2.2091,2.2231,2.2417,2.254,2.2694,2.2759,2.2419,2.2238,2.2698,2.3157,2.3377,2.3595,2.3876,2.4107,2.4126,2.4296,2.4633,2.4859,2.5248,2.5526,2.5379,2.5353,2.5314,2.4887,2.4821,2.4957,2.4986,2.4959,2.5017,2.5184,2.522,2.5271,2.639,2.6881,2.6637,2.641,2.6394,2.6263,2.6043,2.5968,2.6199,2.6355,2.6256,2.549,2.574,2.4828,2.2989,2.1534,2.0246,1.5777,1.5023,1.3053,1.0618,0.9272,0.9471,0.9807,1.0192,1.088,1.1428,1.0604,1.0171,1.0931,1.1382,1.163,1.1917,1.2715,1.3212,1.3408,1.3825,1.4207,1.4193,1.4294,1.4446,1.4391,1.4612,1.4789,1.55,1.5839,1.6777,1.752,1.8057,1.9143,2.1151,1.9503,1.5986,1.4282,1.2734,1.088,0.9625,1.7807,1.9984,1.9567,1.9801,2.0384,2.0279,2.1265,2.1489,2.3219,2.3654,2.27,2.892,2.8414,2.8047,2.7613,2.7063,2.6488,2.5888,2.54,2.5068,2.4776,2.4306,2.3903,2.354,2.319,2.2807,2.2555,2.2509,2.2692,2.2828,2.2918,2.3201,2.3143,2.3054,2.3436,2.3625,2.3638,2.4051,2.4287,2.4461,2.4775,2.5169,2.547,2.5779,2.6085,2.6266,2.6185,2.6048,2.6046,2.5739,2.5647,2.5771,2.5788,2.5897,2.5924,2.5984,2.6021,2.6289,2.6721,2.6819,2.667,2.6724,2.6798,2.656,2.6399,2.6319,2.6431,2.6301,2.6282,2.6536,2.6161,2.5668,2.5208,2.4503,2.2384,1.9404,1.8084,1.5731,1.3393,1.2207,1.1817,1.1935,1.2347,1.285,1.3233,1.2744,1.2366,1.2609,1.2657,1.2908,1.3406,1.4323,1.5108,1.4994,1.5629,1.5921,1.5965,1.6083,1.6182,1.6279,1.6662,1.7012,1.7517,1.7763,1.8227,1.8663,1.917,1.9557,2.1842,2.2164,1.9035,1.7904,1.6173,1.6315,1.6823,2.2984,2.6127,2.4176,2.3179,2.3797,2.4321,2.6118,2.637,2.6702,2.6833,2.6686,2.9115,2.8282,2.7736,2.7391,2.7098,2.621,2.5795,2.5589,2.5185,2.495,2.4815,2.441,2.4048,2.3955,2.3349,2.3053,2.2888,2.3023,2.3082,2.3201,2.3407,2.3494,2.3566,2.361,2.3696,2.3767,2.4328,2.4533,2.4719,2.5052,2.546,2.5852,2.5977,2.6191,2.6539,2.664,2.6691,2.6657,2.6605,2.6604,2.6702,2.6751,2.6813,2.6891,2.6828,2.686,2.683,2.6678,2.6229,2.6079,2.6831,2.6813,2.6224,2.6097,2.5886,2.5846,2.5569,2.5455,2.5739,2.5136,2.4492,2.4444,2.3772,2.2835,2.12,1.9529,1.7833,1.6297,1.5156,1.4117,1.401,1.4359,1.4702,1.4898,1.49,1.4395,1.3941,1.3988,1.4291,1.4499,1.6007,1.6516,1.6672,1.703,1.7653,1.7346,1.7619,1.8027,1.8062,1.8203,1.8561,1.8933,1.9094,1.9177,1.9573,1.9986,2.0263,2.1213,2.1847,2.0792,2.1005,2.067,2.2692,2.4719,2.4687,2.4871,2.4742,2.4786,2.5389,2.531,2.5024,2.5255,2.5542,2.5558,2.5464,2.8289,2.7904,2.7612,2.7258,2.6891,2.6469,2.6063,2.5626,2.5659,2.5355,2.5029,2.4735,2.439,2.4006,2.367,2.3304,2.3112,2.3201,2.3275,2.3422,2.3625,2.3754,2.3739,2.3724,2.3739,2.3994,2.4395,2.4823,2.5214,2.5631,2.6104,2.6418,2.6418,2.6556,2.6657,2.6708,2.6708,2.6708,2.6742,2.6842,2.6926,2.6959,2.704,2.7103,2.6954,2.6856,2.667,2.609,2.5767,2.5922,2.6196,2.6532,2.6715,2.5925,2.5607,2.5768,2.5482,2.526,2.5268,2.4683,2.4275,2.3915,2.2885,2.1946,2.1453,1.9958,1.8599,1.7529,1.623,1.5461,1.5428,1.5506,1.5903,1.6314,1.6185,1.5893,1.5905,1.609,1.626,1.6696,1.7429,1.817,1.8054,1.8387,1.8721,1.8696,1.9125,1.9731,1.9732,1.96,1.9707,1.9811,1.9863,1.9851,2.0079,2.039,2.0607,2.0852,2.1295,2.1513,2.1801,2.1931,2.2688,2.2848,2.2702,2.3079,2.3825,2.3805,2.3938,2.3834,2.3823,2.4128,2.4362,2.4358,2.4601,2.7886,2.773,2.7338,2.7021,2.6725,2.6382,2.6043,2.577,2.5733,2.5584,2.5317,2.5185,2.4791,2.4208,2.4036,2.3724,2.3422,2.3451,2.3581,2.3668,2.3839,2.3952,2.4021,2.3894,2.3967,2.4313,2.4958,2.5368,2.5705,2.6049,2.6417,2.6623,2.6657,2.664,2.6708,2.6708,2.6708,2.6708,2.6691,2.6792,2.6893,2.6876,2.6942,2.6935,2.6681,2.6411,2.6213,2.5762,2.5308,2.5139,2.5259,2.5805,2.6526,2.6059,2.5749,2.5496,2.4982,2.4381,2.404,2.3494,2.2898,2.2721,2.174,2.1004,2.0393,1.9495,1.8745,1.7813,1.6999,1.6448,1.6522,1.6823,1.7183,1.7243,1.7243,1.7108,1.7306,1.7281,1.723,1.7561,1.8351,1.8981,1.9334,1.9496,1.9611,1.958,1.9655,2.0193,2.0114,2.0035,2.0114,2.0218,2.0333,2.0422,2.056,2.0746,2.0881,2.0962,2.1099,2.1104,2.1086,2.1086,2.1148,2.1472,2.2058,2.2132,2.2715,2.2637,2.2563,2.2472,2.2593,2.2966,2.3334,2.3585,2.3911,2.7713,2.7595,2.7068,2.6758,2.6607,2.6222,2.597,2.586,2.577,2.5712,2.56,2.5605,2.5214,2.4657,2.4446,2.4131,2.3867,2.3882,2.4036,2.4131,2.4287,2.4312,2.43,2.4213,2.4269,2.4666,2.5297,2.5668,2.5819,2.626,2.6555,2.6606,2.6606,2.664,2.6691,2.6708,2.6708,2.6708,2.6691,2.6742,2.6842,2.6792,2.6876,2.6855,2.6595,2.6087,2.5793,2.533,2.4813,2.4034,2.4248,2.4788,2.533,2.5631,2.576,2.4824,2.4232,2.3703,2.3191,2.2389,2.1773,2.1183,2.0766,2.0252,1.9596,1.9313,1.8831,1.8325,1.7699,1.7459,1.7518,1.7793,1.7994,1.8092,1.8213,1.8292,1.8393,1.8183,1.8158,1.8177,1.9264,2.0137,2.0178,2.021,2.036,2.0459,2.047,2.0523,2.0502,2.0347,2.0367,2.0459,2.0586,2.0699,2.0885,2.0983,2.1082,2.1019,2.1019,2.0921,2.0759,2.0908,2.1091,2.1382,2.1813,2.1779,2.1718,2.169,2.1547,2.1277,2.1554,2.2161,2.2526,2.2819,2.334,2.7531,2.7434,2.7087,2.6842,2.6606,2.6434,2.6187,2.597,2.6043,2.5881,2.5659,2.577,2.5546,2.5098,2.4815,2.4623,2.4477,2.4558,2.4704,2.4831,2.495,2.4891,2.4531,2.4569,2.4574,2.4622,2.5142,2.5529,2.5757,2.6248,2.6556,2.664,2.6674,2.6691,2.6691,2.6708,2.6708,2.6708,2.6708,2.6725,2.6742,2.6757,2.6842,2.6824,2.655,2.6112,2.5463,2.4908,2.4319,2.3782,2.3999,2.4285,2.4466,2.4297,2.4362,2.4376,2.3916,2.3412,2.3072,2.2489,2.2133,2.1775,2.1027,2.0547,2.0184,1.9749,1.9404,1.9128,1.8715,1.849,1.8826,1.8879,1.9218,1.9495,1.9502,1.9439,1.9766,1.9953,1.997,1.9813,2.0575,2.1119,2.0923,2.0726,2.0763,2.0712,2.0597,2.0825,2.0968,2.066,2.0357,2.0573,2.0759,2.0921,2.1068,2.118,2.1229,2.1019,2.0957,2.097,2.0908,2.1055,2.1237,2.1188,2.1104,2.0957,2.0908,2.0908,2.0871,2.0848,2.1144,2.152,2.1958,2.2413,2.3073,2.7348,2.7152,2.6957,2.6742,2.6537,2.6434,2.6277,2.6118,2.6168,2.6096,2.5987,2.6007,2.566,2.5206,2.526,2.5192,2.5059,2.5098,2.5198,2.5351,2.5373,2.541,2.5025,2.5134,2.5056,2.5069,2.5338,2.5454,2.5521,2.609,2.635,2.6436,2.659,2.6708,2.6708,2.6708,2.6691,2.6691,2.6691,2.6708,2.664,2.657,2.6534,2.6737,2.6275,2.5783,2.5676,2.5078,2.4407,2.3893,2.4211,2.4258,2.4163,2.4191,2.4185,2.4154,2.3845,2.3426,2.3044,2.2369,2.1995,2.2161,2.133,2.0883,2.0893,2.0659,2.0299,1.9897,1.9732,1.9484,1.9616,1.9778,2.0273,2.0664,2.058,2.0593,2.0962,2.1305,2.1332,2.1285,2.1467,2.1541,2.1346,2.1239,2.115,2.1023,2.0797,2.0975,2.1251,2.0921,2.0435,2.0586,2.0785,2.0885,2.0997,2.1095,2.1229,2.1068,2.0858,2.0871,2.0772,2.0809,2.061,2.0422,2.0283,2.0283,2.0472,2.066,2.0549,2.0524,2.0785,2.1076,2.1526,2.2068,2.2733,2.7459,2.7229,2.6843,2.6623,2.6485,2.633,2.6295,2.6277,2.6239,2.6203,2.6203,2.6203,2.5864,2.5443,2.5556,2.5668,2.5556,2.5577,2.5652,2.5779,2.5799,2.5859,2.5782,2.5678,2.536,2.501,2.5147,2.5319,2.54,2.5783,2.5997,2.6175,2.647,2.659,2.6556,2.6624,2.6657,2.6624,2.6691,2.6708,2.6572,2.6349,2.6311,2.6822,2.5843,2.5555,2.5671,2.5328,2.4652,2.4259,2.4399,2.4658,2.4272,2.4626,2.4658,2.4178,2.4029,2.3645,2.3274,2.2535,2.242,2.2658,2.1809,2.1353,2.1333,2.1405,2.1452,2.0731,2.0429,2.0473,2.05,2.0664,2.1059,2.1452,2.1527,2.1568,2.206,2.2395,2.246,2.2384,2.2219,2.189,2.1589,2.1343,2.1165,2.0695,2.0458,2.062,2.0822,2.0799,2.0511,2.0612,2.0762,2.0762,2.0861,2.0961,2.1095,2.1118,2.0871,2.0673,2.0523,2.0422,2.0169,1.9926,1.9875,1.9926,2.0169,2.0423,2.0425,2.045,2.0487,2.0835,2.1538,2.1983,2.2484,2.818,2.8048,2.7063,2.6554,2.6502,2.6364,2.6293,2.6272,2.6236,2.6203,2.622,2.6293,2.6277,2.6206,2.6013,2.6033,2.6033,2.6033,2.6175,2.6367,2.6419,2.6151,2.5765,2.5646,2.5271,2.4906,2.4725,2.4735,2.5006,2.5373,2.5726,2.5964,2.6052,2.6175,2.621,2.6401,2.6505,2.6297,2.6521,2.6691,2.6708,2.6656,2.6656,2.659,2.6303,2.5883,2.5564,2.531,2.4984,2.4519,2.4655,2.4823,2.4847,2.4768,2.4791,2.4712,2.4697,2.4689,2.4445,2.3615,2.3111,2.3018,2.2112,2.1568,2.1657,2.1735,2.1826,2.1963,2.1452,2.1342,2.1397,2.1301,2.1657,2.201,2.2297,2.2781,2.3367,2.3464,2.3545,2.3339,2.313,2.2214,2.1556,2.1345,2.1113,2.0547,2.0182,2.0398,2.0498,2.0511,2.0562,2.0662,2.0712,2.0775,2.0825,2.0861,2.0848,2.1033,2.0723,2.0472,2.0271,2.0016,1.9772,1.9617,1.9565,1.9668,1.9978,2.022,2.036,2.0399,2.0348,2.0899,2.1681,2.203,2.2295,2.8476,2.7981,2.7468,2.7142,2.7021,2.653,2.6545,2.6795,2.6476,2.6308,2.6374,2.6414,2.6468,2.6468,2.6208,2.6175,2.6401,2.6436,2.6505,2.6657,2.6674,2.6505,2.6252,2.5967,2.5535,2.509,2.4782,2.4618,2.476,2.4965,2.5275,2.5411,2.5652,2.5762,2.5762,2.5961,2.5908,2.5908,2.6139,2.647,2.6539,2.6436,2.6302,2.6402,2.605,2.5728,2.5543,2.5329,2.5342,2.5082,2.5019,2.5108,2.5529,2.5561,2.5311,2.5342,2.5601,2.5383,2.4692,2.3942,2.369,2.3407,2.2637,2.217,2.2235,2.2052,2.1969,2.2161,2.1732,2.1746,2.2142,2.1908,2.2522,2.2958,2.3213,2.3829,2.4429,2.4517,2.4524,2.4288,2.3983,2.315,2.2221,2.1565,2.1348,2.0965,2.0566,2.0514,2.0614,2.0612,2.0612,2.0699,2.0712,2.0775,2.0775,2.0825,2.0649,2.0686,2.0409,2.0105,1.9914,1.9668,1.9522,1.955,1.9617,1.972,1.9888,1.9989,2.0103,2.0155,2.0194,2.0983,2.1682,2.1865,2.2244,2.8878,2.8095,2.7618,2.7343,2.7222,2.6599,2.6649,2.7102,2.6616,2.6414,2.6464,2.6519,2.6572,2.6572,2.6349,2.6401,2.6657,2.6708,2.6708,2.6708,2.6708,2.6691,2.6539,2.6334,2.5966,2.5503,2.5179,2.4816,2.4527,2.4614,2.4799,2.4902,2.5237,2.5351,2.5406,2.5556,2.5615,2.5799,2.6016,2.6315,2.6522,2.6134,2.6101,2.5962,2.5671,2.531,2.5438,2.5192,2.5234,2.5579,2.5258,2.5383,2.5901,2.5788,2.543,2.5383,2.547,2.5443,2.4885,2.4369,2.3906,2.3622,2.3281,2.2829,2.2775,2.2374,2.2296,2.274,2.2235,2.2282,2.2509,2.2516,2.3044,2.3717,2.4273,2.4882,2.5357,2.5253,2.5127,2.4807,2.4567,2.4401,2.3393,2.2194,2.1577,2.1339,2.1041,2.0784,2.0705,2.0664,2.0649,2.0699,2.0699,2.0662,2.0448,2.0498,2.0385,2.0233,1.9952,1.9772,1.9602,1.9543,1.9548,1.9592,1.9651,1.98,1.9961,1.9932,1.9924,2.0353,2.0784,2.118,2.1597,2.1787,2.2198,2.9598,2.8805,2.7297,2.6741,2.6723,2.6536,2.6519,2.6736,2.6586,2.6553,2.6621,2.6556,2.6641,2.6657,2.6624,2.6624,2.6708,2.6708,2.6708,2.6708,2.6708,2.6708,2.6657,2.6537,2.6225,2.561,2.5438,2.5051,2.4529,2.4636,2.4755,2.4879,2.5076,2.5005,2.5187,2.5557,2.574,2.5914,2.6151,2.6295,2.6453,2.6267,2.6057,2.5842,2.5379,2.4989,2.5091,2.4869,2.5098,2.5768,2.5664,2.5699,2.6075,2.5948,2.5621,2.5118,2.518,2.5157,2.4883,2.4795,2.4848,2.4403,2.3791,2.3214,2.3113,2.3231,2.3334,2.354,2.312,2.2968,2.3192,2.3383,2.38,2.432,2.4982,2.5645,2.5933,2.5777,2.5601,2.5284,2.5053,2.4833,2.4637,2.3442,2.2855,2.2651,2.1521,2.1251,2.0886,2.078,2.0688,2.0699,2.0699,2.0485,2.0016,1.9901,1.9952,1.9708,1.9396,1.9393,1.9361,1.9388,1.9672,1.9707,1.9818,1.9974,2.0072,1.9986,2.0182,2.0928,2.1385,2.1499,2.1964,2.2405,2.2728,2.9251,2.8822,2.7316,2.691,2.7246,2.6721,2.6771,2.7211,2.7244,2.7279,2.7265,2.6877,2.6691,2.6708,2.6708,2.6708,2.6708,2.6708,2.6708,2.6708,2.6708,2.6708,2.6691,2.6576,2.6183,2.5766,2.5735,2.5311,2.4421,2.4983,2.5149,2.5268,2.5243,2.517,2.5358,2.5941,2.6163,2.6052,2.6376,2.6709,2.6262,2.6175,2.5872,2.5313,2.5182,2.4744,2.4677,2.4916,2.5373,2.5911,2.6096,2.6313,2.6499,2.6342,2.5756,2.5172,2.5296,2.5268,2.4752,2.4551,2.4066,2.3613,2.3068,2.2918,2.3319,2.3405,2.3701,2.3893,2.4159,2.4063,2.4061,2.4312,2.4636,2.5068,2.5658,2.6347,2.645,2.6221,2.574,2.5272,2.5246,2.5176,2.4946,2.4638,2.4309,2.3936,2.2707,2.1681,2.1342,2.108,2.1118,2.0912,2.0912,2.0515,2.0037,1.978,1.9589,1.9373,1.9126,1.9498,1.9806,1.9691,1.9916,1.9951,2.0079,2.0367,2.0409,2.013,2.0412,2.1081,2.1412,2.1606,2.2209,2.2924,2.3122,2.9327,2.9161,2.7909,2.7367,2.7348,2.7009,2.7177,2.7702,2.8024,2.794,2.7791,2.7249,2.6877,2.6759,2.6708,2.6708,2.6708,2.6708,2.6674,2.6776,2.6894,2.6962,2.6987,2.6978,2.6912,2.6278,2.6162,2.5834,2.5149,2.586,2.5874,2.5764,2.581,2.596,2.6092,2.6572,2.6798,2.6727,2.6793,2.7383,2.6942,2.662,2.6213,2.5566,2.5386,2.5039,2.5025,2.5287,2.5964,2.6426,2.6718,2.698,2.7042,2.6888,2.6241,2.5903,2.5795,2.5749,2.4894,2.4298,2.3891,2.3611,2.3925,2.3762,2.3702,2.4115,2.476,2.482,2.5099,2.5206,2.4961,2.5082,2.5301,2.5707,2.6431,2.7031,2.6711,2.6428,2.5742,2.5175,2.519,2.5273,2.5429,2.5231,2.4664,2.4239,2.33,2.2333,2.1943,2.1747,2.1707,2.1459,2.1199,2.0716,2.0167,2.0261,2.0404,2.0282,2.0151,2.0523,2.0746,2.0613,2.0685,2.1034,2.1092,2.0994,2.1067,2.1231,2.1186,2.1151,2.1599,2.2101,2.2422,2.3037,2.3027,3.0039,2.9989,2.9178,2.8061,2.7097,2.7485,2.7806,2.7992,2.8569,2.8552,2.8026,2.7772,2.7351,2.6894,2.6793,2.6708,2.6708,2.6708,2.6674,2.6775,2.7114,2.7449,2.7534,2.7519,2.7387,2.7355,2.715,2.676,2.6164,2.6673,2.6565,2.6656,2.6979,2.7283,2.711,2.7089,2.7533,2.8141,2.7833,2.8207,2.8152,2.7557,2.6875,2.6221,2.5939,2.557,2.5327,2.5949,2.6611,2.7042,2.7319,2.7411,2.7319,2.7319,2.6657,2.5656,2.6072,2.598,2.5351,2.5305,2.49,2.4389,2.4657,2.5258,2.5329,2.565,2.5909,2.5817,2.5967,2.5637,2.5612,2.5781,2.6021,2.6184,2.6834,2.7011,2.6663,2.639,2.5737,2.5122,2.503,2.5196,2.5571,2.5679,2.5034,2.4376,2.362,2.3054,2.2557,2.2374,2.2309,2.1861,2.1493,2.1104,2.0772,2.1043,2.1174,2.1057,2.1128,2.1344,2.1874,2.2116,2.2153,2.22,2.2116,2.1994,2.225,2.2553,2.2213,2.1901,2.235,2.278,2.299,2.3027,2.3005,3.0106,3.004,2.9296,2.8723,2.8264,2.8467,2.8602,2.8636,2.8873,2.9093,2.9059,2.833,2.7705,2.7368,2.6894,2.6708,2.6708,2.6708,2.6674,2.6725,2.7131,2.6789,2.6992,2.7525,2.7486,2.6973,2.7029,2.7302,2.6349,2.7441,2.7549,2.7519,2.828,2.8589,2.8363,2.8501,2.9296,2.8699,2.8805,2.9142,2.8598,2.7921,2.7162,2.6374,2.634,2.6044,2.5595,2.6503,2.718,2.7503,2.7719,2.7827,2.7565,2.7457,2.6995,2.6211,2.638,2.6303,2.6211,2.6212,2.5924,2.5423,2.5439,2.6108,2.5983,2.6244,2.6532,2.6824,2.7037,2.6774,2.6672,2.6535,2.6557,2.6103,2.6371,2.6438,2.6229,2.6068,2.5631,2.5078,2.4829,2.4629,2.4819,2.5146,2.4726,2.4662,2.3995,2.3506,2.2968,2.2893,2.2802,2.2276,2.1825,2.1479,2.1349,2.1848,2.1665,2.1245,2.1475,2.1868,2.2438,2.3256,2.3323,2.3138,2.3062,2.2947,2.3013,2.2967,2.2736,2.2665,2.2751,2.286,2.2944,2.2944,2.2896,3.0482,3.0429,2.9973,2.979,2.9702,2.9482,2.9499,2.9702,2.9736,2.982,2.9495,2.86,2.7858,2.7418,2.6962,2.6708,2.6708,2.6708,2.6674,2.6776,2.7368,2.7412,2.757,2.776,2.8178,2.7617,2.7829,2.8179,2.7719,2.8928,2.9147,2.9036,2.9627,2.9547,2.9409,2.9733,3.0002,2.9395,2.9477,2.9689,2.9138,2.8478,2.7768,2.7259,2.6969,2.6698,2.6548,2.698,2.7734,2.7873,2.8011,2.8196,2.7842,2.7657,2.738,2.6949,2.6488,2.6565,2.6795,2.7011,2.6597,2.5956,2.6211,2.6533,2.6796,2.7084,2.7311,2.7634,2.7972,2.7754,2.7363,2.7225,2.6953,2.6481,2.6496,2.6602,2.6,2.5837,2.5481,2.4948,2.4558,2.4268,2.4125,2.421,2.4236,2.4334,2.4452,2.3904,2.3515,2.3729,2.3496,2.2808,2.248,2.2307,2.2421,2.2835,2.2412,2.1585,2.2151,2.3075,2.3544,2.4384,2.4262,2.4157,2.4117,2.3911,2.3426,2.325,2.2929,2.2735,2.2577,2.2727,2.2873,2.2885,2.2874,3.1173,3.119,3.119,3.1123,3.1021,3.0395,3.0514,3.1123,3.1123,3.0391,2.9147,2.9107,2.8334,2.708,2.6776,2.6708,2.6708,2.6708,2.6776,2.7096,2.784,2.8152,2.8538,2.9042,2.8898,2.9162,2.9421,2.9446,2.9412,2.9807,3.0099,3.0273,3.0383,3.0323,3.0275,3.035,3.0328,2.9859,2.9685,2.9887,2.9657,2.9111,2.8517,2.8131,2.7921,2.7564,2.7442,2.7811,2.8181,2.8334,2.8365,2.8396,2.8365,2.8396,2.798,2.7488,2.6857,2.7057,2.7319,2.755,2.7534,2.7148,2.7731,2.7857,2.7733,2.7777,2.7977,2.8036,2.8189,2.8122,2.7955,2.7725,2.7509,2.7357,2.7255,2.6811,2.6054,2.5577,2.5203,2.4818,2.4464,2.4243,2.4178,2.4151,2.4321,2.4321,2.4406,2.4082,2.4022,2.4961,2.4582,2.3443,2.324,2.3251,2.3424,2.3472,2.3382,2.2619,2.4054,2.5044,2.5416,2.5139,2.4941,2.4856,2.5105,2.49,2.4123,2.3542,2.3103,2.2898,2.2585,2.2492,2.2665,2.2911,2.296,3.119,3.119,3.119,3.119,3.1157,3.097,3.1021,3.119,3.119,3.0847,3.0509,2.9448,2.8691,2.8286,2.7216,2.6826,2.6708,2.6776,2.7114,2.757,2.8056,2.7694,2.818,2.9173,2.9124,2.9215,2.9541,3.0401,3.0151,3.0474,3.0812,3.101,3.0779,3.0694,3.0795,3.0925,3.043,3.0035,2.9839,2.9886,2.9853,2.9255,2.8802,2.845,2.8325,2.7984,2.7781,2.8088,2.8365,2.8411,2.8411,2.8411,2.8411,2.8411,2.8211,2.8181,2.7934,2.795,2.8088,2.8119,2.8073,2.8027,2.8288,2.8304,2.8227,2.8242,2.8396,2.8348,2.8186,2.8039,2.779,2.756,2.7306,2.7152,2.7049,2.6707,2.6,2.5673,2.5258,2.4788,2.4445,2.4374,2.4295,2.4504,2.4635,2.4504,2.4333,2.4172,2.4387,2.5269,2.5069,2.3937,2.3923,2.3946,2.3676,2.374,2.381,2.3943,2.5081,2.5676,2.5252,2.5075,2.5346,2.531,2.5131,2.4915,2.453,2.3881,2.3027,2.2859,2.2645,2.2541,2.2518,2.28,2.312,3.0514,3.0717,3.0446,3.048,3.0801,3.1055,3.119,3.119,3.119,3.1067,3.069,2.9816,2.9098,2.8338,2.7521,2.7029,2.6708,2.6725,2.7063,2.767,2.8182,2.8234,2.8669,2.9459,2.9701,2.9643,3.0005,3.1037,3.0896,3.1136,3.1505,3.1697,3.1093,3.0969,3.1049,3.0822,3.048,3.0164,2.9986,2.9788,2.9476,2.9121,2.8714,2.8556,2.8481,2.8105,2.7873,2.8288,2.8365,2.8411,2.8411,2.8411,2.8411,2.8411,2.8411,2.835,2.8334,2.8288,2.8334,2.835,2.8396,2.8411,2.8411,2.8396,2.8381,2.8381,2.8411,2.8348,2.8137,2.7925,2.756,2.724,2.6878,2.6563,2.651,2.6443,2.6108,2.5837,2.5342,2.4815,2.4601,2.4498,2.4596,2.4831,2.4844,2.4517,2.4504,2.4606,2.4777,2.5333,2.4863,2.3755,2.414,2.4562,2.4229,2.3768,2.384,2.4049,2.4602,2.4969,2.4838,2.5016,2.524,2.5141,2.4879,2.4626,2.4338,2.3544,2.2811,2.2727,2.2618,2.2416,2.2516,2.2846,2.3142,2.9397,2.9973,2.9347,2.9668,3.026,3.0937,3.119,3.119,3.119,3.0858,3.032,3.0116,2.9353,2.854,2.7893,2.7503,2.7232,2.7114,2.7467,2.7956,2.871,2.8893,2.9179,3.0396,3.0305,3.0478,3.0885,3.1486,3.1528,3.1628,3.1813,3.2283,3.1379,3.1142,3.1415,3.072,3.0472,3.0786,3.0319,2.9879,2.9297,2.8872,2.862,2.8842,2.8653,2.835,2.8365,2.8411,2.8411,2.8411,2.8411,2.8411,2.8565,2.875,2.8719,2.8642,2.8735,2.8642,2.8581,2.8504,2.8411,2.8411,2.8411,2.8411,2.8411,2.8411,2.8411,2.8122,2.786,2.7545,2.724,2.6959,2.6659,2.6726,2.6788,2.6773,2.6612,2.6048,2.516,2.482,2.4932,2.4818,2.4465,2.4648,2.4909,2.4517,2.453,2.4844,2.5114,2.5511,2.4803,2.3761,2.4159,2.4422,2.3756,2.3484,2.3798,2.4066,2.4446,2.4543,2.4471,2.473,2.5155,2.4891,2.459,2.4302,2.3917,2.3244,2.2847,2.2811,2.2666,2.2354,2.2488,2.2865,2.3038,2.9076,2.9296,2.9668,3.026,3.092,3.1123,3.119,3.119,3.119,3.1083,3.0864,3.0357,2.9914,2.9353,2.8347,2.801,2.8213,2.7807,2.8199,2.8686,2.9327,2.9098,2.9081,3.0557,3.0671,3.0514,3.0882,3.1812,3.1636,3.1674,3.1659,3.1597,3.1073,3.1104,3.1857,3.0951,3.0732,3.141,3.0798,3.0161,2.9549,2.9252,2.9095,2.8788,2.8473,2.8488,2.8473,2.8411,2.8411,2.8411,2.8411,2.8673,2.9119,2.9612,2.9874,2.9843,2.9319,2.9089,2.8858,2.8611,2.8442,2.8396,2.8348,2.8411,2.8411,2.8411,2.8235,2.7845,2.7479,2.7174,2.6878,2.6659,2.6508,2.6766,2.6952,2.7006,2.7006,2.6022,2.4962,2.493,2.5127,2.4936,2.453,2.453,2.4766,2.4844,2.4831,2.4988,2.5184,2.5441,2.4885,2.412,2.4054,2.4073,2.3408,2.3111,2.3349,2.3727,2.3999,2.4073,2.4133,2.4261,2.4381,2.4482,2.4278,2.4025,2.3725,2.3256,2.2955,2.2991,2.2895,2.2678,2.2702,2.3019,2.3031,2.8163,2.8535,2.9296,3.004,3.0683,3.1055,3.119,3.119,3.119,3.119,3.1157,3.0784,3.0415,3.0163,2.9171,2.8687,2.8991,2.8552,2.8732,2.9198,2.9428,2.914,2.9742,3.0561,3.0579,3.05,3.1495,3.2075,3.1736,3.1859,3.1874,3.1659,3.1266,3.1263,3.2023,3.1402,3.1294,3.2164,3.1241,3.0695,3.0104,2.975,2.9581,2.9166,2.9042,2.8919,2.8704,2.8627,2.8411,2.855,2.8704,2.8965,2.9443,2.9899,3.0068,2.9904,2.9535,2.9273,2.8981,2.8688,2.8427,2.8378,2.8073,2.7959,2.775,2.77,2.7695,2.7312,2.6759,2.6404,2.6122,2.5893,2.5869,2.599,2.598,2.5939,2.5869,2.5465,2.4734,2.4477,2.4674,2.4818,2.457,2.4661,2.4857,2.4922,2.5022,2.5249,2.5432,2.5389,2.4771,2.4189,2.4059,2.3791,2.3224,2.2945,2.2902,2.3276,2.3734,2.3815,2.3851,2.3661,2.3645,2.3922,2.4013,2.3833,2.3496,2.328,2.3316,2.3412,2.3268,2.3075,2.3135,2.3176,2.3107,2.7182,2.7892,2.867,2.9431,3.0176,3.0886,3.119,3.119,3.119,3.119,3.119,3.1157,3.0769,3.0448,3.0061,2.9698,2.9414,2.9245,2.9386,2.9461,2.9642,2.9214,2.9454,3.0258,3.0351,3.0788,3.1605,3.1975,3.1997,3.1997,3.1951,3.2074,3.1921,3.1659,3.1921,3.1828,3.172,3.2014,3.1705,3.1459,3.0905,3.0274,3.0074,2.9981,2.9812,2.9458,2.9196,2.8858,2.8473,2.8642,2.8965,2.9366,2.9689,3.0099,3.0212,3.0043,2.9643,2.9227,2.8812,2.8565,2.844,2.8296,2.776,2.7434,2.7172,2.7034,2.6975,2.6745,2.6204,2.5923,2.5647,2.5534,2.5476,2.5558,2.5436,2.5208,2.5124,2.5067,2.4664,2.4295,2.4583,2.4831,2.4766,2.4857,2.5001,2.5053,2.5236,2.5524,2.5647,2.5409,2.5046,2.4235,2.3712,2.3387,2.2945,2.2685,2.2535,2.3234,2.3653,2.3629,2.3578,2.3275,2.3269,2.3749,2.3791,2.3616,2.3676,2.3604,2.3688,2.3845,2.358,2.34,2.3364,2.3357,2.3286,2.7148,2.784,2.8653,2.9414,3.0159,3.0886,3.119,3.119,3.119,3.119,3.119,3.119,3.1067,3.0965,3.0323,3.0125,3.0412,3.0087,2.9779,2.9772,2.9669,2.9212,2.9153,2.9886,3.0094,3.072,3.1382,3.152,3.1951,3.1813,3.1628,3.1674,3.1643,3.1505,3.152,3.1536,3.1751,3.2013,3.189,3.1551,3.1705,3.112,3.0443,3.0135,2.9781,2.9535,2.9227,2.8735,2.8504,2.8611,2.9089,2.9673,3.0089,3.0366,3.0412,3.032,2.9904,2.9319,2.8919,2.8468,2.8327,2.8171,2.7634,2.6953,2.6628,2.6197,2.6187,2.6204,2.5882,2.5924,2.5782,2.5748,2.5729,2.6117,2.6226,2.5585,2.5229,2.5137,2.4938,2.5105,2.5471,2.5354,2.5074,2.5249,2.5628,2.572,2.5903,2.6164,2.6142,2.5726,2.5236,2.4457,2.3621,2.2948,2.2615,2.2269,2.2249,2.3001,2.353,2.3484,2.3263,2.2771,2.2895,2.3532,2.3592,2.346,2.3568,2.3989,2.4145,2.423,2.3905,2.3767,2.3755,2.3777,2.3806]},{"header":{"parameterUnit":"m.s-1","parameterCategory":1,"la1":31.0,"la2":29.5877,"lo1":-88.7671,"lo2":-86.6584,"dy":0.0162,"dx":0.0185,"nx":115,"ny":88,"refTime":"2023-10-29T00:00:00:Z","depth":0,"parameterNumber":3,"parameterNumberName":"V-component_of_WINDS"},"data":[0.0,0.0,0.0,0.0,0.0,0.0,0.0,0.0,0.0,0.0,0.0,0.0,0.0,0.0,0.0,0.0,0.0,0.0,0.0,0.0,0.0,0.0,0.0,0.0,0.0,0.0,0.0,0.0,0.0,0.0,0.0,0.0,0.0,0.0,0.0,0.0,0.0,0.0,0.0,0.0,0.0,0.0,0.0,0.0,0.0,0.0,0.0,0.0,0.0,0.0,0.0,0.0,0.0,0.0,0.0,0.0,0.0,0.0,0.0,0.0,0.0,0.0,0.0,0.0,0.0,0.0,0.0,0.0,0.0,0.0,0.0,0.0,0.0,0.0,0.0,0.0,0.0,0.0,0.0,0.0,0.0,0.0,0.0,0.0,0.0,0.0,0.0,0.0,0.0,0.0,0.0,0.0,0.0,0.0,0.0,0.0,0.0,0.0,0.0,0.0,0.0,0.0,0.0,0.0,0.0,0.0,0.0,0.0,0.0,0.0,0.0,0.0,0.0,0.0,0.0,0.0,0.0,0.0,0.0,0.0,0.0,0.0,0.0,0.0,0.0,0.0,0.0,0.0,0.0,0.0,0.0,0.0,0.0,0.0,0.0,0.0,0.0,0.0,0.0,0.0,0.0,0.0,0.0,0.0,0.0,0.0,0.0,0.0,0.0,0.0,0.0,0.0,0.0,0.0,0.0,0.0,0.0,0.0,0.0,0.0,0.0,0.0,0.0,0.0,0.0,0.0,0.0,0.0,0.0,0.0,0.0,0.0,0.0,0.0,0.0,0.0,0.0,0.0,0.0,0.0,0.0,0.0,0.0,0.0,0.0,0.0,0.0,0.0,0.0,0.0,0.0,0.0,0.0,0.0,0.0,0.0,0.0,0.0,0.0,0.0,0.0,0.0,0.0,0.0,0.0,0.0,0.0,0.0,0.0,0.0,0.0,0.0,0.0,0.0,0.0,0.0,0.0,0.0,0.0,0.0,0.0,0.0,0.0,0.0,0.0,0.0,0.0,0.0,0.0,0.0,0.0,0.0,0.0,0.0,0.0,0.0,0.0,0.0,0.0,0.0,0.0,0.0,0.0,0.0,0.0,0.0,0.0,0.0,0.0,0.0,0.0,0.0,0.0,0.0,0.0,0.0,0.0,0.0,0.0,0.0,0.0,0.0,0.0,0.0,0.0,0.0,0.0,0.0,0.0,0.0,0.0,0.0,0.0,0.0,0.0,0.0,0.0,0.0,0.0,0.0,0.0,0.0,0.0,0.0,0.0,0.0,0.0,0.0,0.0,0.0,0.0,0.0,0.0,0.0,0.0,0.0,0.0,0.0,0.0,0.0,0.0,0.0,0.0,0.0,0.0,0.0,0.0,0.0,0.0,0.0,0.0,0.0,0.0,0.0,0.0,0.0,0.0,0.0,0.0,0.0,0.0,0.0,0.0,0.0,0.0,0.0,0.0,0.0,0.0,0.0,0.0,0.0,0.0,0.0,0.0,0.0,0.0,0.0,0.0,0.0,0.0,0.0,0.0,0.0,0.0,0.0,0.0,0.0,0.0,0.0,0.0,0.0,0.0,0.0,0.0,0.0,0.0,0.0,0.0,0.0,0.0,0.0,0.0,0.0,0.0,0.0,0.0,0.0,0.0,0.0,0.0,0.0,0.0,0.0,0.0,0.0,0.0,0.0,0.0,0.0,0.0,0.0,0.0,0.0,0.0,0.0,0.0,0.0,0.0,0.0,0.0,0.0,0.0,0.0,0.0,0.0,0.0,0.0,0.0,0.0,0.0,0.0,0.0,0.0,0.0,0.0,0.0,0.0,0.0,0.0,0.0,0.0,0.0,0.0,0.0,0.0,0.0,0.0,0.0,0.0,0.0,0.0,0.0,0.0,0.0,0.0,0.0,0.0,0.0,0.0,0.0,0.0,0.0,0.0,0.0,0.0,0.0,0.0,0.0,0.0,0.0,0.0,0.0,0.0,0.0,0.0,0.0,0.0,0.0,0.0,0.0,0.0,0.0,0.0,0.0,0.0,0.0,0.0,0.0,0.0,0.0,0.0,0.0,0.0,0.0,0.0,0.0,0.0,0.0,0.0,0.0,0.0,0.0,0.0,0.0,0.0,0.0,0.0,0.0,0.0,0.0,0.0,0.0,0.0,0.0,0.0,0.0,0.0,0.0,0.0,0.0,0.0,0.0,0.0,0.0,0.0,0.0,0.0,0.0,0.0,0.0,0.0,0.0,0.0,0.0,0.0,0.0,0.0,0.0,0.0,0.0,0.0,0.0,0.0,0.0,0.0,0.0,0.0,0.0,0.0,0.0,0.0,0.0,0.0,0.0,0.0,0.0,0.0,0.0,0.0,0.0,0.0,0.0,0.0,0.0,0.0,0.0,0.0,0.0,0.0,0.0,0.0,0.0,0.0,0.0,0.0,0.0,0.0,0.0,0.0,0.0,0.0,0.0,0.0,0.0,0.0,0.0,0.0,0.0,0.0,0.0,0.0,0.0,0.0,0.0,0.0,0.0,0.0,0.0,0.0,0.0,0.0,0.0,0.0,0.0,0.0,0.0,0.0,0.0,0.0,0.0,0.0,0.0,0.0,0.0,0.0,0.0,0.0,0.0,0.0,0.0,0.0,0.0,0.0,0.0,0.0,0.0,0.0,0.0,0.0,0.0,0.0,0.0,0.0,0.0,0.0,0.0,0.0,0.0,0.0,0.0,0.0,0.0,0.0,0.0,0.0,0.0,0.0,0.0,0.0,0.0,0.0,0.0,0.0,0.0,0.0,0.0,0.0,0.0,0.0,0.0,0.0,0.0,0.0,0.0,0.0,0.0,0.0,0.0,0.0,0.0,0.0,0.0,0.0,0.0,0.0,0.0,0.0,0.0,0.0,0.0,0.0,0.0,0.0,0.0,0.0,0.0,0.0,0.0,0.0,0.0,0.0,0.0,0.0,0.0,0.0,0.0,0.0,0.0,0.0,0.0,0.0,0.0,0.0,0.0,0.0,0.0,0.0,0.0,0.0,0.0,0.0,0.0,0.0,0.0,0.0,0.0,0.0,0.0,0.0,0.0,0.0,0.0,0.0,0.0,0.0,0.0,0.0,0.0,0.0,0.0,0.0,0.0,0.0,0.0,0.0,0.0,0.0,0.0,0.0,0.0,0.0,0.0,0.0,0.0,0.0,0.0,0.0,0.0,0.0,0.0,0.0,0.0,0.0,0.0,0.0,0.0,0.0,0.0,0.0,0.0,0.0,0.0,0.0,0.0,0.0,0.0,0.0,0.0,0.0,0.0,0.0,0.0,0.0,0.0,0.0,0.0,0.0,0.0,0.0,0.0,0.0,0.0,0.0,0.0,0.0,0.0,0.0,0.0,0.0,0.0,0.0,0.0,0.0,0.0,0.0,0.0,0.0,0.0,0.0,0.0,0.0,0.0,0.0,0.0,0.0,0.0,0.0,0.0,0.0,0.0,0.0,0.0,0.0,0.0,0.0,0.0,0.0,0.0,0.0,0.0,0.0,0.0,0.0,0.0,0.0,0.0,0.0,0.0,0.0,0.0,0.0,0.0,0.0,0.0,0.0,0.0,0.0,0.0,0.0,0.0,0.0,0.0,0.0,0.0,0.0,0.0,0.0,0.0,0.0,0.0,0.0,0.0,0.0,0.0,0.0,0.0,0.0,0.0,0.0,0.0,0.0,0.0,0.0,0.0,0.0,0.0,0.0,0.0,0.0,0.0,0.0,0.0,0.0,0.0,0.0,0.0,0.0,0.0,0.0,0.0,0.0,0.0,0.0,0.0,0.0,0.0,0.0,0.0,0.0,0.0,0.0,0.0,0.0,0.0,0.0,0.0,0.0,0.0,0.0,0.0,0.0,0.0,0.0,0.0,0.0,0.0,0.0,0.0,0.0,0.0,0.0,0.0,0.0,0.0,0.0,0.0,0.0,0.0,0.0,0.0,0.0,0.0,0.0,0.0,0.0,0.0,0.0,0.0,0.0,0.0,0.0,0.0,0.0,0.0,0.0,0.0,0.0,0.0,0.0,0.0,0.0,0.0,0.0,0.0,0.0,0.0,0.0,0.0,0.0,0.0,0.0,0.0,0.0,0.0,0.0,0.0,0.0,0.0,0.0,0.0,0.0,0.0,0.0,0.0,0.0,0.0,0.0,0.0,0.0,0.0,0.0,0.0,0.0,0.0,0.0,0.0,0.0,0.0,0.0,0.0,0.0,0.0,0.0,0.0,0.0,0.0,0.0,0.0,0.0,0.0,0.0,0.0,0.0,0.0,0.0,-0.4194,0.0,0.0,0.0,0.0,0.0,0.0,0.0,0.0,0.0,0.0,0.0,0.0,0.0,0.0,0.0,0.0,0.0,0.0,0.0,0.0,0.0,0.0,0.0,0.0,0.0,0.0,0.0,0.0,0.0,0.0,0.0,0.0,0.0,0.0,0.0,0.0,0.0,0.0,0.0,0.0,0.0,0.0,0.0,0.0,0.0,0.0,0.0,0.0,0.0,0.0,0.0,0.0,0.0,0.0,0.0,0.0,0.0,0.0,0.0,0.0,0.0,0.0,0.0,0.0,0.0,0.0,0.0,0.0,0.0,0.0,0.0,0.0,0.0,0.0,0.0,0.0,0.0,0.0,0.0,0.0,0.0,0.0,0.0,0.0,0.0,0.0,0.0,0.0,0.0,0.0,0.0,0.0,0.0,0.0,0.0,0.0,0.0,0.0,0.0,0.0,0.0,0.0,0.0,0.0,0.0,0.0,0.0,0.0,0.0,0.0,-0.1521,-0.1983,-0.329,-0.4093,-0.4537,0.0,0.0,0.0,0.0,0.0,0.0,0.0,0.0,0.0,0.0,0.0,0.0,0.0,0.0,0.0,0.0,0.0,0.0,0.0,0.0,0.0,0.0,0.0,0.0,0.0,0.0,0.0,0.0,0.0,0.0,0.0,0.0,0.0,0.0,0.0,0.0,0.0,0.0,0.0,0.0,0.0,0.0,0.0,0.0,0.0,0.0,0.0,0.0,0.0,0.0,0.0,0.0,0.0,0.0,0.0,0.0,0.0,0.0,0.0,0.0,0.0,0.0,0.0,0.0,0.0,0.0,0.0,0.0,0.0,0.0,0.0,0.0,0.0,0.0,0.0,0.0,0.0,0.0,0.0,0.0,0.0,0.0,0.0,0.0,0.0,0.0,0.0,0.0,0.0,0.0,0.0,0.0,0.0,0.0,0.0,0.0,0.0,0.0,0.0,0.0,0.0,0.0,0.0,0.0,0.0,0.0,0.0,0.0,0.0,0.0,0.0,0.0,-0.35,-0.4639,-0.5808,0.0,0.0,0.0,0.0,0.0,0.0,0.0,0.0,0.0,0.0,0.0,0.0,0.0,0.0,0.0,0.0,0.0,0.0,0.0,0.0,0.0,0.0,0.0,0.0,0.0,0.0,0.0,0.0,0.0,0.0,0.0,0.0,0.0,0.0,0.0,0.0,0.0,0.0,0.0,0.0,0.0,0.0,0.0,0.0,0.0,0.0,0.0,0.0,0.0,0.0,0.0,0.0,0.0,0.0,0.0,0.0,0.0,0.0,0.0,0.0,0.0,0.0,0.0,0.0,0.0,0.0,0.0,0.0,0.0,0.0,0.0,0.0,0.0,0.0,0.0,0.0,0.0,0.0,0.0,0.0,0.0,0.0,0.0,0.0,0.0,0.0,0.0,0.0,0.0,0.0,0.0,0.0,0.0,0.0,0.0,0.0,0.0,0.0,0.0,0.0,0.0,0.0,0.0,0.0,0.0,0.0,0.0,0.0,0.0,0.0,-0.1397,-0.151,-0.323,0.0,-0.8028,0.0,0.0,0.0,0.0,0.0,0.0,0.0,0.0,0.0,0.0,0.0,0.0,0.0,0.0,0.0,0.0,0.0,0.0,0.0,0.0,0.0,0.0,0.0,0.0,0.0,0.0,0.0,0.0,0.0,0.0,0.0,0.0,0.0,0.0,0.0,0.0,0.0,0.0,0.0,0.0,0.0,0.0,0.0,0.0,0.0,0.0,0.0,0.0,0.0,0.0,0.0,0.0,0.0,0.0,0.0,0.0,0.0,0.0,0.0,0.0,0.0,0.0,0.0,0.0,0.0,0.0,0.0,0.0,0.0,0.0,0.0,0.0,0.0,0.0,0.0,0.0,0.0,0.0,0.0,0.0,0.0,0.0,0.0,0.0,0.0,0.0,0.0,0.0,0.0,0.0,0.0,0.0,0.0,0.0,0.0,0.0,0.0,0.0,0.0,0.0,0.0,0.0,0.0,0.0,0.0,0.0,0.0,0.0,0.0,0.0,-0.1371,-0.1384,-0.3074,-0.549,0.0,0.0,0.0,0.0,0.0,0.0,0.0,0.0,0.0,0.0,0.0,0.0,0.0,0.0,0.0,0.0,0.0,0.0,0.0,0.0,0.0,0.0,0.0,0.0,0.0,0.0,0.0,0.0,0.0,0.0,0.0,0.0,0.0,0.0,0.0,0.0,0.0,0.0,0.0,0.0,0.0,0.0,0.0,0.0,0.0,0.0,0.0,0.0,0.0,0.0,0.0,0.0,0.0,0.0,0.0,0.0,0.0,0.0,0.0,0.0,0.0,0.0,0.0,0.0,0.0,0.0,0.0,0.0,0.0,0.0,0.0,0.0,0.0,0.0,0.0,0.0,0.0,0.0,0.0,0.0,0.0,0.0,0.0,0.0,0.0,0.0,0.0,0.0,0.0,0.0,0.0,0.0,0.0,0.0,0.0,0.0,0.0,0.0,0.0,0.0,0.0,0.0,0.0,0.0,0.0,0.0,0.0,0.0,0.0,0.0,-0.1345,-0.152,-0.2119,-0.3699,-0.6078,-0.9029,0.0,0.0,0.0,0.0,0.0,0.0,0.0,0.0,0.0,0.0,0.0,0.0,0.0,0.0,0.0,0.0,0.0,0.0,0.0,0.0,0.0,0.0,0.0,0.0,0.0,0.0,0.0,0.0,0.0,0.0,0.0,0.0,0.0,0.0,0.0,0.0,0.0,0.0,0.0,0.0,0.0,0.0,0.0,0.0,0.0,0.0,0.0,0.0,0.0,0.0,0.0,0.0,0.0,0.0,0.0,0.0,0.0,0.0,0.0,0.0,0.0,0.0,0.0,0.0,0.0,0.0,0.0,0.0,0.0,0.0,0.0,0.0,0.0,0.0,0.0,0.0,0.0,0.0,0.0,0.0,0.0,0.0,0.0,0.0,0.0,0.0,0.0,0.0,0.0,0.0,0.0,0.0,0.0,0.0,0.0,0.0,0.0,0.0,0.0,0.0,0.0,0.0,0.0,0.0,0.0,0.0,0.0,0.0,-0.1421,-0.1376,-0.2208,-0.3966,-0.5739,-0.7484,0.0,0.0,0.0,0.0,0.0,0.0,0.0,0.0,0.0,0.0,0.0,0.0,0.0,0.0,0.0,0.0,0.0,0.0,0.0,0.0,0.0,0.0,0.0,0.0,0.0,0.0,0.0,0.0,0.0,0.0,0.0,0.0,0.0,0.0,0.0,0.0,0.0,0.0,0.0,0.0,0.0,0.0,0.0,0.0,0.0,0.0,0.0,0.0,0.0,0.0,0.0,0.0,0.0,0.0,0.0,0.0,0.0,0.0,0.0,0.0,0.0,0.0,0.0,0.0,0.0,0.0,0.0,0.0,0.0,0.0,0.0,0.0,0.0,0.0,0.0,0.0,0.0,0.0,0.0,0.0,0.0,0.0,0.0,0.0,0.0,0.0,0.0,0.0,0.0,0.0,0.0,0.0,0.0,0.0,0.0,0.0,0.0,0.0,0.0,0.0,0.0,0.0,0.0,0.0,0.0,0.0,0.0,0.0,0.0,-0.135,-0.1366,-0.2225,-0.3986,-0.528,-0.6937,0.0,0.0,0.0,0.0,0.0,0.0,0.0,0.0,0.0,0.0,0.0,0.0,0.0,0.0,0.0,0.0,0.0,0.0,0.0,0.0,0.0,0.0,0.0,0.0,0.0,0.0,0.0,0.0,0.0,0.0,0.0,0.0,0.0,0.0,0.0,0.0,0.0,0.0,0.0,0.0,0.0,0.0,0.0,0.0,0.0,0.0,0.0,0.0,0.0,0.0,0.0,0.0,0.0,0.0,0.0,0.0,0.0,0.0,0.0,0.0,0.0,0.0,0.0,0.0,0.0,0.0,0.0,0.0,0.0,0.0,0.0,0.0,0.0,0.0,0.0,0.0,0.0,0.0,0.0,0.0,0.0,0.0,0.0,0.0,0.0,0.0,0.0,0.0,0.0,0.0,0.0,0.0,0.0,0.0,0.0,0.0,0.0,0.0,0.0,0.0,0.0,0.0,0.0,0.0,0.0,0.0,0.0,0.0,0.0,-0.1401,0.0,-0.2503,0.0,-0.575,-0.7546,0.0,0.0,0.0,0.0,0.0,0.0,0.0,0.0,0.0,0.0,0.0,0.0,0.0,0.0,0.0,0.0,0.0,0.0,0.0,0.0,0.0,0.0,0.0,0.0,0.0,0.0,0.0,0.0,0.0,0.0,0.0,0.0,0.0,0.0,0.0,0.0,0.0,0.0,0.0,0.0,0.0,0.0,0.0,0.0,0.0,0.0,0.0,0.0,0.0,0.0,0.0,0.0,0.0,0.0,0.0,0.0,0.0,0.0,0.0,0.0,0.0,0.0,0.0,0.0,0.0,0.0,0.0,0.0,0.0,0.0,0.0,0.0,0.0,0.0,0.0,0.0,0.0,0.0,0.0,0.0,0.0,0.0,0.0,0.0,0.0,0.0,0.0,0.0,0.0,0.0,0.0,0.0,0.0,0.0,0.0,0.0,0.0,0.0,0.0,0.0,0.0,0.0,0.0,0.0,0.0,0.0,0.0,0.0,-0.1317,-0.1682,-0.1658,-0.2956,-0.5921,-0.739,-0.9402,0.0,0.0,0.0,0.0,0.0,0.0,0.0,0.0,0.0,0.0,0.0,0.0,0.0,0.0,0.0,0.0,0.0,0.0,0.0,0.0,0.0,0.0,0.0,0.0,0.0,0.0,0.0,0.0,0.0,0.0,0.0,0.0,0.0,0.0,0.0,0.0,0.0,0.0,0.0,0.0,0.0,0.0,0.0,0.0,0.0,0.0,0.0,0.0,0.0,0.0,0.0,0.0,0.0,0.0,0.0,0.0,0.0,0.0,0.0,0.0,0.0,0.0,0.0,0.0,0.0,0.0,0.0,0.0,0.0,0.0,0.0,0.0,0.0,0.0,0.0,0.0,0.0,0.0,0.0,0.0,0.0,0.0,0.0,0.0,0.0,0.0,0.0,0.0,0.0,0.0,0.0,0.0,0.0,0.0,0.0,0.0,0.0,0.0,0.0,0.0,0.0,0.0,0.0,0.0,0.0,0.0,0.0,0.0,0.0,-0.0504,-0.1254,-0.2689,-0.5032,-0.7144,-0.932,0.0,0.0,0.0,0.0,0.0,0.0,0.0,0.0,0.0,0.0,0.0,0.0,0.0,0.0,0.0,0.0,0.0,0.0,0.0,0.0,0.0,0.0,0.0,0.0,0.0,0.0,0.0,0.0,0.0,0.0,0.0,0.0,0.0,0.0,0.0,0.0,0.0,0.0,0.0,0.0,0.0,0.0,0.0,0.0,0.0,0.0,0.0,0.0,0.0,0.0,0.0,0.0,0.0,0.0,0.0,0.0,0.0,0.0,0.0,0.0,0.0,0.0,0.0,0.0,0.0,0.0,0.0,0.0,0.0,0.0,0.0,0.0,0.0,0.0,0.0,0.0,0.0,0.0,0.0,0.0,0.0,0.0,0.0,0.0,0.0,0.0,0.0,0.0,0.0,0.0,0.0,0.0,0.0,0.0,0.0,0.0,0.0,0.0,0.0,0.0,0.0,0.0,0.0,0.0,0.0,0.0,0.0,0.0,0.0,0.1324,0.025,-0.1767,-0.4768,-0.6823,-0.9438,-1.2419,0.0,0.0,0.0,0.0,0.0,0.0,0.0,0.0,0.0,0.0,0.0,0.0,0.0,0.0,0.0,0.0,0.0,0.0,0.0,0.0,0.0,0.0,0.0,0.0,0.0,0.0,0.0,0.0,0.0,0.0,0.0,0.0,0.0,0.0,0.0,0.0,0.0,0.0,0.0,0.0,0.0,0.0,0.0,0.0,0.0,0.0,0.0,0.0,0.0,0.0,0.0,0.0,0.0,0.0,0.0,0.0,0.0,0.0,0.0,0.0,0.0,0.0,0.0,0.0,0.0,0.0,0.0,0.0,0.0,0.0,0.0,0.0,0.0,0.0,0.0,0.0,0.0,0.0,0.0,0.0,0.0,0.0,0.0,0.0,0.0,0.0,0.0,0.0,0.0,0.0,0.0,0.0,0.0,0.0,0.0,0.0,0.0,0.0,0.0,0.0,0.0,0.0,0.0,0.0,0.0,0.0,0.0,0.0,0.3796,0.2579,-0.0346,-0.5072,-0.6617,-0.9602,0.0,0.0,0.0,0.0,0.0,0.0,0.0,0.0,0.0,0.0,0.0,0.0,0.0,0.0,0.0,0.0,0.0,0.0,0.0,0.0,0.0,0.0,0.0,0.0,0.0,0.0,0.0,0.0,0.0,0.0,0.0,0.0,0.0,0.0,0.0,0.0,0.0,0.0,0.0,0.0,0.0,0.0,0.0,0.0,0.0,0.0,0.0,0.0,0.0,0.0,0.0,0.0,0.0,0.0,0.0,0.0,0.0,0.0,0.0,0.0,0.0,0.0,0.0,0.0,0.0,0.0,0.0,0.0,0.0,0.0,0.0,0.0,0.0,0.0,0.0,0.0,0.0,0.0,0.0,0.0,0.0,0.0,0.0,0.0,0.0,0.0,0.0,0.0,0.0,0.0,0.0,0.0,0.0,0.0,0.0,0.0,0.0,0.0,0.0,0.0,0.0,0.0,0.0,0.0,0.0,0.0,0.0,0.0,0.0,0.645,0.4444,0.0928,-0.4081,-0.7067,-1.0174,0.0,0.0,0.0,0.0,0.0,0.0,0.0,0.0,0.0,0.0,0.0,0.0,0.0,0.0,0.0,0.0,0.0,0.0,0.0,0.0,0.0,0.0,0.0,0.0,0.0,0.0,0.0,0.0,0.0,0.0,0.0,0.0,0.0,0.0,0.0,0.0,0.0,0.0,0.0,0.0,0.0,0.0,0.0,0.0,0.0,0.0,0.0,0.0,0.0,0.0,0.0,0.0,0.0,0.0,0.0,0.0,0.0,0.0,0.0,0.0,0.0,0.0,0.0,0.0,0.0,0.0,0.0,0.0,0.0,0.0,0.0,0.0,0.0,0.0,0.0,0.0,0.0,0.0,0.0,0.0,0.0,0.0,0.0,0.0,0.0,0.0,0.0,0.0,0.0,0.0,0.0,0.0,0.0,0.0,0.0,0.0,0.0,0.0,0.0,0.0,0.0,0.0,0.0,0.0,0.0,0.0,0.0,0.0,0.9351,0.8018,0.5231,0.1565,-0.2957,-0.7119,-1.0534,0.0,0.0,0.0,0.0,0.0,0.0,0.0,0.0,0.0,0.0,0.0,0.0,0.0,0.0,0.0,0.0,0.0,0.0,0.0,0.0,0.0,0.0,0.0,0.0,0.0,0.0,0.0,0.0,0.0,0.0,0.0,0.0,0.0,0.0,0.0,0.0,0.0,0.0,0.0,0.0,0.0,0.0,0.0,0.0,0.0,0.0,0.0,0.0,0.0,0.0,0.0,0.0,0.0,0.0,0.0,0.0,0.0,0.0,0.0,0.0,0.0,0.0,0.0,0.0,0.0,0.0,0.0,0.0,0.0,0.0,0.0,0.0,0.0,0.0,0.0,0.0,0.0,0.0,0.0,0.0,0.0,0.0,0.0,0.0,0.0,0.0,0.0,0.0,0.0,0.0,0.0,0.0,0.0,0.0,0.0,0.0,0.0,0.0,0.0,0.0,0.0,0.0,0.0,0.0,0.0,0.0,0.0,0.0,1.0541,0.8897,0.548,0.1924,-0.1882,-0.6921,-1.0874,0.0,0.0,0.0,0.0,0.0,0.0,0.0,0.0,0.0,0.0,0.0,0.0,0.0,0.0,0.0,0.0,0.0,0.0,0.0,0.0,0.0,0.0,0.0,0.0,0.0,0.0,0.0,0.0,0.0,0.0,0.0,0.0,0.0,0.0,0.0,0.0,0.0,0.0,0.0,0.0,0.0,0.0,0.0,0.0,0.0,0.0,0.0,0.0,0.0,0.0,0.0,0.0,0.0,0.0,0.0,0.0,0.0,0.0,0.0,0.0,0.0,0.0,0.0,0.0,0.0,0.0,0.0,0.0,0.0,0.0,0.0,0.0,0.0,0.0,0.0,0.0,0.0,0.0,0.0,0.0,0.0,0.0,0.0,0.0,0.0,0.0,0.0,0.0,0.0,0.0,0.0,0.0,0.0,0.0,0.0,0.0,0.0,0.0,0.0,0.0,0.0,0.0,0.0,0.0,0.0,0.0,0.0,0.0,1.251,1.004,0.6485,0.2709,-0.1248,-0.7029,-1.1462,0.0,0.0,0.0,0.0,0.0,0.0,0.0,0.0,0.0,0.0,0.0,0.0,0.0,0.0,0.0,0.0,0.0,0.0,0.0,0.0,0.0,0.0,0.0,0.0,0.0,0.0,0.0,0.0,0.0,0.0,0.0,0.0,0.0,0.0,0.0,0.0,0.0,0.0,0.0,0.0,0.0,0.0,0.0,0.0,0.0,0.0,0.0,0.0,-2.857,0.0,0.0,0.0,0.0,0.0,0.0,0.0,0.0,0.0,0.0,0.0,0.0,0.0,0.0,0.0,0.0,0.0,0.0,0.0,0.0,0.0,0.0,0.0,0.0,0.0,0.0,0.0,0.0,0.0,0.0,0.0,0.0,0.0,0.0,0.0,0.0,0.0,0.0,0.0,0.0,0.0,0.0,0.0,0.0,0.0,0.0,0.0,0.0,0.0,0.0,0.0,0.0,0.0,0.0,0.0,0.0,0.0,0.0,0.0,1.3591,1.0997,0.6787,0.2673,-0.1457,-0.7966,-1.2381,0.0,0.0,0.0,0.0,0.0,0.0,0.0,0.0,0.0,0.0,0.0,0.0,0.0,0.0,0.0,0.0,0.0,0.0,0.0,0.0,0.0,0.0,0.0,0.0,0.0,0.0,0.0,0.0,0.0,0.0,0.0,0.0,0.0,0.0,0.0,0.0,0.0,0.0,0.0,0.0,0.0,0.0,0.0,0.0,0.0,0.0,0.0,0.0,0.0,0.0,0.0,0.0,0.0,0.0,0.0,0.0,0.0,0.0,0.0,0.0,0.0,0.0,0.0,0.0,0.0,0.0,0.0,0.0,0.0,0.0,0.0,0.0,0.0,0.0,0.0,0.0,0.0,0.0,0.0,0.0,0.0,0.0,0.0,0.0,0.0,0.0,0.0,0.0,0.0,0.0,0.0,0.0,0.0,0.0,0.0,0.0,0.0,0.0,0.0,0.0,0.0,0.0,0.0,0.0,0.0,0.0,0.0,1.6053,1.4157,1.156,0.6765,0.2363,-0.1757,-0.8909,-1.3315,-1.4725,0.0,0.0,0.0,0.0,0.0,0.0,0.0,0.0,0.0,0.0,0.0,0.0,0.0,0.0,0.0,0.0,0.0,0.0,0.0,0.0,0.0,0.0,0.0,0.0,0.0,0.0,0.0,0.0,0.0,0.0,0.0,0.0,0.0,0.0,0.0,0.0,0.0,0.0,-1.7542,-2.2667,0.0,0.0,0.0,0.0,0.0,0.0,0.0,0.0,-3.2829,0.0,0.0,0.0,0.0,0.0,0.0,0.0,0.0,0.0,0.0,0.0,0.0,0.0,0.0,0.0,0.0,0.0,0.0,0.0,0.0,0.0,0.0,0.0,0.0,0.0,0.0,0.0,0.0,0.0,0.0,0.0,0.0,0.0,0.0,0.0,0.0,0.0,0.0,0.0,0.0,0.0,0.0,0.0,0.0,0.0,0.0,0.0,0.0,0.0,0.0,0.0,0.0,0.0,0.0,0.0,0.0,1.674,1.641,1.4741,1.164,0.6618,0.2212,-0.1834,-0.8557,-1.3382,-1.6016,0.0,0.0,0.0,0.0,0.0,0.0,0.0,0.0,0.0,0.0,0.0,0.0,0.0,0.0,0.0,0.0,0.0,0.0,0.0,0.0,0.0,0.0,0.0,0.0,0.0,0.0,0.0,0.0,0.0,0.0,0.0,0.0,0.0,0.0,0.0,0.0,0.0,0.0,0.0,-2.065,-2.4776,0.0,0.0,0.0,0.0,0.0,0.0,0.0,0.0,-3.5315,0.0,0.0,0.0,0.0,0.0,0.0,0.0,0.0,0.0,0.0,0.0,0.0,0.0,0.0,0.0,0.0,0.0,0.0,0.0,0.0,0.0,0.0,0.0,0.0,0.0,0.0,0.0,0.0,0.0,0.0,0.0,0.0,0.0,0.0,0.0,0.0,0.0,0.0,0.0,0.0,0.0,0.0,0.0,0.0,0.0,0.0,0.0,0.0,0.0,0.0,0.0,0.0,0.0,0.0,0.0,1.7427,1.6688,1.4733,1.1541,0.6522,0.1954,-0.221,-0.8807,-1.3675,0.0,0.0,0.0,0.0,0.0,0.0,0.0,0.0,0.0,0.0,0.0,0.0,0.0,0.0,0.0,0.0,0.0,0.0,0.0,0.0,0.0,0.0,0.0,0.0,0.0,0.0,0.0,0.0,0.0,0.0,0.0,0.0,0.0,0.0,0.0,0.0,0.0,0.0,0.0,0.0,-1.6804,-2.2327,-2.4397,0.0,0.0,0.0,0.0,0.0,0.0,-3.6352,-3.6615,0.0,0.0,0.0,0.0,0.0,0.0,0.0,0.0,0.0,0.0,0.0,0.0,0.0,0.0,0.0,0.0,0.0,0.0,0.0,0.0,0.0,0.0,0.0,0.0,0.0,0.0,0.0,0.0,0.0,0.0,0.0,0.0,0.0,0.0,0.0,0.0,0.0,0.0,0.0,0.0,0.0,0.0,0.0,0.0,0.0,0.0,0.0,0.0,0.0,0.0,0.0,0.0,0.0,0.0,0.0,1.8395,1.6986,1.4787,1.1919,0.6576,0.1628,-0.2723,-0.9015,-1.3824,0.0,0.0,0.0,0.0,0.0,0.0,0.0,0.0,0.0,0.0,0.0,0.0,0.0,0.0,0.0,0.0,0.0,0.0,0.0,0.0,0.0,0.0,0.0,0.0,0.0,0.0,0.0,0.0,0.0,0.0,0.0,0.0,0.0,0.0,0.0,0.0,0.0,0.0,0.0,0.0,0.0,-1.8525,-1.999,-2.8864,0.0,0.0,0.0,0.0,-3.4557,-3.5783,0.0,0.0,0.0,0.0,0.0,0.0,0.0,0.0,0.0,0.0,0.0,0.0,0.0,0.0,0.0,0.0,0.0,0.0,0.0,0.0,0.0,0.0,0.0,0.0,0.0,0.0,0.0,0.0,0.0,0.0,0.0,0.0,0.0,0.0,0.0,0.0,0.0,0.0,0.0,0.0,0.0,0.0,0.0,0.0,0.0,0.0,0.0,0.0,0.0,0.0,0.0,0.0,0.0,0.0,0.0,0.0,1.91,1.7145,1.5236,1.3275,0.6768,0.1251,-0.2959,-0.8811,-1.3577,0.0,0.0,0.0,0.0,0.0,0.0,0.0,0.0,0.0,0.0,0.0,0.0,0.0,0.0,0.0,0.0,0.0,0.0,0.0,0.0,0.0,0.0,0.0,0.0,0.0,0.0,0.0,0.0,0.0,0.0,0.0,0.0,0.0,0.0,0.0,0.0,0.0,0.0,0.0,0.0,0.0,-1.178,-1.6453,-2.5428,-3.1258,0.0,0.0,-3.3422,-3.2529,-3.4492,0.0,0.0,0.0,0.0,0.0,0.0,0.0,0.0,0.0,0.0,0.0,0.0,0.0,0.0,0.0,0.0,0.0,0.0,0.0,0.0,0.0,0.0,0.0,0.0,0.0,0.0,0.0,0.0,0.0,0.0,0.0,0.0,0.0,0.0,0.0,0.0,0.0,0.0,0.0,0.0,0.0,0.0,0.0,0.0,0.0,0.0,0.0,0.0,0.0,0.0,0.0,0.0,0.0,0.0,0.0,1.91,1.9222,1.7005,1.4607,1.2143,0.6342,0.1213,-0.302,-0.8863,-1.3608,0.0,0.0,0.0,0.0,0.0,0.0,0.0,0.0,0.0,0.0,0.0,0.0,0.0,0.0,0.0,0.0,0.0,0.0,0.0,0.0,0.0,0.0,0.0,0.0,0.0,0.0,0.0,0.0,0.0,0.0,0.0,0.0,0.0,0.0,0.0,0.0,0.0,0.0,0.0,0.0,0.0,0.0,-0.7394,-1.6638,0.0,0.0,0.0,-3.0351,-3.0258,0.0,0.0,0.0,0.0,0.0,0.0,0.0,0.0,0.0,0.0,0.0,0.0,0.0,0.0,0.0,0.0,0.0,0.0,0.0,0.0,0.0,0.0,0.0,0.0,0.0,0.0,0.0,0.0,0.0,0.0,0.0,0.0,0.0,0.0,0.0,0.0,0.0,0.0,0.0,0.0,0.0,0.0,0.0,0.0,0.0,0.0,0.0,0.0,0.0,0.0,0.0,0.0,0.0,0.0,0.0,0.0,0.0,1.9607,1.6893,1.4266,1.1693,0.6104,0.0831,-0.3979,-0.9155,0.0,0.0,0.0,0.0,0.0,0.0,0.0,0.0,0.0,0.0,0.0,0.0,0.0,0.0,0.0,0.0,0.0,0.0,0.0,0.0,0.0,0.0,0.0,0.0,0.0,0.0,0.0,-1.5624,0.0,0.0,0.0,0.0,0.0,0.0,0.0,0.0,0.0,0.0,0.0,0.0,0.0,0.0,0.4525,0.1298,-0.8129,-1.6066,0.0,0.0,-2.6578,-2.7414,-3.1351,-3.462,0.0,0.0,0.0,0.0,0.0,0.0,0.0,0.0,0.0,0.0,0.0,0.0,0.0,0.0,0.0,0.0,0.0,0.0,0.0,0.0,0.0,0.0,0.0,0.0,0.0,0.0,0.0,0.0,0.0,0.0,0.0,0.0,0.0,0.0,0.0,0.0,0.0,0.0,0.0,0.0,0.0,0.0,0.0,0.0,0.0,0.0,0.0,0.0,0.0,0.0,0.0,0.0,0.0,0.0,0.0,2.0534,1.7044,1.4639,1.3398,0.6535,-0.0204,-0.6466,-0.9779,-1.3216,0.0,0.0,0.0,0.0,0.0,0.0,0.0,0.0,0.0,0.0,0.0,0.0,0.0,0.0,0.0,0.0,0.0,0.0,0.0,0.0,0.0,0.0,0.0,0.0,0.0,0.0,0.0,0.0,0.0,0.0,0.0,0.0,0.0,0.0,0.0,0.0,0.0,0.0,0.0,0.0,0.0,0.9737,0.734,-0.1913,-0.976,0.0,0.0,-2.223,-2.3582,-2.8454,-3.2791,-3.4987,0.0,0.0,0.0,0.0,0.0,0.0,0.0,0.0,0.0,0.0,0.0,0.0,0.0,0.0,0.0,0.0,0.0,0.0,0.0,0.0,0.0,0.0,0.0,0.0,0.0,0.0,0.0,0.0,0.0,0.0,0.0,0.0,0.0,0.0,0.0,0.0,0.0,0.0,0.0,0.0,0.0,0.0,0.0,0.0,0.0,0.0,0.0,0.0,0.0,0.0,0.0,0.0,0.0,1.939,1.92,1.5643,1.294,1.1064,0.542,0.0067,-0.4657,-0.9704,-1.3778,0.0,0.0,0.0,0.0,0.0,0.0,0.0,0.0,0.0,0.0,0.0,0.0,0.0,0.0,0.0,0.0,0.0,0.0,0.0,0.0,0.0,0.0,0.0,0.0,0.0,0.0,0.0,0.0,-1.5956,-1.8337,-2.024,0.0,0.0,0.0,0.0,0.0,0.0,0.0,0.0,0.0,0.0,1.52,1.1056,0.4814,0.0,0.0,-1.3543,-1.9096,-2.2771,-2.748,-3.1855,-3.5152,-3.6734,0.0,0.0,0.0,0.0,0.0,0.0,0.0,0.0,0.0,0.0,0.0,0.0,0.0,0.0,0.0,0.0,0.0,0.0,0.0,0.0,0.0,0.0,0.0,0.0,0.0,0.0,0.0,0.0,0.0,0.0,0.0,0.0,0.0,0.0,0.0,0.0,0.0,0.0,0.0,0.0,0.0,0.0,0.0,0.0,0.0,0.0,0.0,0.0,0.0,0.0,0.0,0.0,1.8588,1.8416,1.451,1.1551,0.9779,0.468,0.0066,-0.4046,-0.9294,-1.3531,0.0,0.0,0.0,0.0,0.0,0.0,0.0,0.0,0.0,0.0,0.0,0.0,0.0,0.0,0.0,0.0,0.0,0.0,0.0,0.0,0.0,0.0,0.0,0.0,0.0,0.0,0.0,0.0,-1.3319,-1.5956,-1.699,0.0,0.0,0.0,0.0,0.0,0.0,0.0,0.0,0.0,0.0,1.9201,1.5563,1.0764,0.5286,-0.0991,-0.8895,-1.6163,-2.1439,-2.7211,-3.2279,-3.5779,0.0,0.0,0.0,0.0,0.0,0.0,0.0,0.0,0.0,0.0,0.0,0.0,0.0,0.0,0.0,0.0,0.0,0.0,0.0,0.0,0.0,0.0,0.0,0.0,0.0,0.0,0.0,0.0,0.0,0.0,-1.5687,0.0,0.0,0.0,0.0,0.0,0.0,0.0,0.0,0.0,0.0,0.0,0.0,0.0,0.0,0.0,0.0,0.0,0.0,0.0,0.0,0.0,0.0,1.8605,1.8583,1.3903,1.1043,1.0145,0.476,-0.0526,-0.5298,-0.8511,-1.2122,-1.6402,0.0,0.0,0.0,0.0,0.0,0.0,0.0,0.0,0.0,0.0,0.0,0.0,0.0,0.0,0.0,0.0,0.0,0.0,0.0,0.0,0.0,0.0,0.0,0.0,0.0,0.0,-0.6817,-1.1089,-1.1652,0.0,0.0,0.0,0.0,0.0,0.0,0.0,0.0,0.0,0.0,2.2324,2.1261,2.1243,1.5569,0.9729,0.5681,-0.422,-1.3264,-1.9034,-2.7387,-3.4256,0.0,0.0,0.0,0.0,0.0,0.0,0.0,0.0,0.0,0.0,0.0,0.0,0.0,0.0,0.0,0.0,0.0,0.0,0.0,0.0,0.0,0.0,0.0,0.0,0.0,0.0,0.0,-1.8389,-1.4899,0.0,0.0,0.0,0.0,0.0,0.0,0.0,0.0,0.0,0.0,0.0,1.6438,1.529,0.0,0.0,0.0,0.0,0.0,0.0,0.0,0.0,0.0,0.0,0.0,0.0,1.7571,1.7488,1.3143,1.0425,0.9632,0.4643,-0.0,-0.4126,-0.8645,-1.4294,-2.1106,0.0,0.0,0.0,0.0,0.0,0.0,0.0,0.0,0.0,0.0,0.0,0.0,0.0,0.0,0.0,0.0,0.0,0.0,0.0,0.0,0.0,0.0,0.0,0.0,0.0,-0.3867,0.0,0.0,0.0,0.0,0.0,0.0,0.0,0.0,0.0,0.0,0.0,2.1801,2.2464,2.2749,2.215,1.999,1.6858,1.3192,0.0,0.0,0.0,0.0,0.0,0.0,0.0,0.0,0.0,0.0,0.0,0.0,0.0,0.0,-2.3606,-2.2818,-1.9925,-1.7115,-1.5432,0.0,0.0,0.0,0.0,0.0,0.0,0.0,0.0,0.0,0.0,0.0,0.0,0.0,0.0,-2.3859,0.0,-2.3898,0.0,0.0,0.0,0.0,0.0,0.0,0.0,0.0,1.6983,1.5811,1.7174,1.6318,1.6997,0.0,1.9705,1.9496,0.0,0.0,0.0,0.0,0.0,0.0,0.0,0.0,1.6384,1.6058,1.1994,0.9356,0.832,0.4057,0.0,-0.3622,-0.9547,-1.5889,-2.271,-2.5738,-2.7316,0.0,0.0,0.0,0.0,0.0,0.0,0.0,0.0,0.0,0.0,0.0,0.0,0.0,0.0,0.0,0.0,0.0,0.0,0.0,0.0,0.0,0.0,0.0,0.0506,0.0,0.0,0.0,0.0,0.0,0.0,0.0,0.0,0.0,1.873,2.0582,2.207,2.2721,2.3167,2.2805,2.1083,0.0,0.0,0.0,0.0,0.0,0.0,0.0,-3.3347,-3.9747,-4.1685,-4.1823,-4.0256,-3.5481,-3.0667,-2.6813,0.0,0.0,-1.9527,-1.7172,-1.4722,-1.2997,-1.1884,-1.0532,-0.8016,-0.6296,-0.4452,0.0,0.0,0.0,0.0,0.0,0.0,0.0,0.0,-2.7382,-2.9026,0.0,-2.5914,0.0,0.0,0.0,0.0,0.0,2.0395,0.0,0.0,1.6968,1.6367,1.3241,1.5635,1.7048,1.7465,1.8807,1.9499,1.9747,2.1683,0.0,0.0,0.0,0.0,0.0,0.0,1.5089,1.4241,1.051,0.781,0.6414,0.309,-0.0437,-0.4231,-1.1053,-1.6762,-2.1026,-2.4504,-2.6776,-2.7879,-2.9382,0.0,0.0,0.0,0.0,0.0,0.0,0.0,0.0,0.0,0.0,0.0,0.0,0.0,0.0,0.0,0.0,0.0,0.0,0.0,0.0,0.522,0.0,0.0,0.0,0.0,0.0,0.0,0.0,0.0,0.0,0.0,2.0165,2.2263,2.3787,2.4357,0.0,0.0,0.0,0.0,2.0541,1.8589,0.8346,-0.2163,-1.0406,-2.1969,-3.209,-3.8412,0.0,0.0,-3.6352,-3.2922,-2.9003,-2.386,-1.9874,-1.731,-1.6916,-1.5584,-1.4025,-1.2226,-1.0552,-0.9236,-0.7892,-0.5326,-0.2911,-3.5567,0.0,0.0,0.0,0.0,-3.2231,-3.2524,-3.3839,-3.2427,-3.3404,-3.5636,-2.9251,0.0,0.0,0.0,0.0,0.0,0.0,1.5335,1.7098,1.4582,1.4106,1.5713,1.7319,1.8542,1.95,2.0251,2.076,2.1194,2.231,2.2255,2.1135,0.0,0.0,0.0,0.0,1.5188,1.2807,0.9771,0.6679,0.359,0.1739,-0.1954,-0.7539,-1.3088,-1.7384,-2.0411,-2.4877,-2.7713,-2.8595,-2.9849,0.0,0.0,0.0,0.0,0.0,0.0,0.0,0.0,0.0,0.0,0.0,0.0,0.0,0.0,0.0,0.0,0.0,0.0,0.0,0.5831,0.5443,0.6264,0.0,0.0,0.0,0.0,0.0,0.0,0.0,0.0,0.0,2.1985,2.2967,2.3818,0.0,0.0,2.6067,2.4871,2.4475,2.3664,2.1952,1.4342,0.0,0.0,-1.7654,-2.7061,-3.9119,-3.9911,-3.7729,-3.4095,-3.0346,-2.5902,-1.9932,-1.6678,-1.3728,-1.002,-1.0553,-1.0772,-0.8999,-0.8073,-0.6904,-0.4438,-0.2695,-0.0983,-3.7074,-3.6279,-3.523,-3.4784,-3.4659,-3.3366,-3.3243,-3.3876,-3.2263,-3.302,-3.4921,-2.7662,-1.1682,0.9927,0.8264,0.0,0.0,0.0,1.2607,1.6191,1.4291,1.4767,1.7243,1.8575,1.9574,2.0289,2.0723,2.1294,2.2115,2.2578,2.2418,2.1749,0.0,0.0,1.8505,1.6335,1.4031,1.1559,0.8967,0.6121,0.296,0.0057,-0.4008,-0.9246,-1.3184,-1.6753,-2.0005,-2.401,-2.6789,-2.8005,-2.932,-2.9945,0.0,0.0,0.0,0.0,0.0,0.0,0.0,0.0,0.0,0.0,0.0,-0.7022,0.0,0.0,0.0,0.0,1.389,1.4019,0.8093,0.699,0.0,0.0,0.0,0.0,0.0,0.0,0.0,1.7175,1.9492,2.1691,2.3178,2.3859,2.4378,2.4755,2.591,2.6424,2.5627,0.0,2.5836,2.5063,1.956,1.1696,0.0723,-0.9176,-2.0552,-3.5191,-3.627,-3.3824,-3.012,-2.5454,-2.0466,-1.5682,-1.2248,-0.877,-0.3955,-0.4328,-0.5433,-0.528,-0.497,-0.3899,-0.1755,-0.0096,0.1698,-3.5625,-3.5169,-3.3306,-3.2145,-3.1541,-3.0854,-3.0141,-2.928,-2.8345,-2.9122,-3.0466,-2.1953,-0.5889,1.4516,1.0959,0.0,2.1756,1.2165,0.9708,1.3004,1.5528,1.7038,1.7739,1.9205,2.0016,2.0157,2.0457,2.121,2.2408,2.2498,2.243,2.2325,2.1051,1.9768,1.8374,1.4871,1.2184,1.0364,0.806,0.5776,0.3571,-0.1722,-0.6156,-0.9418,-1.1889,-1.5231,-1.9466,-2.2261,-2.4671,-2.6689,-2.8268,-2.916,-2.939,0.0,0.0,0.0,0.0,0.0,0.0,0.0,0.0,0.0,0.0,0.0,0.0,0.0,0.0,0.0,1.3907,0.0,0.9863,0.9243,0.0,0.0,0.0,1.119,1.2586,1.534,1.7261,1.7651,0.0,0.0,2.3968,2.4898,2.5423,2.5465,2.5292,2.5627,2.69,2.7187,2.7411,2.7875,2.4367,1.9687,1.2966,0.0731,-1.2789,-2.5499,-2.8934,-2.6676,-2.3026,-1.8136,-1.3277,-0.9652,-0.642,-0.2821,0.103,0.2336,0.2038,-0.0941,-0.1038,-0.0279,0.0913,0.2946,0.5155,-3.0652,-2.954,-2.1472,-2.3208,-3.1221,-2.9394,-2.7808,-2.6385,-2.5033,-2.5136,-2.54,-1.227,0.4113,2.1966,1.9782,2.0441,2.2818,1.425,1.178,1.4453,1.5506,1.6527,1.7585,1.8306,1.8827,1.9177,1.9977,2.0748,2.1469,2.2152,2.2037,2.1143,1.9519,1.8032,1.6698,1.4707,1.2007,0.8587,0.6997,0.4448,0.0842,-0.2439,-0.5342,-0.7805,-1.0733,-1.3943,-1.7625,-2.1166,-2.4215,-2.6689,-2.8071,-2.9242,-3.0155,-2.987,0.0,0.0,0.0,0.0,0.0,0.0,0.0,0.0,0.0,0.0409,0.3456,0.0,1.7313,0.0,1.3986,1.2639,1.0709,0.9214,0.0,0.0,0.9884,1.0924,1.4518,1.6633,1.8212,1.9123,2.1163,2.3186,2.4872,2.5429,2.6181,2.7458,2.8359,2.8821,2.858,2.9396,3.0018,2.995,2.9076,2.5115,1.5831,0.4756,-0.4615,-0.9773,-0.9839,-0.8712,-0.8266,-0.6316,-0.3511,-0.0076,0.1865,0.411,0.7028,0.784,0.7894,0.7343,0.5957,0.4922,0.5695,0.7632,0.9481,-2.0093,-1.8574,-1.1898,-1.2599,-1.7843,-1.5081,-1.3174,-1.2012,-1.0545,-1.4305,-2.0072,0.3735,1.8211,2.4658,2.4173,2.3937,2.3584,1.7011,1.4529,1.5536,1.6886,1.7625,1.7712,1.8882,1.9492,1.9577,2.0613,2.1443,2.1993,2.1828,2.1309,2.0518,1.7676,1.5713,1.4607,1.3093,1.0904,0.8112,0.5751,0.3009,-0.0107,-0.2634,-0.5062,-0.7406,-1.0096,-1.3077,-1.6345,-1.9659,-2.2659,-2.5335,-2.7024,-2.8559,-3.0,-3.0032,-2.9756,0.0,0.0,0.0,0.0,0.0,0.0,0.0,0.0,0.0,0.0,0.0,1.7661,1.6053,1.5174,1.4247,1.3172,1.1543,1.1066,1.2264,1.1623,1.2329,1.5211,1.7523,1.9196,1.9976,2.2219,2.4144,2.5374,2.6076,2.6887,2.8142,2.9352,2.9995,2.9736,3.0277,3.0915,3.166,3.1696,2.8445,1.8922,1.1554,0.5218,0.1101,0.0401,0.0791,0.0988,0.2986,0.5277,0.7146,0.8314,0.988,1.2279,1.2626,1.2677,1.3363,1.2891,1.1459,0.985,1.1484,1.3331,-0.8166,-0.6923,-0.393,-0.1485,0.0718,0.4831,0.5924,0.4905,0.6268,-0.0629,-1.1064,2.0725,3.1612,2.6378,2.5994,2.5499,2.4487,1.9578,1.694,1.648,1.8462,1.8853,1.7938,1.984,2.0608,2.045,2.1556,2.242,2.2911,2.1601,2.0575,1.968,1.6027,1.3633,1.2588,1.0967,0.9369,0.7798,0.4449,0.1818,0.0051,-0.2291,-0.4724,-0.7083,-0.9418,-1.2095,-1.517,-1.7823,-2.0564,-2.3317,-2.5446,-2.737,-2.9195,-2.9756,-2.9946,0.0,-2.693,0.0,0.0,0.0,0.0,0.0,0.0,0.0,0.0,1.5064,1.6733,1.7647,1.6782,1.6204,1.6225,1.4874,1.4106,1.4402,1.4304,1.4658,1.5804,1.8403,2.033,2.0859,2.3193,2.5035,2.5997,2.6933,2.7744,2.8592,2.96,3.0328,3.0521,3.056,3.1091,3.2674,3.272,3.0117,2.4295,2.0538,1.6417,1.0132,0.8596,0.7465,0.8379,1.1078,1.3398,1.3356,1.4159,1.5434,1.7312,1.7116,1.712,1.8165,1.8623,1.7546,1.4162,1.4959,1.6648,-0.3326,-0.4812,0.2795,0.7591,1.0759,1.8978,1.6209,0.6142,0.7201,0.9551,1.3629,2.6887,3.263,3.1908,2.7006,2.4988,2.509,1.9442,1.7122,1.7646,1.7559,1.7509,1.7567,1.8762,1.9544,1.9929,2.1433,2.203,2.1765,2.2068,2.0547,1.7267,1.6008,1.4192,1.1785,0.0,0.0,0.0,0.3447,0.1953,0.0633,-0.0867,-0.2627,-0.4794,-0.6941,0.0,-1.2851,-1.5719,-1.8591,-2.1468,-2.3631,0.0,0.0,0.0,0.0,0.0,0.0,0.0,0.0,0.0,0.0,0.0,0.7016,1.0056,1.2611,1.5495,1.7522,1.8372,1.8104,1.7885,1.7969,1.6819,1.6307,1.6937,1.685,1.7259,1.8731,2.044,2.2088,2.3546,2.4663,2.6013,2.7663,2.8366,2.9036,3.0036,3.0808,3.1249,3.1518,3.1329,3.1481,3.2087,3.2534,3.2382,3.1061,2.9863,2.7542,2.5068,2.4081,2.271,2.0662,2.0345,2.1023,2.082,2.1183,2.1242,2.1863,2.1828,2.1524,2.1883,2.2016,2.1161,1.8173,1.9068,2.0367,0.5593,0.0,1.0845,1.4377,0.0,2.2547,2.1455,1.607,1.8223,2.1775,2.6301,2.9382,3.0852,3.0821,2.7156,2.495,2.3898,1.9967,1.7972,1.7584,1.7348,1.7465,1.788,1.9164,1.9944,2.0273,2.206,2.2284,2.1094,2.0996,1.9536,1.6748,1.4826,1.3041,1.1382,0.8862,0.6453,0.4234,0.3224,0.224,0.1082,-0.0464,-0.2093,-0.3862,0.0,0.0,0.0,0.0,0.0,0.0,0.0,0.0,0.0,0.0,0.0,-2.8691,-2.3562,-1.8157,-1.2846,-0.468,0.2681,0.8583,1.2751,1.5058,1.5004,1.6888,1.8462,1.9215,1.913,1.9177,1.947,1.892,1.8748,1.9353,1.9548,2.0055,2.1126,2.2544,2.3848,2.492,2.5853,2.6887,2.8066,2.8716,2.924,2.995,3.0381,3.0753,3.1007,3.1219,3.1428,3.1853,3.2578,3.305,3.3161,3.3083,3.2487,3.0725,3.0119,2.9005,2.6831,2.6021,2.5566,2.4964,2.4486,2.425,2.4545,2.4378,2.4174,2.4281,2.4255,2.3896,2.2417,2.2672,2.2991,1.3187,1.6008,1.6602,1.8202,2.033,2.159,2.335,2.5595,0.0,0.0,0.0,2.9592,2.8209,2.753,2.6267,2.4452,2.2266,2.0296,1.8624,1.7252,1.7316,1.7666,1.8323,1.9768,2.0637,2.0993,2.2718,2.2642,2.0895,1.9963,1.8568,1.663,1.3847,1.1908,1.076,0.8349,0.611,0.4199,0.3435,0.2569,0.1559,-0.0147,-0.1694,-0.3119,-0.5113,-0.7734,-1.0912,-1.2577,-1.5116,-1.8697,-2.0375,-2.2327,-2.4701,-2.6022,-2.6923,-2.7171,-2.016,-1.3877,-0.9444,0.0392,0.8455,1.3543,1.7213,1.8928,1.8081,1.8794,1.9592,2.0355,2.0268,2.0317,2.0879,2.0893,2.101,2.1403,2.2061,2.266,2.3233,2.4555,2.5664,2.6211,2.6993,2.7719,2.8211,2.8891,2.9287,2.9419,2.9829,3.0002,3.0286,3.076,3.1153,3.1565,3.2143,3.2745,3.2778,3.2613,3.2413,3.1603,3.1261,3.0617,2.9326,2.8607,2.7999,2.7009,2.6332,2.6135,2.6386,2.6135,2.5898,2.6152,2.6168,2.6067,2.6067,2.5683,2.5169,1.2422,1.3935,1.4047,1.5753,1.843,1.9356,2.1424,2.4349,2.7038,2.8611,2.9211,2.748,2.6453,2.5882,2.3268,2.1998,2.1572,1.9322,1.7949,1.7378,1.6923,1.7214,1.8158,1.942,2.064,2.1817,2.2646,2.2543,2.1649,2.0788,1.8875,1.6084,1.502,1.2721,0.9282,0.857,0.6987,0.4344,0.395,0.3265,0.2272,0.1029,-0.016,-0.1436,-0.3445,-0.5504,-0.7626,-1.0048,-1.2552,-1.5215,-1.7151,-1.9158,-2.1133,-2.2169,-2.2697,-2.2293,-1.4701,-0.8446,-0.4823,0.458,1.2479,1.7557,1.8571,1.9333,2.0867,2.1021,2.1407,2.2259,2.1743,2.1648,2.2226,2.2304,2.2409,2.2808,2.3867,2.4774,2.4999,2.6255,2.7415,2.8033,2.8304,2.8679,2.9289,2.9702,2.9927,3.0002,3.021,3.0509,3.06,3.076,3.086,3.0923,3.1001,3.107,3.1237,3.0964,3.0916,3.0522,3.0448,3.0198,2.953,2.9203,2.8883,2.853,2.8092,2.7995,2.8066,2.8031,2.7776,2.7776,2.7692,2.7727,2.7699,2.7601,2.7257,1.2474,1.3965,1.3855,1.5018,1.7062,1.8417,2.0278,2.2398,2.329,2.4979,2.6726,2.5135,2.3196,2.1265,2.058,1.9953,1.9293,1.8327,1.772,1.7395,1.765,1.8099,1.8735,2.0094,2.0837,2.108,2.2548,2.23,2.0523,2.0162,1.8843,1.6554,1.4898,1.2397,0.9343,0.8543,0.7328,0.5528,0.4625,0.3642,0.2582,0.1617,0.0524,-0.0704,-0.2183,-0.4141,-0.6754,-0.8175,-1.0108,-1.2726,-1.4082,-1.5552,-1.7156,-1.8448,-1.8782,-1.777,-1.019,-0.4054,-0.0554,0.9839,1.7485,2.0966,2.1121,2.1692,2.3394,2.318,2.2879,2.2737,2.2731,2.2883,2.3199,2.3476,2.3846,2.4254,2.5077,2.5847,2.6662,2.7482,2.8386,2.9156,2.9423,2.9582,2.9926,3.0155,3.0335,3.0385,3.0575,3.0715,3.0739,3.0811,3.0857,3.0819,3.0765,3.0735,3.07,3.065,3.0529,3.0404,3.0251,3.0079,2.9855,2.9693,2.9495,2.9262,2.9005,2.8832,2.8749,2.8737,2.867,2.854,2.8597,2.8597,2.8533,2.8388,2.8027,1.2613,1.4359,1.424,1.505,1.6539,1.795,1.9352,2.043,2.0057,2.1407,2.3526,2.2284,2.0121,1.7841,1.8313,1.8031,1.7162,1.7382,1.7436,1.7369,1.8142,1.8774,1.9352,2.0573,2.0928,2.0764,2.2286,2.1817,1.9781,1.9484,1.8563,1.6852,1.458,1.2328,1.0148,0.9198,0.8078,0.6763,0.5525,0.4282,0.3067,0.2107,0.1086,0.0054,-0.1127,-0.3049,-0.5707,-0.6338,-0.7873,-1.0483,-1.1209,-1.2137,-1.352,-1.4688,-1.4665,-1.2703,-0.5454,0.1508,0.6957,1.5471,2.1503,2.3187,2.3293,2.3755,2.4892,2.475,2.4159,2.3412,2.3591,2.385,2.3955,2.4295,2.4818,2.5303,2.574,2.6488,2.77,2.8346,2.9014,2.9845,3.0197,3.0269,3.0327,3.0435,3.0561,3.0628,3.0738,3.0798,3.0818,3.0859,3.0859,3.0836,3.0821,3.081,3.0749,3.0724,3.0645,3.0535,3.0394,3.0275,3.0144,3.0056,2.9899,2.9677,2.9439,2.924,2.9104,2.9166,2.9148,2.9016,2.9082,2.9086,2.8966,2.8803,2.8482,1.252,1.4001,1.4428,1.5708,1.7379,1.797,1.8382,1.8647,1.8758,1.8955,1.94,1.8648,1.8173,1.7814,1.6659,1.6065,1.591,1.6451,1.6902,1.7262,1.749,1.8395,1.9722,1.9991,2.068,2.1709,2.1637,2.1206,2.0466,1.941,1.7857,1.5866,1.4625,1.3258,1.1724,1.1098,0.9755,0.756,0.675,0.5689,0.4172,0.258,0.1612,0.1334,-0.0503,-0.2068,-0.339,-0.4298,-0.6085,-0.8639,-0.8632,-0.9181,-1.0576,-1.0816,-1.0108,-0.8199,0.0116,0.9549,1.9114,2.1815,2.294,2.3719,2.3867,2.4235,2.5071,2.5114,2.5093,2.4798,2.4392,2.4283,2.4557,2.4716,2.4984,2.543,2.5956,2.6713,2.7865,2.8653,2.9474,3.0333,3.049,3.0564,3.0562,3.0614,3.0693,3.0743,3.078,3.08,3.0801,3.0838,3.0891,3.0878,3.0878,3.0891,3.0864,3.0778,3.0697,3.062,3.0535,3.0443,3.0364,3.0222,3.0047,2.9958,2.9813,2.9605,2.957,2.9644,2.9607,2.9475,2.9494,2.957,2.9532,2.9416,2.9111,1.3124,1.4356,1.4347,1.525,1.6655,1.6896,1.7137,1.741,1.6857,1.7063,1.7505,1.5997,1.4801,1.4072,1.4665,1.5095,1.5227,1.6114,1.6972,1.7785,1.8722,1.9368,1.9688,2.1161,2.1464,2.0666,2.0619,2.0497,2.0005,1.8941,1.7632,1.626,1.5152,1.3865,1.2444,1.1592,1.0311,0.85,0.7691,0.6646,0.5381,0.3666,0.2457,0.1729,0.0552,-0.0669,-0.1838,-0.2765,-0.3966,-0.5516,-0.5682,-0.6169,-0.73,-0.6729,-0.5972,-0.4559,0.4387,1.3688,2.2208,2.2922,2.3382,2.432,2.43,2.4503,2.5062,2.505,2.508,2.5196,2.4943,2.503,2.5704,2.5822,2.608,2.6728,2.7122,2.7637,2.869,2.9089,2.9687,3.0496,3.0703,3.0723,3.0712,3.0702,3.0741,3.0775,3.0786,3.0786,3.0792,3.0808,3.0849,3.0855,3.0879,3.0897,3.0894,3.0864,3.0774,3.0672,3.0639,3.0598,3.0462,3.0411,3.0294,3.015,2.9988,2.9848,2.9696,2.9765,2.9801,2.9732,2.9644,2.9626,2.9608,2.9608,2.9358,1.3579,1.4238,1.4262,1.4888,1.5803,1.5669,1.5921,1.6287,1.5398,1.5366,1.5751,1.4424,1.3403,1.2858,1.3957,1.4619,1.5037,1.6218,1.741,1.8555,1.9778,2.0135,2.0045,2.1649,2.1655,2.0083,2.0096,1.9949,1.9354,1.845,1.7464,1.6481,1.5608,1.4538,1.3301,1.226,1.1148,0.9826,0.8741,0.7733,0.6596,0.5101,0.3721,0.2626,0.1543,0.0391,-0.0837,-0.1285,-0.1955,-0.2896,-0.2943,-0.3329,-0.4171,-0.3306,-0.2078,0.0049,0.7807,1.552,2.1739,2.288,2.3763,2.4683,2.474,2.4839,2.5107,2.5128,2.5177,2.533,2.5331,2.5635,2.623,2.6569,2.7023,2.7691,2.7842,2.8353,2.9233,2.9394,2.9726,3.0566,3.072,3.0745,3.0718,3.0703,3.0685,3.0759,3.0774,3.0778,3.0774,3.0781,3.0794,3.0804,3.0855,3.0879,3.0917,3.0913,3.0841,3.0751,3.0682,3.0601,3.0518,3.0472,3.0432,3.0222,3.0122,3.0047,2.9962,2.9962,2.9981,2.9817,2.9769,2.9769,2.982,2.9769,2.9734,1.3597,1.3687,1.4412,1.4888,1.5196,1.4705,1.4867,1.5608,1.481,1.4029,1.3567,1.4414,1.5268,1.5842,1.4983,1.4722,1.5425,1.6796,1.8138,1.936,1.9954,2.0465,2.0926,2.1247,2.1054,2.0309,2.0002,1.9517,1.8664,1.7946,1.7092,1.6107,1.5944,1.5355,1.4305,1.3542,1.2696,1.1347,1.0063,0.8912,0.7854,0.6906,0.5645,0.4242,0.2233,0.0894,0.0167,0.0056,-0.0335,-0.1275,-0.0668,-0.0724,-0.1554,-0.0885,0.1544,0.5964,1.0582,1.507,1.9269,2.2403,2.4399,2.5062,2.5343,2.5482,2.5396,2.5438,2.5479,2.5551,2.5529,2.5636,2.5687,2.628,2.6874,2.7205,2.7725,2.8455,2.9328,2.9476,2.9717,3.0388,3.054,3.0458,3.0522,3.0613,3.0575,3.0646,3.0704,3.0698,3.0728,3.0769,3.0784,3.0782,3.081,3.0835,3.0898,3.0915,3.0849,3.0771,3.0696,3.0581,3.0488,3.0413,3.0356,3.0304,3.0254,3.0215,3.0188,3.018,3.0152,3.0109,3.0079,3.0098,3.0003,3.0109,3.0049,1.2241,1.3397,1.3783,1.445,1.5129,1.4951,1.5119,1.5454,1.5049,1.4419,1.4,1.5229,1.628,1.6839,1.6942,1.6777,1.6539,1.757,1.8674,1.9671,2.0,2.0224,2.0379,2.04,2.0348,2.0124,1.9532,1.8892,1.8288,1.7544,1.6967,1.6514,1.6032,1.5334,1.4547,1.4071,1.3188,1.1787,1.1012,1.0216,0.9154,0.8165,0.7372,0.6699,0.4146,0.272,0.2824,0.1615,0.0782,0.0611,0.0669,0.0558,0.0334,0.1146,0.3206,0.6882,1.0786,1.4641,1.8294,2.2053,2.4542,2.5298,2.5515,2.5576,2.5552,2.5554,2.5405,2.5041,2.5351,2.5389,2.5086,2.5588,2.6749,2.8158,2.8223,2.8573,2.9752,3.0067,3.0149,3.0379,3.0067,2.9627,2.9583,2.9612,2.9873,3.0394,3.0548,3.0543,3.063,3.0685,3.0626,3.0728,3.0759,3.0799,3.0829,3.0879,3.0855,3.0827,3.0765,3.0672,3.0586,3.0509,3.0442,3.0336,3.0318,3.0305,3.0247,3.0207,3.0226,3.0204,3.0204,3.0098,3.0147,2.9874,2.9865,1.1682,1.3044,1.3521,1.4192,1.4934,1.512,1.5567,1.6124,1.5847,1.5528,1.5576,1.6662,1.7743,1.8687,1.9019,1.8879,1.8357,1.8644,1.9119,1.9782,2.0086,2.0243,2.0258,2.0237,2.0337,2.0325,1.9569,1.881,1.8058,1.7392,1.6931,1.657,1.5901,1.5289,1.4697,1.4176,1.3246,1.2209,1.1674,1.0981,1.0226,0.9429,0.8947,0.8574,0.6352,0.4798,0.4594,0.3111,0.2397,0.2508,0.223,0.2011,0.2228,0.2732,0.3929,0.6202,0.9182,1.2779,1.6562,2.0244,2.3203,2.5357,2.5609,2.5632,2.5632,2.5632,2.5223,2.4765,2.4799,2.491,2.4538,2.4564,2.5754,2.7951,2.8191,2.8385,2.9429,2.9505,2.9426,2.9312,2.8893,2.8572,2.8498,2.8492,2.879,2.9437,2.949,2.9569,2.996,2.9833,3.0042,3.0388,3.0328,3.0433,3.0586,3.0732,3.0682,3.0644,3.0227,3.029,3.0469,3.0447,3.0141,3.0194,3.0155,3.0234,3.0248,3.0184,3.0049,2.9883,3.0004,2.9845,2.9673,2.9385,2.8348,1.2033,1.2644,1.36,1.4145,1.4563,1.5008,1.6108,1.7246,1.6917,1.7043,1.7623,1.8402,1.9747,2.138,2.0683,2.0514,2.0474,1.9778,1.9575,1.9936,2.0356,2.0495,2.0472,2.0744,2.0931,2.1057,2.0217,1.9125,1.8022,1.7492,1.6945,1.6291,1.579,1.5383,1.512,1.4026,1.3152,1.2666,1.1986,1.1418,1.1065,1.0541,1.0226,1.0056,0.8672,0.7116,0.5283,0.4648,0.4388,0.4515,0.4015,0.3907,0.3947,0.3868,0.3917,0.4541,0.6292,0.9662,1.3855,1.7013,2.0855,2.3806,2.5273,2.4897,2.4883,2.4977,2.4791,2.4541,2.4368,2.4292,2.4121,2.3666,2.4265,2.6262,2.7277,2.758,2.7758,2.7681,2.757,2.7533,2.7376,2.7395,2.7361,2.7263,2.7388,2.7628,2.7699,2.789,2.8572,2.8338,2.8567,2.9486,2.9589,2.9399,3.0004,3.0567,3.0482,3.032,2.9746,2.9482,2.984,2.9874,2.8568,2.823,2.6888,2.6945,2.8279,2.8157,2.7655,2.7628,2.8365,2.7998,2.6859,2.5715,2.4873,1.1204,1.1833,1.2187,1.3283,1.465,1.5052,1.6064,1.749,1.7534,1.7833,1.8458,1.9393,2.082,2.1985,2.1599,2.114,2.0849,2.0349,2.0243,2.0527,2.0956,2.086,2.0549,2.0746,2.0569,1.9943,1.9382,1.8774,1.8126,1.7775,1.7441,1.7119,1.6515,1.601,1.5477,1.4479,1.3631,1.301,1.2463,1.2026,1.1678,1.1326,1.1116,1.0854,1.0115,0.9155,0.8199,0.6548,0.5756,0.5723,0.5058,0.4682,0.4542,0.4403,0.4121,0.4203,0.6711,0.9028,1.143,1.5412,1.8483,2.0228,2.0643,2.1067,2.1636,2.1417,2.2134,2.3681,2.4151,2.4068,2.4002,2.4162,2.4767,2.632,2.6125,2.6359,2.7039,2.7164,2.6897,2.6328,2.6075,2.5986,2.5912,2.582,2.5894,2.6377,2.6562,2.6892,2.7076,2.7048,2.7323,2.8284,2.8146,2.8135,2.8474,2.8517,2.8275,2.8011,2.7658,2.7457,2.8058,2.8123,2.6914,2.5703,2.4346,2.4223,2.5551,2.5772,2.5123,2.4101,2.3671,2.2989,2.2115,2.1885,2.202,1.0815,1.1373,1.1849,1.2984,1.465,1.5477,1.6518,1.7623,1.817,1.8495,1.8902,2.0039,2.1135,2.1988,2.1903,2.1549,2.1018,2.0871,2.0812,2.0876,2.1069,2.0883,2.052,2.0936,2.0695,1.99,1.9551,1.9054,1.8396,1.8239,1.7934,1.74,1.6825,1.6165,1.5515,1.4646,1.3824,1.3441,1.3086,1.274,1.2483,1.2216,1.206,1.1904,1.1425,1.0878,1.0234,0.8721,0.7538,0.6884,0.6262,0.5887,0.5553,0.5422,0.5157,0.5056,0.6191,0.7968,1.0033,1.2766,1.5585,1.672,1.7248,1.769,1.8584,1.8735,2.0536,2.189,2.3111,2.3561,2.3601,2.3766,2.4422,2.5197,2.5035,2.5129,2.5937,2.5838,2.5502,2.4905,2.4598,2.4457,2.4357,2.415,2.4177,2.4676,2.4878,2.5226,2.5321,2.5531,2.6155,2.6783,2.7169,2.7028,2.6809,2.6467,2.6,2.5512,2.5041,2.4909,2.5101,2.4955,2.4189,2.306,2.1807,2.1662,2.2701,2.2407,2.1846,2.059,1.992,2.0297,2.0624,2.1214,2.0885,1.0866,1.1254,1.2458,1.3339,1.4387,1.6089,1.7202,1.7952,1.8655,1.8931,1.9211,2.0218,2.1086,2.1439,2.1766,2.1641,2.1431,2.1274,2.1124,2.0919,2.0826,2.0661,2.0808,2.1103,2.0898,2.0539,2.0267,1.9724,1.8821,1.8634,1.8215,1.722,1.6554,1.5902,1.5311,1.4487,1.4082,1.3955,1.3692,1.3483,1.3366,1.3177,1.3068,1.3005,1.2587,1.2112,1.1461,1.0766,0.9663,0.8039,0.7615,0.7404,0.7051,0.6998,0.6792,0.6187,0.5238,0.6737,0.8867,0.9395,1.0815,1.4162,1.4633,1.5541,1.6266,1.7878,1.9369,2.0282,2.1799,2.2885,2.2933,2.2978,2.3157,2.343,2.4007,2.4266,2.3963,2.3743,2.3665,2.3463,2.3094,2.2825,2.2845,2.2488,2.2382,2.247,2.2563,2.3118,2.3509,2.4077,2.4582,2.5205,2.592,2.5675,2.5381,2.5067,2.4377,2.2643,2.2734,2.3493,2.311,2.2825,2.3136,2.1839,1.9463,1.9435,1.9536,1.9498,1.9196,1.848,1.8484,1.9019,1.9104,1.9098,1.8879,1.1255,1.1685,1.2282,1.3278,1.4455,1.5525,1.6698,1.7843,1.8116,1.8496,1.8863,1.98,2.0701,2.1345,2.1505,2.152,2.1375,2.118,2.1019,2.0795,2.0492,2.0633,2.0828,2.0617,2.0308,2.0055,1.9798,1.9334,1.8665,1.8512,1.806,1.7328,1.6689,1.624,1.5873,1.5024,1.4564,1.4395,1.408,1.3758,1.3551,1.3496,1.3341,1.3232,1.304,1.2712,1.2121,1.1406,1.0251,0.8591,0.8965,0.8831,0.8155,0.8462,0.8438,0.776,0.7062,0.6668,0.7189,0.7018,0.7769,0.9522,1.0737,1.1455,1.4206,1.5221,1.748,1.997,2.1844,2.2311,2.2826,2.2892,2.2811,2.2673,2.3135,2.3392,2.3047,2.2828,2.2702,2.2531,2.2023,2.1773,2.1562,2.139,2.1162,2.1241,2.1596,2.2034,2.2373,2.3158,2.3899,2.4098,2.4507,2.4184,2.3894,2.3639,2.2512,2.0159,2.0642,2.2831,2.2419,2.2057,2.2811,2.3094,1.7963,1.6473,1.7085,1.7441,1.6878,1.6791,1.6688,1.694,1.5662,1.5215,1.5969,1.1684,1.1988,1.2634,1.3468,1.4542,1.5603,1.6652,1.7457,1.7963,1.8167,1.8567,1.927,2.0194,2.1064,2.099,2.1033,2.1082,2.0885,2.0736,2.0636,2.0258,2.0295,2.0396,2.0016,1.9823,1.9747,1.9303,1.8975,1.8685,1.8333,1.7788,1.718,1.6821,1.6379,1.5861,1.5424,1.5039,1.4886,1.4637,1.4363,1.4138,1.4148,1.3988,1.3856,1.3743,1.3546,1.3107,1.2389,1.1246,1.0038,1.0058,1.0086,0.9601,0.987,0.9971,0.9555,0.88,0.8224,0.786,0.7255,0.7421,0.8496,0.8858,1.0319,1.2722,1.4129,1.687,1.9305,2.0827,2.1764,2.2211,2.2275,2.2035,2.1807,2.2073,2.231,2.2173,2.2146,2.2023,2.177,2.1436,2.0987,2.0732,2.0553,2.0377,2.0343,2.0771,2.1089,2.1408,2.2415,2.3201,2.3459,2.3787,2.3754,2.3463,2.3152,2.2697,2.0279,2.0044,2.2091,2.1816,2.1268,2.0788,2.0227,1.6243,1.426,1.5775,1.661,1.6203,1.5945,1.5385,1.5302,1.4877,1.4721,1.4945,1.2134,1.2297,1.3304,1.3957,1.456,1.614,1.6832,1.7179,1.7799,1.8127,1.8278,1.8815,1.9648,2.055,2.0386,2.0485,2.0699,2.0549,2.0511,2.0347,2.008,1.9978,1.9862,1.9811,1.9708,1.9592,1.8922,1.8655,1.8375,1.7952,1.7335,1.6708,1.6549,1.6208,1.5633,1.5381,1.541,1.5313,1.5206,1.5052,1.4877,1.4828,1.4634,1.4449,1.4566,1.4508,1.4191,1.3593,1.2651,1.1339,1.132,1.1312,1.1199,1.1347,1.139,1.1238,1.0591,1.0091,1.0009,0.9398,0.9279,0.9938,1.0029,1.0648,1.2613,1.4716,1.6703,1.8179,1.9931,2.1128,2.1573,2.1389,2.1392,2.1375,2.1279,2.1341,2.157,2.154,2.1388,2.1294,2.105,2.0579,2.0225,2.0028,1.9953,1.978,2.0268,2.0922,2.1431,2.2379,2.2819,2.2968,2.3266,2.3576,2.3223,2.279,2.2308,2.1213,2.1097,2.1815,2.1282,2.0402,1.8623,1.7068,1.7046,1.6776,1.6688,1.6797,1.6488,1.6752,1.7279,1.7115,1.6826,1.6837,1.7014,1.2669,1.3086,1.3692,1.4341,1.5059,1.5826,1.6524,1.7123,1.7145,1.759,1.8018,1.8387,1.897,1.9701,1.9861,2.0169,2.0448,2.0347,2.0233,2.0093,1.9823,1.9668,1.9656,1.9643,1.9656,1.9344,1.8804,1.8201,1.7655,1.7045,1.6312,1.5874,1.5874,1.5642,1.5468,1.542,1.542,1.542,1.5362,1.5264,1.5156,1.5098,1.4911,1.4715,1.4864,1.504,1.5013,1.4611,1.4063,1.3566,1.3204,1.3012,1.2814,1.2785,1.2767,1.2707,1.2223,1.1779,1.1715,1.1444,1.1255,1.1471,1.1787,1.2416,1.3471,1.5314,1.6968,1.8152,1.9602,2.0704,2.1431,2.1639,2.1689,2.1748,2.1577,2.1381,2.1396,2.1159,2.0905,2.071,2.0406,1.9829,1.9617,1.9546,1.9471,1.936,1.9978,2.0883,2.1629,2.235,2.2671,2.2891,2.3052,2.3346,2.3098,2.2745,2.239,2.1974,2.1955,2.1988,2.1424,2.1179,2.0073,1.9949,2.0263,1.9712,1.8614,1.8766,1.8787,1.9044,1.912,1.8766,1.8525,1.8691,1.8792,1.3078,1.345,1.4231,1.4824,1.5352,1.6009,1.6591,1.6976,1.7032,1.7256,1.7645,1.7799,1.8344,1.917,1.9291,1.9643,2.0093,2.0029,1.9875,1.9772,1.9565,1.9396,1.9279,1.9436,1.9408,1.891,1.805,1.7435,1.6933,1.6436,1.5951,1.5604,1.5546,1.5536,1.542,1.542,1.542,1.542,1.541,1.5313,1.5215,1.5205,1.5088,1.4777,1.4713,1.4716,1.483,1.4949,1.4759,1.4661,1.4804,1.46,1.4179,1.4223,1.442,1.4352,1.3991,1.3584,1.3394,1.309,1.2955,1.3184,1.3453,1.4301,1.5159,1.6358,1.7557,1.8853,1.9642,2.0131,2.1147,2.163,2.1894,2.207,2.1872,2.1605,2.1371,2.0963,2.0625,2.0652,2.0743,2.0355,2.0021,1.9753,1.9611,1.9752,2.0443,2.1279,2.1569,2.2251,2.2834,2.3054,2.3084,2.3083,2.2934,2.274,2.2589,2.2381,2.2331,2.2434,2.2317,2.2317,2.2285,2.1946,2.1301,2.128,2.0453,2.0743,2.0766,2.0864,2.0703,2.0319,2.0105,2.0233,2.0332,1.3442,1.3683,1.4697,1.5294,1.5594,1.6306,1.6705,1.6874,1.6976,1.7099,1.7267,1.719,1.7655,1.8328,1.8673,1.9109,1.95,1.9512,1.9291,1.9109,1.8975,1.8655,1.8478,1.8495,1.8454,1.8086,1.7468,1.6989,1.6687,1.6171,1.572,1.5672,1.5672,1.5536,1.541,1.542,1.542,1.542,1.541,1.5362,1.5264,1.5313,1.5205,1.4963,1.4666,1.4535,1.4817,1.5144,1.5355,1.5164,1.6126,1.5944,1.5446,1.5401,1.5941,1.5815,1.5363,1.4956,1.4633,1.4401,1.4275,1.4764,1.4812,1.554,1.6663,1.7313,1.8344,1.931,2.0094,2.0174,2.097,2.168,2.2122,2.2243,2.2094,2.1799,2.1535,2.0917,2.0705,2.0818,2.0839,2.0492,2.0534,2.0476,2.0271,2.0282,2.1013,2.1532,2.1794,2.2205,2.2819,2.3024,2.2963,2.2888,2.2692,2.2601,2.2509,2.254,2.254,2.2632,2.2754,2.2618,2.242,2.2142,2.1718,2.1779,2.1813,2.1785,2.1927,2.2324,2.203,2.1307,2.1377,2.1749,2.1765,1.4028,1.413,1.4784,1.5264,1.5672,1.5961,1.6363,1.6705,1.6591,1.6807,1.7145,1.6976,1.6749,1.6929,1.7947,1.8471,1.8697,1.859,1.8363,1.8124,1.7961,1.7673,1.7337,1.7283,1.6968,1.7002,1.7038,1.7058,1.6567,1.5928,1.5642,1.5536,1.5478,1.541,1.541,1.542,1.542,1.542,1.542,1.5352,1.5362,1.5216,1.5186,1.5099,1.4869,1.4849,1.5149,1.5792,1.602,1.5592,1.6494,1.6769,1.6503,1.6158,1.6202,1.6287,1.6131,1.5866,1.5636,1.5312,1.5141,1.5247,1.5418,1.6053,1.7087,1.7938,1.882,1.9894,2.0785,2.127,2.214,2.2301,2.2602,2.2725,2.2435,2.1971,2.1571,2.1211,2.0953,2.1155,2.0938,2.0753,2.0923,2.1091,2.0945,2.1077,2.1705,2.1945,2.1999,2.2448,2.301,2.2949,2.2754,2.2632,2.2495,2.2417,2.237,2.254,2.2572,2.2586,2.2618,2.248,2.2282,2.2328,2.2434,2.2572,2.2618,2.2618,2.2678,2.2752,2.2477,2.2091,2.2345,2.2609,2.2972,1.4465,1.4666,1.502,1.5439,1.5788,1.5961,1.6181,1.64,1.6431,1.6545,1.6715,1.6648,1.6824,1.7082,1.728,1.7722,1.7875,1.782,1.7644,1.7424,1.7357,1.7059,1.6721,1.6557,1.6427,1.6514,1.6851,1.7169,1.6892,1.6224,1.5911,1.5806,1.5584,1.542,1.542,1.542,1.541,1.541,1.541,1.542,1.5381,1.5032,1.4936,1.4974,1.4639,1.4439,1.4824,1.5594,1.585,1.5814,1.6874,1.7383,1.7315,1.7176,1.7014,1.6991,1.6852,1.6633,1.6361,1.6029,1.598,1.6249,1.622,1.6761,1.7609,1.8358,1.9012,2.0071,2.1629,2.2217,2.2075,2.2453,2.2614,2.255,2.2361,2.2083,2.1707,2.1398,2.1425,2.1472,2.1374,2.1354,2.1439,2.1518,2.1523,2.1865,2.24,2.2395,2.2296,2.2632,2.3098,2.2963,2.2783,2.2692,2.2615,2.2523,2.237,2.2495,2.2663,2.2678,2.2768,2.2709,2.2889,2.3083,2.3231,2.3231,2.3038,2.2844,2.3023,2.3097,2.2783,2.2701,2.3083,2.3459,2.3851,1.4754,1.5093,1.5342,1.5604,1.5914,1.6056,1.6114,1.6181,1.6316,1.6374,1.6374,1.6374,1.6797,1.7324,1.7157,1.6989,1.7157,1.709,1.6978,1.6821,1.6754,1.6553,1.6346,1.6437,1.639,1.6319,1.6644,1.7159,1.7213,1.6743,1.6482,1.6197,1.5748,1.5584,1.5642,1.5526,1.5468,1.5526,1.541,1.542,1.5264,1.4907,1.4735,1.5021,1.4251,1.4165,1.4598,1.5673,1.6009,1.6286,1.7084,1.7997,1.7797,1.7974,1.7997,1.7728,1.7699,1.7496,1.7143,1.6828,1.6818,1.7152,1.7039,1.7759,1.8626,1.9105,1.9316,2.0284,2.1622,2.2539,2.1983,2.2257,2.2289,2.2021,2.2002,2.2044,2.1774,2.1627,2.1784,2.1806,2.1835,2.189,2.1969,2.1909,2.1917,2.2388,2.2921,2.2801,2.2723,2.2797,2.3082,2.2992,2.2857,2.2857,2.2766,2.2675,2.2523,2.2449,2.2678,2.2859,2.2994,2.3083,2.3304,2.3538,2.3581,2.3538,2.3304,2.3186,2.3393,2.3422,2.3156,2.3343,2.392,2.4307,2.4644,1.5063,1.5308,1.5546,1.5798,1.5924,1.6077,1.6192,1.6337,1.6394,1.6374,1.6384,1.6192,1.6181,1.6296,1.6492,1.6425,1.6425,1.6425,1.6197,1.5921,1.5796,1.5636,1.5177,1.5031,1.6022,1.6407,1.6677,1.7079,1.751,1.7357,1.6866,1.6461,1.6358,1.6197,1.614,1.5864,1.569,1.6036,1.57,1.541,1.5342,1.5158,1.5158,1.5352,1.5339,1.5322,1.5361,1.6358,1.6852,1.6773,1.7668,1.8201,1.8135,1.8244,1.8344,1.8286,1.8274,1.8186,1.7924,1.7634,1.7654,1.7903,1.8067,1.8832,1.9585,2.0536,2.0894,2.1117,2.2021,2.21,2.1774,2.2058,2.1846,2.163,2.1532,2.1619,2.1506,2.169,2.186,2.2052,2.2046,2.2311,2.2517,2.2395,2.2346,2.292,2.3319,2.3157,2.3068,2.3082,2.3037,2.2947,2.2902,2.2872,2.2826,2.2766,2.2752,2.2555,2.2814,2.3038,2.3216,2.3436,2.3668,2.3797,2.3839,2.3754,2.3494,2.3467,2.3733,2.3674,2.3408,2.4042,2.4941,2.5232,2.5311,1.5866,1.575,1.5939,1.6148,1.6236,1.6178,1.6267,1.642,1.6304,1.628,1.6321,1.6107,1.5904,1.5904,1.6218,1.6197,1.5864,1.5806,1.569,1.5468,1.54,1.5303,1.531,1.5525,1.6189,1.6765,1.7353,1.7886,1.8155,1.7972,1.7534,1.7302,1.6978,1.681,1.681,1.6539,1.6585,1.6585,1.6255,1.5748,1.54,1.5109,1.5186,1.5786,1.5652,1.5843,1.643,1.7004,1.7745,1.7809,1.8429,1.8834,1.9151,1.9174,1.8987,1.901,1.938,1.9215,1.8607,1.8206,1.8343,1.8702,1.8995,1.9272,2.0285,2.111,2.1589,2.1307,2.1827,2.1841,2.1382,2.1623,2.1466,2.1316,2.127,2.155,2.1613,2.169,2.1888,2.2062,2.2365,2.2949,2.3314,2.3126,2.3195,2.3593,2.3658,2.3289,2.3096,2.2992,2.2992,2.2888,2.2902,2.2872,2.2872,2.2826,2.2933,2.2873,2.3068,2.3334,2.3523,2.3754,2.4,2.3927,2.3797,2.3711,2.3596,2.3612,2.3747,2.3703,2.3644,2.4459,2.5275,2.5375,2.5589,1.6505,1.6221,1.6187,1.6267,1.6356,1.6141,1.6171,1.6365,1.6151,1.6107,1.6138,1.5934,1.573,1.573,1.5989,1.5864,1.5468,1.542,1.542,1.542,1.542,1.541,1.5477,1.5823,1.6384,1.7202,1.7467,1.8112,1.8566,1.8548,1.8267,1.8093,1.7589,1.7424,1.7379,1.7157,1.7034,1.6754,1.6415,1.5968,1.5467,1.5241,1.5528,1.591,1.6119,1.6358,1.7158,1.7722,1.8334,1.8756,1.8861,1.9215,1.9696,1.9521,1.925,1.9215,1.9456,1.9523,1.9095,1.8869,1.9016,1.9214,1.9535,1.9584,2.0328,2.114,2.1251,2.0746,2.1286,2.1237,2.1082,2.1274,2.1395,2.1355,2.1287,2.1629,2.1946,2.2244,2.2824,2.3541,2.3932,2.4295,2.4436,2.4009,2.4069,2.4332,2.4099,2.3493,2.3198,2.3051,2.2933,2.2888,2.2888,2.2947,2.3112,2.3068,2.3142,2.3275,2.3465,2.3668,2.3885,2.4134,2.4356,2.4195,2.3945,2.4126,2.4323,2.3966,2.3744,2.4149,2.4552,2.4908,2.5399,2.5622,2.599,1.6661,1.6631,1.5999,1.5751,1.582,1.5866,1.5934,1.6065,1.5974,1.5876,1.5838,1.5565,1.5459,1.5468,1.5526,1.5526,1.542,1.542,1.542,1.542,1.542,1.542,1.5546,1.5788,1.6228,1.7112,1.7812,1.8452,1.8822,1.9162,1.8654,1.8159,1.8219,1.8084,1.7965,1.7812,1.7199,1.6828,1.642,1.6114,1.5816,1.5783,1.6203,1.6543,1.728,1.7907,1.7897,1.8402,1.8912,1.9418,1.9427,1.9542,1.9918,1.9731,1.9483,1.9273,1.9321,1.9479,1.9353,1.9372,1.9239,1.9238,1.9438,1.9915,2.027,2.0283,2.0195,2.0194,2.0908,2.1046,2.0974,2.1054,2.1524,2.1706,2.1812,2.2,2.2444,2.3007,2.3665,2.4847,2.5273,2.527,2.5624,2.5249,2.4833,2.5046,2.4432,2.381,2.3298,2.3078,2.2976,2.2888,2.2888,2.3053,2.3436,2.3508,2.3465,2.3696,2.3952,2.4055,2.4231,2.4484,2.4732,2.4554,2.4364,2.4665,2.4787,2.4353,2.4267,2.4941,2.5373,2.5508,2.606,2.6583,2.6847,1.6718,1.6641,1.5851,1.5694,1.6049,1.5976,1.6006,1.6108,1.6128,1.6069,1.59,1.5596,1.541,1.542,1.542,1.542,1.542,1.542,1.542,1.542,1.542,1.542,1.5644,1.6366,1.7166,1.7544,1.8441,1.8987,1.8994,1.9607,1.9648,1.9302,1.9109,1.914,1.9022,1.8589,1.7898,1.7081,1.6723,1.6448,1.6093,1.6197,1.6641,1.7479,1.7633,1.8309,1.8595,1.9119,1.9646,1.9972,2.0115,2.0282,2.0425,2.0213,1.9853,1.949,1.9586,1.9653,1.9426,1.9617,1.975,2.0079,2.0409,2.0636,2.0361,2.0707,2.0785,2.0862,2.1002,2.1289,2.176,2.189,2.2085,2.2276,2.2403,2.2502,2.2892,2.3506,2.4003,2.4943,2.5356,2.5508,2.6059,2.6537,2.6069,2.5669,2.4889,2.4185,2.3702,2.3412,2.3351,2.3327,2.3327,2.3496,2.3879,2.3889,2.387,2.4246,2.459,2.4844,2.5124,2.4866,2.5037,2.4859,2.4906,2.5151,2.5091,2.4638,2.4761,2.5348,2.5631,2.5749,2.6467,2.732,2.7434,1.7017,1.6836,1.6113,1.588,1.6029,1.5989,1.6088,1.6236,1.6343,1.6294,1.6045,1.5732,1.5518,1.5449,1.542,1.542,1.542,1.542,1.5478,1.5537,1.5606,1.5645,1.6216,1.694,1.7728,1.8145,1.9183,1.9912,1.9648,2.0387,2.0306,2.0129,2.0165,2.01,1.9573,1.9483,1.8764,1.769,1.7483,1.7028,1.6591,1.6554,1.6942,1.7902,1.8191,1.8698,1.9202,1.9756,2.0286,2.0646,2.0875,2.0984,2.1127,2.1007,2.0502,2.0237,2.0153,2.0117,1.9625,1.9589,1.987,1.99,2.0615,2.0656,2.0695,2.0963,2.0961,2.1012,2.1437,2.1911,2.2278,2.2289,2.2483,2.2644,2.2674,2.2783,2.3425,2.4006,2.4428,2.4957,2.5522,2.6286,2.6217,2.6704,2.6565,2.6107,2.5539,2.4912,2.437,2.4152,2.4109,2.4043,2.3961,2.4148,2.4356,2.4909,2.5422,2.5843,2.6143,2.615,2.6198,2.603,2.6122,2.6444,2.6398,2.5925,2.6016,2.6336,2.6046,2.5772,2.6086,2.6456,2.6722,2.7455,2.7565,1.7694,1.7314,1.6846,1.6201,1.5644,1.5949,1.6135,1.6243,1.6494,1.6484,1.6262,1.6115,1.5791,1.5527,1.5469,1.542,1.542,1.542,1.5478,1.5615,1.5733,1.6088,1.6708,1.7363,1.8213,1.8888,1.9817,2.0534,2.0442,2.0933,2.0849,2.0732,2.0889,2.0653,1.9606,1.9502,1.8835,1.7842,1.8248,1.7626,1.7083,1.697,1.7536,1.8021,1.8759,1.9356,1.961,2.0273,2.0791,2.1127,2.1344,2.1416,2.1344,2.1344,2.0827,2.0045,2.037,2.0298,1.9896,1.986,1.9806,1.9662,2.0507,2.0637,2.0238,2.0494,2.1075,2.1188,2.1405,2.18,2.2069,2.2411,2.2819,2.3166,2.3224,2.3377,2.4008,2.4394,2.4745,2.5232,2.6491,2.7377,2.6946,2.6708,2.6728,2.6486,2.6118,2.5604,2.5052,2.4849,2.4776,2.4601,2.4508,2.4819,2.5198,2.6337,2.698,2.7442,2.7535,2.7442,2.7622,2.7804,2.7975,2.8161,2.7929,2.7527,2.7972,2.848,2.7677,2.6925,2.7112,2.739,2.752,2.7565,2.766,1.7734,1.7344,1.6914,1.65,1.6318,1.6436,1.6514,1.6533,1.667,1.6797,1.6777,1.6439,1.6076,1.5801,1.5527,1.542,1.542,1.542,1.5478,1.5508,1.5664,1.5938,1.6622,1.779,1.8627,1.9329,2.0276,2.095,2.0586,2.1536,2.162,2.15,2.1407,2.1058,2.0138,1.9497,1.8574,1.776,1.7738,1.7597,1.7439,1.7788,1.8235,1.8553,1.9402,1.9894,1.9997,2.0706,2.1235,2.1488,2.1656,2.174,2.1536,2.1452,2.1091,2.0478,2.061,2.055,2.0478,2.0571,2.0621,2.0496,2.06,2.086,2.0483,2.1252,2.1485,2.1528,2.1699,2.2268,2.3083,2.327,2.3599,2.4129,2.4271,2.4226,2.4567,2.4738,2.5078,2.5631,2.6626,2.6996,2.6849,2.6731,2.6748,2.6913,2.6649,2.6221,2.5733,2.5537,2.5436,2.5068,2.4996,2.5371,2.6014,2.7344,2.8107,2.8451,2.8498,2.837,2.8719,2.9368,2.919,2.9088,2.9123,2.9239,2.9062,2.8874,2.8583,2.824,2.8096,2.7855,2.771,2.771,2.7775,1.7866,1.7568,1.7305,1.7113,1.7148,1.7021,1.7031,1.7148,1.7168,1.7217,1.7115,1.6596,1.6084,1.583,1.5566,1.542,1.542,1.542,1.5478,1.5537,1.5801,1.6228,1.7061,1.8287,1.9276,1.9973,2.1258,2.2115,2.1656,2.2805,2.2874,2.2381,2.1823,2.1369,2.0688,2.015,1.9391,1.8817,1.8689,1.8462,1.8385,1.8582,1.8907,1.9264,1.9865,2.0486,2.0649,2.1079,2.1668,2.1777,2.1885,2.2029,2.1753,2.1608,2.1392,2.1055,2.0694,2.0754,2.0935,2.1103,2.1061,2.0925,2.1416,2.1391,2.1124,2.164,2.1919,2.2079,2.225,2.2676,2.3267,2.3458,2.3741,2.4266,2.4279,2.4163,2.4781,2.4951,2.537,2.5948,2.6451,2.6717,2.6794,2.677,2.6799,2.7026,2.7157,2.6782,2.6579,2.6703,2.6674,2.647,2.6673,2.7425,2.7936,2.858,2.9208,2.9438,2.9529,2.9535,3.0135,3.0792,3.0365,3.0099,3.0455,3.0468,2.9582,2.9098,2.8955,2.871,2.8511,2.8191,2.7871,2.7886,2.7996,1.7998,1.8008,1.8008,1.7969,1.791,1.7549,1.7617,1.7969,1.7969,1.7635,1.7169,1.689,1.6276,1.5635,1.5459,1.542,1.542,1.542,1.5537,1.5802,1.6154,1.6665,1.7574,1.886,1.9676,2.0801,2.197,2.2903,2.2979,2.3393,2.3622,2.3335,2.2278,2.1829,2.1595,2.1251,2.0456,1.9857,1.9555,1.9316,1.9168,1.936,1.9508,1.9789,2.0285,2.0865,2.1248,2.1728,2.2017,2.2137,2.2161,2.2185,2.2161,2.2185,2.1861,2.1476,2.0983,2.1139,2.1344,2.1524,2.1512,2.1498,2.1862,2.1765,2.1765,2.1898,2.2055,2.2201,2.2322,2.2469,2.2739,2.2957,2.3185,2.3365,2.3484,2.393,2.4724,2.5245,2.5646,2.6153,2.6697,2.6924,2.6852,2.6823,2.7012,2.7012,2.7224,2.746,2.7512,2.8714,2.8655,2.8565,2.8956,2.9894,3.0253,3.0043,3.0335,3.0568,3.0926,3.1065,3.1668,3.1888,3.1496,3.1389,3.1989,3.1728,3.06,2.9863,2.9438,2.9177,2.8778,2.8403,2.7989,2.8167,2.8228,1.8008,1.8008,1.8008,1.8008,1.7988,1.7881,1.791,1.8008,1.8008,1.7899,1.7703,1.7002,1.6398,1.6004,1.5634,1.5488,1.542,1.5459,1.5654,1.5998,1.6444,1.6971,1.778,1.8765,1.983,2.1129,2.2362,2.3328,2.3556,2.3809,2.4073,2.401,2.3089,2.2712,2.2476,2.2263,2.1307,2.0643,2.0412,2.0064,2.0042,2.0295,2.0261,2.0387,2.1055,2.1473,2.1608,2.1945,2.2161,2.2197,2.2197,2.2197,2.2197,2.2197,2.2041,2.2017,2.1825,2.1837,2.1945,2.1969,2.1933,2.1897,2.2101,2.2113,2.2053,2.2065,2.2185,2.2247,2.242,2.2604,2.2909,2.3125,2.3424,2.3603,2.3721,2.4047,2.4781,2.5119,2.5591,2.6236,2.6794,2.707,2.6982,2.7215,2.736,2.7215,2.7263,2.7563,2.8178,2.9326,3.0008,2.9824,3.021,3.0788,3.0996,3.0799,3.1311,3.1774,3.1958,3.2135,3.2321,3.2384,3.2296,3.225,3.2167,3.189,3.1397,3.0566,2.9473,2.9258,2.8855,2.8465,2.8183,2.8408,2.8551,1.7617,1.7734,1.7578,1.7598,1.7783,1.793,1.8008,1.8008,1.8008,1.8027,1.7898,1.7301,1.6631,1.5952,1.573,1.5605,1.542,1.543,1.5625,1.6136,1.6767,1.7472,1.8176,1.9222,2.0509,2.1735,2.2817,2.3815,2.403,2.4326,2.4614,2.4654,2.3966,2.355,2.3185,2.2703,2.2145,2.1615,2.1192,2.0761,2.0831,2.1158,2.1054,2.0938,2.1756,2.186,2.1777,2.2101,2.2161,2.2197,2.2197,2.2197,2.2197,2.2197,2.2197,2.2149,2.2137,2.2101,2.2137,2.2149,2.2185,2.2197,2.2197,2.2185,2.2173,2.2173,2.2197,2.2247,2.2482,2.2714,2.3125,2.3471,2.3884,2.4234,2.4292,2.4337,2.4667,2.4951,2.5564,2.6264,2.673,2.7089,2.7316,2.7578,2.7592,2.7229,2.7215,2.7569,2.8253,2.9271,3.0027,3.0268,3.076,3.1298,3.1433,3.1685,3.2071,3.2353,3.25,3.2687,3.2812,3.2602,3.2305,3.2035,3.1844,3.152,3.1151,3.0135,2.9196,2.9089,2.895,2.8563,2.8434,2.8721,2.8834,1.6973,1.7305,1.6943,1.7129,1.7471,1.7861,1.8008,1.8008,1.8008,1.7996,1.7949,1.7563,1.6776,1.623,1.6023,1.5879,1.5723,1.5654,1.6018,1.6304,1.7593,1.8407,1.9222,2.0599,2.1417,2.2347,2.3273,2.416,2.4522,2.4711,2.4855,2.5109,2.3753,2.3255,2.3673,2.294,2.2651,2.2884,2.2333,2.1908,2.158,2.1757,2.1961,2.1439,2.1788,2.2149,2.2161,2.2197,2.2197,2.2197,2.2197,2.2197,2.2318,2.2462,2.2438,2.2378,2.245,2.2378,2.233,2.227,2.2197,2.2197,2.2197,2.2197,2.2197,2.2197,2.2197,2.2469,2.2763,2.3113,2.3471,2.3852,2.4216,2.449,2.4654,2.4641,2.4816,2.5154,2.5715,2.65,2.7328,2.7563,2.7171,2.7374,2.7665,2.7229,2.7244,2.7592,2.8137,2.909,2.9823,3.0412,3.0646,3.1259,3.2399,3.2621,3.2756,3.2972,3.2886,3.2422,3.2035,3.2083,3.2198,3.1859,3.1474,3.1105,3.0612,2.975,2.9243,2.9196,2.9012,2.8611,2.8655,2.9005,2.9092,1.6787,1.6914,1.7129,1.7471,1.7852,1.7969,1.8008,1.8008,1.8008,1.8037,1.7909,1.7615,1.7445,1.7204,1.6449,1.6172,1.6289,1.6055,1.6777,1.7407,1.8415,1.9168,1.9894,2.1297,2.2182,2.2889,2.3696,2.441,2.4606,2.4747,2.4735,2.4687,2.3736,2.3759,2.3897,2.3218,2.3475,2.3777,2.342,2.2935,2.2674,2.2548,2.2528,2.219,2.2246,2.2258,2.2246,2.2197,2.2197,2.2197,2.2197,2.2402,2.2751,2.3135,2.334,2.3316,2.2907,2.2727,2.2546,2.2354,2.2221,2.2185,2.2247,2.2197,2.2197,2.2197,2.2359,2.275,2.316,2.3518,2.3884,2.4216,2.4611,2.4851,2.5023,2.4964,2.4964,2.5461,2.5962,2.6852,2.7784,2.7694,2.7244,2.7244,2.7505,2.7592,2.7578,2.7752,2.7969,2.863,2.9525,3.0053,3.0105,3.0812,3.2218,3.3006,3.2886,3.2807,3.273,3.2092,3.131,3.1334,3.1489,3.1336,3.1074,3.0751,3.0366,2.9766,2.9381,2.9427,2.9304,2.9027,2.9058,2.9331,2.9346,1.626,1.6475,1.6914,1.7344,1.7715,1.793,1.8008,1.8008,1.8008,1.8008,1.7988,1.7773,1.7826,1.7945,1.7012,1.6562,1.6738,1.6484,1.7179,1.8068,1.9019,1.9841,2.0826,2.2001,2.2834,2.3616,2.4276,2.4835,2.4795,2.4891,2.4903,2.4735,2.4318,2.4098,2.4131,2.4205,2.4121,2.4237,2.419,2.3874,2.352,2.3244,2.3111,2.2787,2.269,2.2594,2.2426,2.2366,2.2197,2.2306,2.2426,2.263,2.3003,2.3465,2.3598,2.3364,2.3075,2.2871,2.2642,2.2414,2.2209,2.2271,2.2531,2.2641,2.2774,2.2834,2.2932,2.3327,2.3989,2.4408,2.4681,2.5005,2.5644,2.6104,2.5754,2.549,2.5533,2.5689,2.6179,2.6712,2.7403,2.7563,2.7287,2.7389,2.7607,2.7679,2.7668,2.8042,2.8245,2.8572,2.9391,2.9871,2.9977,3.0314,3.1385,3.2167,3.2556,3.2482,3.2222,3.1748,3.1083,3.0835,3.0675,3.0757,3.0735,3.0505,3.0074,2.9797,2.9843,2.9966,2.9781,2.9535,2.9612,2.9531,2.9311,1.5693,1.6103,1.6553,1.6992,1.7422,1.7832,1.8008,1.8008,1.8008,1.8008,1.8008,1.7988,1.8034,1.7846,1.7619,1.7233,1.6982,1.6885,1.757,1.8678,1.962,2.0456,2.1597,2.2904,2.3394,2.3946,2.4582,2.4869,2.4999,2.4999,2.4963,2.5059,2.4939,2.4735,2.4939,2.4867,2.456,2.4788,2.4771,2.4578,2.4145,2.3652,2.3496,2.3424,2.3292,2.3015,2.2811,2.2546,2.2246,2.2378,2.263,2.2943,2.3195,2.3622,2.3604,2.3472,2.3159,2.2835,2.251,2.2318,2.232,2.2407,2.2884,2.3122,2.331,2.35,2.3657,2.3975,2.465,2.5143,2.5424,2.5758,2.6497,2.6932,2.6455,2.6104,2.6131,2.6186,2.6565,2.6982,2.7302,2.7578,2.7505,2.7607,2.7766,2.7824,2.8028,2.8347,2.8735,2.923,2.9849,3.0061,3.0078,3.0479,3.1008,3.1223,3.1739,3.1256,3.0964,3.0933,3.0727,3.0196,3.0052,3.0397,3.0314,3.0228,3.0304,3.0212,3.032,3.052,3.0181,2.995,2.9904,2.9761,2.9144,1.5674,1.6154,1.6543,1.6982,1.7412,1.7832,1.8008,1.8008,1.8008,1.8008,1.8008,1.8008,1.8027,1.7968,1.7595,1.7393,1.7559,1.7458,1.8428,1.9706,2.0106,2.0933,2.1969,2.3036,2.3406,2.4001,2.4518,2.4626,2.4963,2.4855,2.4711,2.4747,2.4723,2.4614,2.4626,2.4638,2.4807,2.5011,2.4915,2.465,2.4771,2.4314,2.3785,2.3544,2.3268,2.3075,2.2835,2.245,2.227,2.2354,2.2727,2.3183,2.3508,2.3725,2.3761,2.3688,2.3364,2.2907,2.2594,2.2442,2.2431,2.2813,2.3188,2.3533,2.3871,2.4429,2.4526,2.465,2.5213,2.5699,2.6008,2.6315,2.6877,2.7045,2.6804,2.6961,2.7054,2.7193,2.7455,2.7882,2.8289,2.8158,2.7726,2.8042,2.8463,2.8565,2.8768,2.9058,2.9549,2.9989,3.0478,3.0609,3.0644,3.0592,3.0984,3.0511,3.0622,3.0111,2.9848,3.0058,2.9909,2.9277,2.9304,3.012,3.0197,3.0027,3.0166,3.0705,3.0905,3.1012,3.0597,3.0283,3.0268,3.0026,2.9529]}]]